<?xml version="1.0" encoding="UTF-8" standalone="no" ?>
<gpx xmlns="http://www.topografix.com/GPX/1/1" xmlns:xsi="http://www.w3.org/2001/XMLSchema-instance" xsi:schemaLocation="http://www.topografix.com/GPX/1/1 http://www.topografix.com/GPX/1/1/gpx.xsd" version="1.1" creator="VisuGPX - https://www.visugpx.com">
  <metadata>
    <name>Manigod 2017</name>
    <desc><![CDATA[Journée ski a Manigod pendfant les vacances d'hiver 2017]]></desc>
  </metadata>
  <trk>
    <name><![CDATA[MANIGOD]]></name>
    <trkseg>
      <trkpt lat="45.87602" lon="6.40209">
        <ele>1446.92</ele>
        <time>2017-02-16T08:17:46Z</time>
      </trkpt>
      <trkpt lat="45.87602" lon="6.40209">
        <ele>1446.92</ele>
        <time>2017-02-16T08:17:47Z</time>
      </trkpt>
      <trkpt lat="45.87603" lon="6.4021">
        <ele>1446.92</ele>
        <time>2017-02-16T08:17:50Z</time>
      </trkpt>
      <trkpt lat="45.8758" lon="6.40206">
        <ele>1445</ele>
        <time>2017-02-16T08:17:59Z</time>
      </trkpt>
      <trkpt lat="45.87565" lon="6.40205">
        <ele>1443.56</ele>
        <time>2017-02-16T08:18:03Z</time>
      </trkpt>
      <trkpt lat="45.87536" lon="6.40202">
        <ele>1442.11</ele>
        <time>2017-02-16T08:18:10Z</time>
      </trkpt>
      <trkpt lat="45.87533" lon="6.40203">
        <ele>1441.63</ele>
        <time>2017-02-16T08:18:11Z</time>
      </trkpt>
      <trkpt lat="45.87529" lon="6.40206">
        <ele>1442.11</ele>
        <time>2017-02-16T08:18:14Z</time>
      </trkpt>
      <trkpt lat="45.87527" lon="6.40207">
        <ele>1441.63</ele>
        <time>2017-02-16T08:18:18Z</time>
      </trkpt>
      <trkpt lat="45.87524" lon="6.40208">
        <ele>1442.11</ele>
        <time>2017-02-16T08:18:30Z</time>
      </trkpt>
      <trkpt lat="45.87522" lon="6.40208">
        <ele>1442.11</ele>
        <time>2017-02-16T08:18:44Z</time>
      </trkpt>
      <trkpt lat="45.87521" lon="6.40208">
        <ele>1443.56</ele>
        <time>2017-02-16T08:18:48Z</time>
      </trkpt>
      <trkpt lat="45.8752" lon="6.40209">
        <ele>1439.71</ele>
        <time>2017-02-16T08:18:54Z</time>
      </trkpt>
      <trkpt lat="45.8752" lon="6.40209">
        <ele>1445.96</ele>
        <time>2017-02-16T08:18:55Z</time>
      </trkpt>
      <trkpt lat="45.8752" lon="6.40211">
        <ele>1442.11</ele>
        <time>2017-02-16T08:18:57Z</time>
      </trkpt>
      <trkpt lat="45.87519" lon="6.40211">
        <ele>1442.11</ele>
        <time>2017-02-16T08:18:58Z</time>
      </trkpt>
      <trkpt lat="45.87516" lon="6.40215">
        <ele>1442.6</ele>
        <time>2017-02-16T08:19:13Z</time>
      </trkpt>
      <trkpt lat="45.87511" lon="6.40219">
        <ele>1442.11</ele>
        <time>2017-02-16T08:19:23Z</time>
      </trkpt>
      <trkpt lat="45.87495" lon="6.40232">
        <ele>1441.15</ele>
        <time>2017-02-16T08:19:32Z</time>
      </trkpt>
      <trkpt lat="45.87492" lon="6.40235">
        <ele>1442.11</ele>
        <time>2017-02-16T08:19:34Z</time>
      </trkpt>
      <trkpt lat="45.87478" lon="6.40252">
        <ele>1445.48</ele>
        <time>2017-02-16T08:19:43Z</time>
      </trkpt>
      <trkpt lat="45.87464" lon="6.40267">
        <ele>1448.84</ele>
        <time>2017-02-16T08:19:51Z</time>
      </trkpt>
      <trkpt lat="45.87454" lon="6.40277">
        <ele>1452.21</ele>
        <time>2017-02-16T08:19:57Z</time>
      </trkpt>
      <trkpt lat="45.87445" lon="6.40287">
        <ele>1455.09</ele>
        <time>2017-02-16T08:20:03Z</time>
      </trkpt>
      <trkpt lat="45.87435" lon="6.40297">
        <ele>1458.94</ele>
        <time>2017-02-16T08:20:09Z</time>
      </trkpt>
      <trkpt lat="45.87433" lon="6.40298">
        <ele>1458.94</ele>
        <time>2017-02-16T08:20:10Z</time>
      </trkpt>
      <trkpt lat="45.87428" lon="6.40303">
        <ele>1460.86</ele>
        <time>2017-02-16T08:20:13Z</time>
      </trkpt>
      <trkpt lat="45.87422" lon="6.4031">
        <ele>1463.74</ele>
        <time>2017-02-16T08:20:17Z</time>
      </trkpt>
      <trkpt lat="45.87414" lon="6.40321">
        <ele>1467.11</ele>
        <time>2017-02-16T08:20:23Z</time>
      </trkpt>
      <trkpt lat="45.87413" lon="6.40322">
        <ele>1467.11</ele>
        <time>2017-02-16T08:20:24Z</time>
      </trkpt>
      <trkpt lat="45.87404" lon="6.4033">
        <ele>1469.51</ele>
        <time>2017-02-16T08:20:29Z</time>
      </trkpt>
      <trkpt lat="45.87394" lon="6.40338">
        <ele>1473.36</ele>
        <time>2017-02-16T08:20:34Z</time>
      </trkpt>
      <trkpt lat="45.87387" lon="6.40345">
        <ele>1475.76</ele>
        <time>2017-02-16T08:20:38Z</time>
      </trkpt>
      <trkpt lat="45.8738" lon="6.40351">
        <ele>1479.13</ele>
        <time>2017-02-16T08:20:42Z</time>
      </trkpt>
      <trkpt lat="45.87372" lon="6.4036">
        <ele>1482.97</ele>
        <time>2017-02-16T08:20:47Z</time>
      </trkpt>
      <trkpt lat="45.87364" lon="6.40367">
        <ele>1486.34</ele>
        <time>2017-02-16T08:20:52Z</time>
      </trkpt>
      <trkpt lat="45.87357" lon="6.40374">
        <ele>1489.7</ele>
        <time>2017-02-16T08:20:56Z</time>
      </trkpt>
      <trkpt lat="45.87351" lon="6.4038">
        <ele>1493.06</ele>
        <time>2017-02-16T08:21:00Z</time>
      </trkpt>
      <trkpt lat="45.87344" lon="6.40386">
        <ele>1496.43</ele>
        <time>2017-02-16T08:21:04Z</time>
      </trkpt>
      <trkpt lat="45.87339" lon="6.40391">
        <ele>1499.79</ele>
        <time>2017-02-16T08:21:08Z</time>
      </trkpt>
      <trkpt lat="45.87334" lon="6.40396">
        <ele>1502.68</ele>
        <time>2017-02-16T08:21:11Z</time>
      </trkpt>
      <trkpt lat="45.87327" lon="6.40402">
        <ele>1506.52</ele>
        <time>2017-02-16T08:21:15Z</time>
      </trkpt>
      <trkpt lat="45.87323" lon="6.40406">
        <ele>1509.89</ele>
        <time>2017-02-16T08:21:18Z</time>
      </trkpt>
      <trkpt lat="45.87314" lon="6.40414">
        <ele>1513.25</ele>
        <time>2017-02-16T08:21:23Z</time>
      </trkpt>
      <trkpt lat="45.87306" lon="6.40422">
        <ele>1517.1</ele>
        <time>2017-02-16T08:21:28Z</time>
      </trkpt>
      <trkpt lat="45.87299" lon="6.40428">
        <ele>1519.5</ele>
        <time>2017-02-16T08:21:32Z</time>
      </trkpt>
      <trkpt lat="45.87294" lon="6.40433">
        <ele>1522.39</ele>
        <time>2017-02-16T08:21:35Z</time>
      </trkpt>
      <trkpt lat="45.87293" lon="6.40434">
        <ele>1522.39</ele>
        <time>2017-02-16T08:21:36Z</time>
      </trkpt>
      <trkpt lat="45.87288" lon="6.40438">
        <ele>1525.75</ele>
        <time>2017-02-16T08:21:39Z</time>
      </trkpt>
      <trkpt lat="45.87283" lon="6.40443">
        <ele>1533.92</ele>
        <time>2017-02-16T08:21:42Z</time>
      </trkpt>
      <trkpt lat="45.87282" lon="6.40444">
        <ele>1529.59</ele>
        <time>2017-02-16T08:21:43Z</time>
      </trkpt>
      <trkpt lat="45.87272" lon="6.40452">
        <ele>1532.48</ele>
        <time>2017-02-16T08:21:48Z</time>
      </trkpt>
      <trkpt lat="45.87258" lon="6.40464">
        <ele>1535.84</ele>
        <time>2017-02-16T08:21:55Z</time>
      </trkpt>
      <trkpt lat="45.87245" lon="6.40473">
        <ele>1539.21</ele>
        <time>2017-02-16T08:22:02Z</time>
      </trkpt>
      <trkpt lat="45.87235" lon="6.40482">
        <ele>1542.57</ele>
        <time>2017-02-16T08:22:08Z</time>
      </trkpt>
      <trkpt lat="45.87225" lon="6.40491">
        <ele>1545.94</ele>
        <time>2017-02-16T08:22:14Z</time>
      </trkpt>
      <trkpt lat="45.87217" lon="6.40498">
        <ele>1549.3</ele>
        <time>2017-02-16T08:22:19Z</time>
      </trkpt>
      <trkpt lat="45.87208" lon="6.40507">
        <ele>1552.67</ele>
        <time>2017-02-16T08:22:24Z</time>
      </trkpt>
      <trkpt lat="45.87198" lon="6.40517">
        <ele>1555.55</ele>
        <time>2017-02-16T08:22:30Z</time>
      </trkpt>
      <trkpt lat="45.87179" lon="6.40535">
        <ele>1558.92</ele>
        <time>2017-02-16T08:22:41Z</time>
      </trkpt>
      <trkpt lat="45.87164" lon="6.4055">
        <ele>1562.76</ele>
        <time>2017-02-16T08:22:50Z</time>
      </trkpt>
      <trkpt lat="45.87161" lon="6.40553">
        <ele>1563.24</ele>
        <time>2017-02-16T08:22:52Z</time>
      </trkpt>
      <trkpt lat="45.87151" lon="6.40563">
        <ele>1566.61</ele>
        <time>2017-02-16T08:22:58Z</time>
      </trkpt>
      <trkpt lat="45.87141" lon="6.40573">
        <ele>1569.49</ele>
        <time>2017-02-16T08:23:04Z</time>
      </trkpt>
      <trkpt lat="45.8713" lon="6.40584">
        <ele>1572.85</ele>
        <time>2017-02-16T08:23:10Z</time>
      </trkpt>
      <trkpt lat="45.8712" lon="6.40593">
        <ele>1576.22</ele>
        <time>2017-02-16T08:23:16Z</time>
      </trkpt>
      <trkpt lat="45.87096" lon="6.40619">
        <ele>1579.58</ele>
        <time>2017-02-16T08:23:30Z</time>
      </trkpt>
      <trkpt lat="45.87079" lon="6.40635">
        <ele>1582.95</ele>
        <time>2017-02-16T08:23:40Z</time>
      </trkpt>
      <trkpt lat="45.87066" lon="6.40649">
        <ele>1585.83</ele>
        <time>2017-02-16T08:23:48Z</time>
      </trkpt>
      <trkpt lat="45.87055" lon="6.40659">
        <ele>1589.68</ele>
        <time>2017-02-16T08:23:55Z</time>
      </trkpt>
      <trkpt lat="45.87046" lon="6.40668">
        <ele>1592.56</ele>
        <time>2017-02-16T08:24:01Z</time>
      </trkpt>
      <trkpt lat="45.87036" lon="6.40679">
        <ele>1595.93</ele>
        <time>2017-02-16T08:24:07Z</time>
      </trkpt>
      <trkpt lat="45.87026" lon="6.40687">
        <ele>1599.29</ele>
        <time>2017-02-16T08:24:15Z</time>
      </trkpt>
      <trkpt lat="45.87014" lon="6.40696">
        <ele>1602.17</ele>
        <time>2017-02-16T08:24:24Z</time>
      </trkpt>
      <trkpt lat="45.86995" lon="6.40713">
        <ele>1605.54</ele>
        <time>2017-02-16T08:24:35Z</time>
      </trkpt>
      <trkpt lat="45.86981" lon="6.40727">
        <ele>1608.9</ele>
        <time>2017-02-16T08:24:43Z</time>
      </trkpt>
      <trkpt lat="45.86974" lon="6.40734">
        <ele>1610.35</ele>
        <time>2017-02-16T08:24:47Z</time>
      </trkpt>
      <trkpt lat="45.86962" lon="6.40746">
        <ele>1614.19</ele>
        <time>2017-02-16T08:24:54Z</time>
      </trkpt>
      <trkpt lat="45.86953" lon="6.40757">
        <ele>1617.07</ele>
        <time>2017-02-16T08:25:00Z</time>
      </trkpt>
      <trkpt lat="45.86936" lon="6.40775">
        <ele>1620.44</ele>
        <time>2017-02-16T08:25:10Z</time>
      </trkpt>
      <trkpt lat="45.86917" lon="6.40794">
        <ele>1623.32</ele>
        <time>2017-02-16T08:25:21Z</time>
      </trkpt>
      <trkpt lat="45.86903" lon="6.40807">
        <ele>1626.69</ele>
        <time>2017-02-16T08:25:29Z</time>
      </trkpt>
      <trkpt lat="45.8689" lon="6.4082">
        <ele>1629.57</ele>
        <time>2017-02-16T08:25:37Z</time>
      </trkpt>
      <trkpt lat="45.86877" lon="6.40832">
        <ele>1632.94</ele>
        <time>2017-02-16T08:25:44Z</time>
      </trkpt>
      <trkpt lat="45.8686" lon="6.40848">
        <ele>1636.3</ele>
        <time>2017-02-16T08:25:54Z</time>
      </trkpt>
      <trkpt lat="45.86837" lon="6.4087">
        <ele>1639.67</ele>
        <time>2017-02-16T08:26:07Z</time>
      </trkpt>
      <trkpt lat="45.8682" lon="6.40886">
        <ele>1643.03</ele>
        <time>2017-02-16T08:26:17Z</time>
      </trkpt>
      <trkpt lat="45.86807" lon="6.40899">
        <ele>1645.91</ele>
        <time>2017-02-16T08:26:25Z</time>
      </trkpt>
      <trkpt lat="45.86772" lon="6.40934">
        <ele>1648.32</ele>
        <time>2017-02-16T08:26:46Z</time>
      </trkpt>
      <trkpt lat="45.86769" lon="6.40936">
        <ele>1648.8</ele>
        <time>2017-02-16T08:26:47Z</time>
      </trkpt>
      <trkpt lat="45.86757" lon="6.40939">
        <ele>1647.36</ele>
        <time>2017-02-16T08:26:50Z</time>
      </trkpt>
      <trkpt lat="45.86733" lon="6.40944">
        <ele>1646.4</ele>
        <time>2017-02-16T08:27:01Z</time>
      </trkpt>
      <trkpt lat="45.86731" lon="6.40942">
        <ele>1649.76</ele>
        <time>2017-02-16T08:27:08Z</time>
      </trkpt>
      <trkpt lat="45.8673" lon="6.40943">
        <ele>1646.88</ele>
        <time>2017-02-16T08:27:10Z</time>
      </trkpt>
      <trkpt lat="45.86726" lon="6.40943">
        <ele>1646.88</ele>
        <time>2017-02-16T08:27:30Z</time>
      </trkpt>
      <trkpt lat="45.86725" lon="6.40943">
        <ele>1646.88</ele>
        <time>2017-02-16T08:27:36Z</time>
      </trkpt>
      <trkpt lat="45.86719" lon="6.40941">
        <ele>1645.91</ele>
        <time>2017-02-16T08:27:45Z</time>
      </trkpt>
      <trkpt lat="45.86701" lon="6.40933">
        <ele>1643.99</ele>
        <time>2017-02-16T08:27:53Z</time>
      </trkpt>
      <trkpt lat="45.86685" lon="6.40938">
        <ele>1640.63</ele>
        <time>2017-02-16T08:27:56Z</time>
      </trkpt>
      <trkpt lat="45.86664" lon="6.40948">
        <ele>1637.74</ele>
        <time>2017-02-16T08:28:00Z</time>
      </trkpt>
      <trkpt lat="45.86644" lon="6.40954">
        <ele>1633.9</ele>
        <time>2017-02-16T08:28:04Z</time>
      </trkpt>
      <trkpt lat="45.86637" lon="6.40962">
        <ele>1632.94</ele>
        <time>2017-02-16T08:28:06Z</time>
      </trkpt>
      <trkpt lat="45.86619" lon="6.40968">
        <ele>1629.09</ele>
        <time>2017-02-16T08:28:10Z</time>
      </trkpt>
      <trkpt lat="45.86607" lon="6.40971">
        <ele>1625.25</ele>
        <time>2017-02-16T08:28:14Z</time>
      </trkpt>
      <trkpt lat="45.86611" lon="6.40972">
        <ele>1626.21</ele>
        <time>2017-02-16T08:28:20Z</time>
      </trkpt>
      <trkpt lat="45.86609" lon="6.40984">
        <ele>1622.84</ele>
        <time>2017-02-16T08:28:23Z</time>
      </trkpt>
      <trkpt lat="45.86608" lon="6.40988">
        <ele>1622.36</ele>
        <time>2017-02-16T08:28:24Z</time>
      </trkpt>
      <trkpt lat="45.86607" lon="6.4101">
        <ele>1619.48</ele>
        <time>2017-02-16T08:28:28Z</time>
      </trkpt>
      <trkpt lat="45.86595" lon="6.41018">
        <ele>1615.15</ele>
        <time>2017-02-16T08:28:32Z</time>
      </trkpt>
      <trkpt lat="45.86592" lon="6.41021">
        <ele>1613.23</ele>
        <time>2017-02-16T08:28:33Z</time>
      </trkpt>
      <trkpt lat="45.86588" lon="6.41036">
        <ele>1609.86</ele>
        <time>2017-02-16T08:28:36Z</time>
      </trkpt>
      <trkpt lat="45.86581" lon="6.41049">
        <ele>1606.02</ele>
        <time>2017-02-16T08:28:39Z</time>
      </trkpt>
      <trkpt lat="45.86578" lon="6.41063">
        <ele>1605.54</ele>
        <time>2017-02-16T08:28:53Z</time>
      </trkpt>
      <trkpt lat="45.86578" lon="6.41064">
        <ele>1605.54</ele>
        <time>2017-02-16T08:28:55Z</time>
      </trkpt>
      <trkpt lat="45.8657" lon="6.4108">
        <ele>1602.17</ele>
        <time>2017-02-16T08:29:00Z</time>
      </trkpt>
      <trkpt lat="45.86565" lon="6.41095">
        <ele>1599.29</ele>
        <time>2017-02-16T08:29:03Z</time>
      </trkpt>
      <trkpt lat="45.86557" lon="6.41109">
        <ele>1594.48</ele>
        <time>2017-02-16T08:29:06Z</time>
      </trkpt>
      <trkpt lat="45.86557" lon="6.41136">
        <ele>1591.12</ele>
        <time>2017-02-16T08:29:11Z</time>
      </trkpt>
      <trkpt lat="45.8655" lon="6.41146">
        <ele>1586.31</ele>
        <time>2017-02-16T08:29:14Z</time>
      </trkpt>
      <trkpt lat="45.86545" lon="6.41165">
        <ele>1583.43</ele>
        <time>2017-02-16T08:29:17Z</time>
      </trkpt>
      <trkpt lat="45.86544" lon="6.41172">
        <ele>1581.99</ele>
        <time>2017-02-16T08:29:18Z</time>
      </trkpt>
      <trkpt lat="45.86541" lon="6.4119">
        <ele>1576.7</ele>
        <time>2017-02-16T08:29:20Z</time>
      </trkpt>
      <trkpt lat="45.86539" lon="6.41198">
        <ele>1575.74</ele>
        <time>2017-02-16T08:29:21Z</time>
      </trkpt>
      <trkpt lat="45.86537" lon="6.41207">
        <ele>1575.74</ele>
        <time>2017-02-16T08:29:22Z</time>
      </trkpt>
      <trkpt lat="45.86534" lon="6.41214">
        <ele>1574.3</ele>
        <time>2017-02-16T08:29:23Z</time>
      </trkpt>
      <trkpt lat="45.8653" lon="6.41221">
        <ele>1573.33</ele>
        <time>2017-02-16T08:29:24Z</time>
      </trkpt>
      <trkpt lat="45.86527" lon="6.41226">
        <ele>1571.41</ele>
        <time>2017-02-16T08:29:25Z</time>
      </trkpt>
      <trkpt lat="45.86519" lon="6.41237">
        <ele>1569.97</ele>
        <time>2017-02-16T08:29:27Z</time>
      </trkpt>
      <trkpt lat="45.86513" lon="6.41243">
        <ele>1569.01</ele>
        <time>2017-02-16T08:29:28Z</time>
      </trkpt>
      <trkpt lat="45.86509" lon="6.41247">
        <ele>1567.09</ele>
        <time>2017-02-16T08:29:29Z</time>
      </trkpt>
      <trkpt lat="45.86504" lon="6.4125">
        <ele>1565.64</ele>
        <time>2017-02-16T08:29:30Z</time>
      </trkpt>
      <trkpt lat="45.86497" lon="6.41249">
        <ele>1564.2</ele>
        <time>2017-02-16T08:29:31Z</time>
      </trkpt>
      <trkpt lat="45.86489" lon="6.41248">
        <ele>1562.76</ele>
        <time>2017-02-16T08:29:32Z</time>
      </trkpt>
      <trkpt lat="45.86481" lon="6.41245">
        <ele>1561.8</ele>
        <time>2017-02-16T08:29:33Z</time>
      </trkpt>
      <trkpt lat="45.86473" lon="6.41238">
        <ele>1563.24</ele>
        <time>2017-02-16T08:29:34Z</time>
      </trkpt>
      <trkpt lat="45.86469" lon="6.41237">
        <ele>1563.24</ele>
        <time>2017-02-16T08:29:35Z</time>
      </trkpt>
      <trkpt lat="45.86467" lon="6.41237">
        <ele>1562.76</ele>
        <time>2017-02-16T08:29:36Z</time>
      </trkpt>
      <trkpt lat="45.8646" lon="6.41235">
        <ele>1563.24</ele>
        <time>2017-02-16T08:29:46Z</time>
      </trkpt>
      <trkpt lat="45.86458" lon="6.41235">
        <ele>1563.24</ele>
        <time>2017-02-16T08:29:47Z</time>
      </trkpt>
      <trkpt lat="45.86455" lon="6.41236">
        <ele>1563.24</ele>
        <time>2017-02-16T08:29:48Z</time>
      </trkpt>
      <trkpt lat="45.86438" lon="6.41242">
        <ele>1558.92</ele>
        <time>2017-02-16T08:29:51Z</time>
      </trkpt>
      <trkpt lat="45.86424" lon="6.41249">
        <ele>1555.55</ele>
        <time>2017-02-16T08:29:53Z</time>
      </trkpt>
      <trkpt lat="45.86417" lon="6.41255">
        <ele>1554.59</ele>
        <time>2017-02-16T08:29:54Z</time>
      </trkpt>
      <trkpt lat="45.86411" lon="6.4126">
        <ele>1554.59</ele>
        <time>2017-02-16T08:29:55Z</time>
      </trkpt>
      <trkpt lat="45.86404" lon="6.41263">
        <ele>1554.59</ele>
        <time>2017-02-16T08:29:56Z</time>
      </trkpt>
      <trkpt lat="45.86396" lon="6.41264">
        <ele>1553.63</ele>
        <time>2017-02-16T08:29:57Z</time>
      </trkpt>
      <trkpt lat="45.86389" lon="6.41263">
        <ele>1552.19</ele>
        <time>2017-02-16T08:29:58Z</time>
      </trkpt>
      <trkpt lat="45.86382" lon="6.41263">
        <ele>1550.26</ele>
        <time>2017-02-16T08:29:59Z</time>
      </trkpt>
      <trkpt lat="45.86377" lon="6.41264">
        <ele>1549.78</ele>
        <time>2017-02-16T08:30:00Z</time>
      </trkpt>
      <trkpt lat="45.86372" lon="6.41268">
        <ele>1549.3</ele>
        <time>2017-02-16T08:30:01Z</time>
      </trkpt>
      <trkpt lat="45.86369" lon="6.41272">
        <ele>1549.3</ele>
        <time>2017-02-16T08:30:02Z</time>
      </trkpt>
      <trkpt lat="45.86366" lon="6.41276">
        <ele>1549.3</ele>
        <time>2017-02-16T08:30:03Z</time>
      </trkpt>
      <trkpt lat="45.86364" lon="6.41278">
        <ele>1549.3</ele>
        <time>2017-02-16T08:30:04Z</time>
      </trkpt>
      <trkpt lat="45.8636" lon="6.41282">
        <ele>1548.34</ele>
        <time>2017-02-16T08:30:08Z</time>
      </trkpt>
      <trkpt lat="45.86358" lon="6.41282">
        <ele>1547.86</ele>
        <time>2017-02-16T08:30:09Z</time>
      </trkpt>
      <trkpt lat="45.86354" lon="6.41282">
        <ele>1546.42</ele>
        <time>2017-02-16T08:30:10Z</time>
      </trkpt>
      <trkpt lat="45.86349" lon="6.41281">
        <ele>1544.98</ele>
        <time>2017-02-16T08:30:11Z</time>
      </trkpt>
      <trkpt lat="45.86344" lon="6.41283">
        <ele>1543.05</ele>
        <time>2017-02-16T08:30:12Z</time>
      </trkpt>
      <trkpt lat="45.86341" lon="6.41288">
        <ele>1542.09</ele>
        <time>2017-02-16T08:30:13Z</time>
      </trkpt>
      <trkpt lat="45.86339" lon="6.41295">
        <ele>1541.13</ele>
        <time>2017-02-16T08:30:14Z</time>
      </trkpt>
      <trkpt lat="45.86336" lon="6.413">
        <ele>1540.17</ele>
        <time>2017-02-16T08:30:15Z</time>
      </trkpt>
      <trkpt lat="45.86332" lon="6.41304">
        <ele>1538.25</ele>
        <time>2017-02-16T08:30:16Z</time>
      </trkpt>
      <trkpt lat="45.86328" lon="6.41308">
        <ele>1536.8</ele>
        <time>2017-02-16T08:30:17Z</time>
      </trkpt>
      <trkpt lat="45.86326" lon="6.41315">
        <ele>1535.36</ele>
        <time>2017-02-16T08:30:18Z</time>
      </trkpt>
      <trkpt lat="45.86323" lon="6.41324">
        <ele>1533.44</ele>
        <time>2017-02-16T08:30:19Z</time>
      </trkpt>
      <trkpt lat="45.8632" lon="6.41332">
        <ele>1531.04</ele>
        <time>2017-02-16T08:30:20Z</time>
      </trkpt>
      <trkpt lat="45.86316" lon="6.41339">
        <ele>1528.63</ele>
        <time>2017-02-16T08:30:21Z</time>
      </trkpt>
      <trkpt lat="45.86312" lon="6.41347">
        <ele>1525.75</ele>
        <time>2017-02-16T08:30:22Z</time>
      </trkpt>
      <trkpt lat="45.86301" lon="6.41361">
        <ele>1522.87</ele>
        <time>2017-02-16T08:30:24Z</time>
      </trkpt>
      <trkpt lat="45.86295" lon="6.41367">
        <ele>1520.46</ele>
        <time>2017-02-16T08:30:25Z</time>
      </trkpt>
      <trkpt lat="45.86289" lon="6.41374">
        <ele>1518.54</ele>
        <time>2017-02-16T08:30:26Z</time>
      </trkpt>
      <trkpt lat="45.86285" lon="6.4138">
        <ele>1517.58</ele>
        <time>2017-02-16T08:30:27Z</time>
      </trkpt>
      <trkpt lat="45.86283" lon="6.41385">
        <ele>1517.58</ele>
        <time>2017-02-16T08:30:28Z</time>
      </trkpt>
      <trkpt lat="45.86282" lon="6.41385">
        <ele>1518.06</ele>
        <time>2017-02-16T08:30:36Z</time>
      </trkpt>
      <trkpt lat="45.86282" lon="6.41385">
        <ele>1517.58</ele>
        <time>2017-02-16T08:30:46Z</time>
      </trkpt>
      <trkpt lat="45.86281" lon="6.41386">
        <ele>1517.58</ele>
        <time>2017-02-16T08:30:47Z</time>
      </trkpt>
      <trkpt lat="45.86275" lon="6.41395">
        <ele>1512.77</ele>
        <time>2017-02-16T08:30:49Z</time>
      </trkpt>
      <trkpt lat="45.86262" lon="6.41413">
        <ele>1507.97</ele>
        <time>2017-02-16T08:30:51Z</time>
      </trkpt>
      <trkpt lat="45.86239" lon="6.41443">
        <ele>1503.64</ele>
        <time>2017-02-16T08:30:54Z</time>
      </trkpt>
      <trkpt lat="45.8623" lon="6.41454">
        <ele>1502.68</ele>
        <time>2017-02-16T08:30:55Z</time>
      </trkpt>
      <trkpt lat="45.86212" lon="6.41471">
        <ele>1501.72</ele>
        <time>2017-02-16T08:30:57Z</time>
      </trkpt>
      <trkpt lat="45.86193" lon="6.41498">
        <ele>1499.31</ele>
        <time>2017-02-16T08:31:00Z</time>
      </trkpt>
      <trkpt lat="45.86187" lon="6.41506">
        <ele>1498.35</ele>
        <time>2017-02-16T08:31:01Z</time>
      </trkpt>
      <trkpt lat="45.86182" lon="6.41514">
        <ele>1496.91</ele>
        <time>2017-02-16T08:31:02Z</time>
      </trkpt>
      <trkpt lat="45.86162" lon="6.41548">
        <ele>1493.06</ele>
        <time>2017-02-16T08:31:07Z</time>
      </trkpt>
      <trkpt lat="45.86159" lon="6.41555">
        <ele>1492.1</ele>
        <time>2017-02-16T08:31:08Z</time>
      </trkpt>
      <trkpt lat="45.86146" lon="6.41577">
        <ele>1488.26</ele>
        <time>2017-02-16T08:31:11Z</time>
      </trkpt>
      <trkpt lat="45.8614" lon="6.41581">
        <ele>1488.26</ele>
        <time>2017-02-16T08:31:12Z</time>
      </trkpt>
      <trkpt lat="45.8613" lon="6.41583">
        <ele>1488.26</ele>
        <time>2017-02-16T08:31:14Z</time>
      </trkpt>
      <trkpt lat="45.86118" lon="6.41569">
        <ele>1488.74</ele>
        <time>2017-02-16T08:31:23Z</time>
      </trkpt>
      <trkpt lat="45.86131" lon="6.41554">
        <ele>1485.85</ele>
        <time>2017-02-16T08:31:38Z</time>
      </trkpt>
      <trkpt lat="45.86132" lon="6.41554">
        <ele>1489.7</ele>
        <time>2017-02-16T08:31:39Z</time>
      </trkpt>
      <trkpt lat="45.86138" lon="6.4155">
        <ele>1488.74</ele>
        <time>2017-02-16T08:31:52Z</time>
      </trkpt>
      <trkpt lat="45.8614" lon="6.41547">
        <ele>1488.26</ele>
        <time>2017-02-16T08:32:10Z</time>
      </trkpt>
      <trkpt lat="45.86142" lon="6.41545">
        <ele>1488.26</ele>
        <time>2017-02-16T08:32:14Z</time>
      </trkpt>
      <trkpt lat="45.86144" lon="6.41541">
        <ele>1488.26</ele>
        <time>2017-02-16T08:32:16Z</time>
      </trkpt>
      <trkpt lat="45.86156" lon="6.41525">
        <ele>1491.62</ele>
        <time>2017-02-16T08:32:24Z</time>
      </trkpt>
      <trkpt lat="45.86162" lon="6.41519">
        <ele>1494.99</ele>
        <time>2017-02-16T08:32:27Z</time>
      </trkpt>
      <trkpt lat="45.86167" lon="6.41513">
        <ele>1498.35</ele>
        <time>2017-02-16T08:32:30Z</time>
      </trkpt>
      <trkpt lat="45.86173" lon="6.41503">
        <ele>1500.76</ele>
        <time>2017-02-16T08:32:34Z</time>
      </trkpt>
      <trkpt lat="45.86189" lon="6.41485">
        <ele>1503.64</ele>
        <time>2017-02-16T08:32:43Z</time>
      </trkpt>
      <trkpt lat="45.86201" lon="6.41469">
        <ele>1507</ele>
        <time>2017-02-16T08:32:50Z</time>
      </trkpt>
      <trkpt lat="45.86213" lon="6.41453">
        <ele>1510.85</ele>
        <time>2017-02-16T08:32:57Z</time>
      </trkpt>
      <trkpt lat="45.8623" lon="6.41428">
        <ele>1514.21</ele>
        <time>2017-02-16T08:33:08Z</time>
      </trkpt>
      <trkpt lat="45.86249" lon="6.41405">
        <ele>1517.58</ele>
        <time>2017-02-16T08:33:19Z</time>
      </trkpt>
      <trkpt lat="45.86262" lon="6.41387">
        <ele>1520.94</ele>
        <time>2017-02-16T08:33:27Z</time>
      </trkpt>
      <trkpt lat="45.86274" lon="6.41372">
        <ele>1524.31</ele>
        <time>2017-02-16T08:33:35Z</time>
      </trkpt>
      <trkpt lat="45.86281" lon="6.41362">
        <ele>1527.67</ele>
        <time>2017-02-16T08:33:40Z</time>
      </trkpt>
      <trkpt lat="45.86285" lon="6.41358">
        <ele>1528.63</ele>
        <time>2017-02-16T08:33:42Z</time>
      </trkpt>
      <trkpt lat="45.86293" lon="6.41347">
        <ele>1532</ele>
        <time>2017-02-16T08:33:47Z</time>
      </trkpt>
      <trkpt lat="45.86301" lon="6.41337">
        <ele>1534.88</ele>
        <time>2017-02-16T08:33:52Z</time>
      </trkpt>
      <trkpt lat="45.86309" lon="6.41326">
        <ele>1538.73</ele>
        <time>2017-02-16T08:33:57Z</time>
      </trkpt>
      <trkpt lat="45.86322" lon="6.41309">
        <ele>1542.09</ele>
        <time>2017-02-16T08:34:05Z</time>
      </trkpt>
      <trkpt lat="45.86336" lon="6.4129">
        <ele>1545.46</ele>
        <time>2017-02-16T08:34:14Z</time>
      </trkpt>
      <trkpt lat="45.86348" lon="6.41276">
        <ele>1548.34</ele>
        <time>2017-02-16T08:34:21Z</time>
      </trkpt>
      <trkpt lat="45.86358" lon="6.41264">
        <ele>1551.71</ele>
        <time>2017-02-16T08:34:27Z</time>
      </trkpt>
      <trkpt lat="45.86365" lon="6.41254">
        <ele>1555.07</ele>
        <time>2017-02-16T08:34:32Z</time>
      </trkpt>
      <trkpt lat="45.86389" lon="6.41222">
        <ele>1557.95</ele>
        <time>2017-02-16T08:34:47Z</time>
      </trkpt>
      <trkpt lat="45.86408" lon="6.41196">
        <ele>1561.32</ele>
        <time>2017-02-16T08:34:59Z</time>
      </trkpt>
      <trkpt lat="45.8642" lon="6.41183">
        <ele>1563.72</ele>
        <time>2017-02-16T08:35:15Z</time>
      </trkpt>
      <trkpt lat="45.86428" lon="6.41172">
        <ele>1565.64</ele>
        <time>2017-02-16T08:35:21Z</time>
      </trkpt>
      <trkpt lat="45.86435" lon="6.41163">
        <ele>1567.57</ele>
        <time>2017-02-16T08:35:25Z</time>
      </trkpt>
      <trkpt lat="45.86443" lon="6.41151">
        <ele>1570.93</ele>
        <time>2017-02-16T08:35:31Z</time>
      </trkpt>
      <trkpt lat="45.86453" lon="6.41139">
        <ele>1574.3</ele>
        <time>2017-02-16T08:35:37Z</time>
      </trkpt>
      <trkpt lat="45.86462" lon="6.41127">
        <ele>1577.66</ele>
        <time>2017-02-16T08:35:43Z</time>
      </trkpt>
      <trkpt lat="45.86467" lon="6.41121">
        <ele>1579.58</ele>
        <time>2017-02-16T08:35:46Z</time>
      </trkpt>
      <trkpt lat="45.86475" lon="6.41111">
        <ele>1582.95</ele>
        <time>2017-02-16T08:35:51Z</time>
      </trkpt>
      <trkpt lat="45.86483" lon="6.41101">
        <ele>1586.31</ele>
        <time>2017-02-16T08:35:56Z</time>
      </trkpt>
      <trkpt lat="45.86492" lon="6.4109">
        <ele>1589.68</ele>
        <time>2017-02-16T08:36:01Z</time>
      </trkpt>
      <trkpt lat="45.86499" lon="6.4108">
        <ele>1593.52</ele>
        <time>2017-02-16T08:36:06Z</time>
      </trkpt>
      <trkpt lat="45.86506" lon="6.41071">
        <ele>1596.89</ele>
        <time>2017-02-16T08:36:10Z</time>
      </trkpt>
      <trkpt lat="45.86512" lon="6.41063">
        <ele>1600.25</ele>
        <time>2017-02-16T08:36:14Z</time>
      </trkpt>
      <trkpt lat="45.86519" lon="6.41053">
        <ele>1603.14</ele>
        <time>2017-02-16T08:36:19Z</time>
      </trkpt>
      <trkpt lat="45.86527" lon="6.41042">
        <ele>1606.5</ele>
        <time>2017-02-16T08:36:24Z</time>
      </trkpt>
      <trkpt lat="45.86535" lon="6.41031">
        <ele>1609.86</ele>
        <time>2017-02-16T08:36:29Z</time>
      </trkpt>
      <trkpt lat="45.86541" lon="6.41023">
        <ele>1613.23</ele>
        <time>2017-02-16T08:36:33Z</time>
      </trkpt>
      <trkpt lat="45.86551" lon="6.41011">
        <ele>1616.11</ele>
        <time>2017-02-16T08:36:39Z</time>
      </trkpt>
      <trkpt lat="45.86561" lon="6.40998">
        <ele>1619.48</ele>
        <time>2017-02-16T08:36:45Z</time>
      </trkpt>
      <trkpt lat="45.8657" lon="6.40985">
        <ele>1623.32</ele>
        <time>2017-02-16T08:36:51Z</time>
      </trkpt>
      <trkpt lat="45.86574" lon="6.40979">
        <ele>1624.28</ele>
        <time>2017-02-16T08:36:54Z</time>
      </trkpt>
      <trkpt lat="45.8658" lon="6.40969">
        <ele>1627.65</ele>
        <time>2017-02-16T08:36:58Z</time>
      </trkpt>
      <trkpt lat="45.86585" lon="6.40963">
        <ele>1629.09</ele>
        <time>2017-02-16T08:37:01Z</time>
      </trkpt>
      <trkpt lat="45.86591" lon="6.40955">
        <ele>1632.46</ele>
        <time>2017-02-16T08:37:05Z</time>
      </trkpt>
      <trkpt lat="45.86601" lon="6.40943">
        <ele>1635.82</ele>
        <time>2017-02-16T08:37:11Z</time>
      </trkpt>
      <trkpt lat="45.86612" lon="6.40927">
        <ele>1638.7</ele>
        <time>2017-02-16T08:37:18Z</time>
      </trkpt>
      <trkpt lat="45.86613" lon="6.40926">
        <ele>1638.7</ele>
        <time>2017-02-16T08:37:19Z</time>
      </trkpt>
      <trkpt lat="45.86623" lon="6.40912">
        <ele>1642.07</ele>
        <time>2017-02-16T08:37:28Z</time>
      </trkpt>
      <trkpt lat="45.86634" lon="6.40898">
        <ele>1645.43</ele>
        <time>2017-02-16T08:37:37Z</time>
      </trkpt>
      <trkpt lat="45.86642" lon="6.40887">
        <ele>1648.32</ele>
        <time>2017-02-16T08:37:44Z</time>
      </trkpt>
      <trkpt lat="45.86651" lon="6.40874">
        <ele>1652.16</ele>
        <time>2017-02-16T08:37:52Z</time>
      </trkpt>
      <trkpt lat="45.86666" lon="6.40857">
        <ele>1652.64</ele>
        <time>2017-02-16T08:38:00Z</time>
      </trkpt>
      <trkpt lat="45.86675" lon="6.40845">
        <ele>1650.72</ele>
        <time>2017-02-16T08:38:04Z</time>
      </trkpt>
      <trkpt lat="45.86675" lon="6.4084">
        <ele>1650.72</ele>
        <time>2017-02-16T08:38:18Z</time>
      </trkpt>
      <trkpt lat="45.86669" lon="6.40836">
        <ele>1650.72</ele>
        <time>2017-02-16T08:38:37Z</time>
      </trkpt>
      <trkpt lat="45.86666" lon="6.40834">
        <ele>1650.72</ele>
        <time>2017-02-16T08:38:50Z</time>
      </trkpt>
      <trkpt lat="45.86642" lon="6.4083">
        <ele>1649.28</ele>
        <time>2017-02-16T08:39:07Z</time>
      </trkpt>
      <trkpt lat="45.86611" lon="6.40833">
        <ele>1646.4</ele>
        <time>2017-02-16T08:39:17Z</time>
      </trkpt>
      <trkpt lat="45.86608" lon="6.40833">
        <ele>1646.4</ele>
        <time>2017-02-16T08:39:18Z</time>
      </trkpt>
      <trkpt lat="45.86598" lon="6.4083">
        <ele>1644.47</ele>
        <time>2017-02-16T08:39:21Z</time>
      </trkpt>
      <trkpt lat="45.86596" lon="6.40831">
        <ele>1644.47</ele>
        <time>2017-02-16T08:39:22Z</time>
      </trkpt>
      <trkpt lat="45.86595" lon="6.40835">
        <ele>1644.47</ele>
        <time>2017-02-16T08:39:32Z</time>
      </trkpt>
      <trkpt lat="45.86585" lon="6.4084">
        <ele>1641.59</ele>
        <time>2017-02-16T08:39:39Z</time>
      </trkpt>
      <trkpt lat="45.8658" lon="6.4084">
        <ele>1639.67</ele>
        <time>2017-02-16T08:39:40Z</time>
      </trkpt>
      <trkpt lat="45.86568" lon="6.40838">
        <ele>1636.3</ele>
        <time>2017-02-16T08:39:42Z</time>
      </trkpt>
      <trkpt lat="45.86562" lon="6.4084">
        <ele>1636.3</ele>
        <time>2017-02-16T08:39:43Z</time>
      </trkpt>
      <trkpt lat="45.86556" lon="6.40842">
        <ele>1636.3</ele>
        <time>2017-02-16T08:39:44Z</time>
      </trkpt>
      <trkpt lat="45.86538" lon="6.40847">
        <ele>1629.57</ele>
        <time>2017-02-16T08:39:47Z</time>
      </trkpt>
      <trkpt lat="45.8653" lon="6.4085">
        <ele>1628.13</ele>
        <time>2017-02-16T08:39:48Z</time>
      </trkpt>
      <trkpt lat="45.86512" lon="6.40851">
        <ele>1625.25</ele>
        <time>2017-02-16T08:39:51Z</time>
      </trkpt>
      <trkpt lat="45.86496" lon="6.4085">
        <ele>1622.36</ele>
        <time>2017-02-16T08:39:53Z</time>
      </trkpt>
      <trkpt lat="45.8648" lon="6.40854">
        <ele>1620.44</ele>
        <time>2017-02-16T08:39:55Z</time>
      </trkpt>
      <trkpt lat="45.86454" lon="6.40857">
        <ele>1617.07</ele>
        <time>2017-02-16T08:39:59Z</time>
      </trkpt>
      <trkpt lat="45.86429" lon="6.40855">
        <ele>1614.67</ele>
        <time>2017-02-16T08:40:04Z</time>
      </trkpt>
      <trkpt lat="45.86388" lon="6.40839">
        <ele>1612.27</ele>
        <time>2017-02-16T08:40:13Z</time>
      </trkpt>
      <trkpt lat="45.86359" lon="6.40829">
        <ele>1608.9</ele>
        <time>2017-02-16T08:40:19Z</time>
      </trkpt>
      <trkpt lat="45.86349" lon="6.4083">
        <ele>1604.58</ele>
        <time>2017-02-16T08:40:21Z</time>
      </trkpt>
      <trkpt lat="45.86348" lon="6.40832">
        <ele>1604.58</ele>
        <time>2017-02-16T08:40:28Z</time>
      </trkpt>
      <trkpt lat="45.86349" lon="6.40829">
        <ele>1604.1</ele>
        <time>2017-02-16T08:40:50Z</time>
      </trkpt>
      <trkpt lat="45.86349" lon="6.4083">
        <ele>1604.1</ele>
        <time>2017-02-16T08:40:56Z</time>
      </trkpt>
      <trkpt lat="45.86329" lon="6.40826">
        <ele>1599.29</ele>
        <time>2017-02-16T08:41:03Z</time>
      </trkpt>
      <trkpt lat="45.86326" lon="6.40826">
        <ele>1599.29</ele>
        <time>2017-02-16T08:41:04Z</time>
      </trkpt>
      <trkpt lat="45.86313" lon="6.40826">
        <ele>1596.41</ele>
        <time>2017-02-16T08:41:07Z</time>
      </trkpt>
      <trkpt lat="45.86304" lon="6.40827">
        <ele>1593.04</ele>
        <time>2017-02-16T08:41:09Z</time>
      </trkpt>
      <trkpt lat="45.86302" lon="6.40827">
        <ele>1592.08</ele>
        <time>2017-02-16T08:41:10Z</time>
      </trkpt>
      <trkpt lat="45.86287" lon="6.40831">
        <ele>1590.64</ele>
        <time>2017-02-16T08:41:13Z</time>
      </trkpt>
      <trkpt lat="45.86265" lon="6.40832">
        <ele>1584.39</ele>
        <time>2017-02-16T08:41:16Z</time>
      </trkpt>
      <trkpt lat="45.8624" lon="6.4085">
        <ele>1574.78</ele>
        <time>2017-02-16T08:41:19Z</time>
      </trkpt>
      <trkpt lat="45.86232" lon="6.40861">
        <ele>1573.33</ele>
        <time>2017-02-16T08:41:20Z</time>
      </trkpt>
      <trkpt lat="45.86224" lon="6.40873">
        <ele>1573.33</ele>
        <time>2017-02-16T08:41:21Z</time>
      </trkpt>
      <trkpt lat="45.86218" lon="6.40882">
        <ele>1569.01</ele>
        <time>2017-02-16T08:41:22Z</time>
      </trkpt>
      <trkpt lat="45.8621" lon="6.40892">
        <ele>1568.53</ele>
        <time>2017-02-16T08:41:23Z</time>
      </trkpt>
      <trkpt lat="45.862" lon="6.40901">
        <ele>1564.68</ele>
        <time>2017-02-16T08:41:24Z</time>
      </trkpt>
      <trkpt lat="45.86192" lon="6.40912">
        <ele>1557.47</ele>
        <time>2017-02-16T08:41:25Z</time>
      </trkpt>
      <trkpt lat="45.86185" lon="6.40923">
        <ele>1558.92</ele>
        <time>2017-02-16T08:41:26Z</time>
      </trkpt>
      <trkpt lat="45.86172" lon="6.40945">
        <ele>1555.07</ele>
        <time>2017-02-16T08:41:28Z</time>
      </trkpt>
      <trkpt lat="45.86145" lon="6.40983">
        <ele>1553.63</ele>
        <time>2017-02-16T08:41:34Z</time>
      </trkpt>
      <trkpt lat="45.86128" lon="6.41014">
        <ele>1548.82</ele>
        <time>2017-02-16T08:41:41Z</time>
      </trkpt>
      <trkpt lat="45.86117" lon="6.41035">
        <ele>1544.98</ele>
        <time>2017-02-16T08:41:44Z</time>
      </trkpt>
      <trkpt lat="45.86113" lon="6.41043">
        <ele>1544.01</ele>
        <time>2017-02-16T08:41:45Z</time>
      </trkpt>
      <trkpt lat="45.86118" lon="6.41078">
        <ele>1538.73</ele>
        <time>2017-02-16T08:41:50Z</time>
      </trkpt>
      <trkpt lat="45.86121" lon="6.41092">
        <ele>1535.84</ele>
        <time>2017-02-16T08:41:53Z</time>
      </trkpt>
      <trkpt lat="45.86121" lon="6.41098">
        <ele>1534.4</ele>
        <time>2017-02-16T08:41:59Z</time>
      </trkpt>
      <trkpt lat="45.86122" lon="6.411">
        <ele>1534.88</ele>
        <time>2017-02-16T08:42:10Z</time>
      </trkpt>
      <trkpt lat="45.86117" lon="6.41107">
        <ele>1533.44</ele>
        <time>2017-02-16T08:42:16Z</time>
      </trkpt>
      <trkpt lat="45.86113" lon="6.41134">
        <ele>1528.63</ele>
        <time>2017-02-16T08:42:20Z</time>
      </trkpt>
      <trkpt lat="45.86113" lon="6.41143">
        <ele>1528.63</ele>
        <time>2017-02-16T08:42:21Z</time>
      </trkpt>
      <trkpt lat="45.8611" lon="6.41154">
        <ele>1524.79</ele>
        <time>2017-02-16T08:42:22Z</time>
      </trkpt>
      <trkpt lat="45.86108" lon="6.41158">
        <ele>1524.79</ele>
        <time>2017-02-16T08:42:23Z</time>
      </trkpt>
      <trkpt lat="45.86107" lon="6.41166">
        <ele>1522.39</ele>
        <time>2017-02-16T08:42:24Z</time>
      </trkpt>
      <trkpt lat="45.86107" lon="6.41174">
        <ele>1521.9</ele>
        <time>2017-02-16T08:42:25Z</time>
      </trkpt>
      <trkpt lat="45.86106" lon="6.41181">
        <ele>1521.9</ele>
        <time>2017-02-16T08:42:26Z</time>
      </trkpt>
      <trkpt lat="45.86107" lon="6.41188">
        <ele>1520.94</ele>
        <time>2017-02-16T08:42:27Z</time>
      </trkpt>
      <trkpt lat="45.86109" lon="6.41208">
        <ele>1516.14</ele>
        <time>2017-02-16T08:42:29Z</time>
      </trkpt>
      <trkpt lat="45.86107" lon="6.41217">
        <ele>1512.77</ele>
        <time>2017-02-16T08:42:30Z</time>
      </trkpt>
      <trkpt lat="45.86105" lon="6.41231">
        <ele>1509.89</ele>
        <time>2017-02-16T08:42:33Z</time>
      </trkpt>
      <trkpt lat="45.86106" lon="6.41244">
        <ele>1507.97</ele>
        <time>2017-02-16T08:42:42Z</time>
      </trkpt>
      <trkpt lat="45.86104" lon="6.41244">
        <ele>1507.97</ele>
        <time>2017-02-16T08:43:00Z</time>
      </trkpt>
      <trkpt lat="45.86104" lon="6.41253">
        <ele>1507.97</ele>
        <time>2017-02-16T08:43:04Z</time>
      </trkpt>
      <trkpt lat="45.86101" lon="6.41264">
        <ele>1506.52</ele>
        <time>2017-02-16T08:43:14Z</time>
      </trkpt>
      <trkpt lat="45.86099" lon="6.41266">
        <ele>1506.04</ele>
        <time>2017-02-16T08:43:18Z</time>
      </trkpt>
      <trkpt lat="45.86093" lon="6.41272">
        <ele>1504.6</ele>
        <time>2017-02-16T08:43:21Z</time>
      </trkpt>
      <trkpt lat="45.86087" lon="6.41281">
        <ele>1503.64</ele>
        <time>2017-02-16T08:43:23Z</time>
      </trkpt>
      <trkpt lat="45.8607" lon="6.4132">
        <ele>1497.39</ele>
        <time>2017-02-16T08:43:27Z</time>
      </trkpt>
      <trkpt lat="45.86063" lon="6.41332">
        <ele>1492.58</ele>
        <time>2017-02-16T08:43:28Z</time>
      </trkpt>
      <trkpt lat="45.86056" lon="6.41345">
        <ele>1488.74</ele>
        <time>2017-02-16T08:43:29Z</time>
      </trkpt>
      <trkpt lat="45.86049" lon="6.41356">
        <ele>1485.37</ele>
        <time>2017-02-16T08:43:30Z</time>
      </trkpt>
      <trkpt lat="45.86044" lon="6.41368">
        <ele>1484.89</ele>
        <time>2017-02-16T08:43:31Z</time>
      </trkpt>
      <trkpt lat="45.86033" lon="6.414">
        <ele>1483.45</ele>
        <time>2017-02-16T08:43:34Z</time>
      </trkpt>
      <trkpt lat="45.8603" lon="6.41409">
        <ele>1483.45</ele>
        <time>2017-02-16T08:43:35Z</time>
      </trkpt>
      <trkpt lat="45.86027" lon="6.41416">
        <ele>1485.37</ele>
        <time>2017-02-16T08:43:36Z</time>
      </trkpt>
      <trkpt lat="45.86024" lon="6.41421">
        <ele>1485.37</ele>
        <time>2017-02-16T08:43:37Z</time>
      </trkpt>
      <trkpt lat="45.86014" lon="6.41428">
        <ele>1482.97</ele>
        <time>2017-02-16T08:43:39Z</time>
      </trkpt>
      <trkpt lat="45.8596" lon="6.41451">
        <ele>1482.49</ele>
        <time>2017-02-16T08:43:53Z</time>
      </trkpt>
      <trkpt lat="45.85933" lon="6.41451">
        <ele>1479.13</ele>
        <time>2017-02-16T08:44:01Z</time>
      </trkpt>
      <trkpt lat="45.85931" lon="6.41451">
        <ele>1479.13</ele>
        <time>2017-02-16T08:44:02Z</time>
      </trkpt>
      <trkpt lat="45.85927" lon="6.41451">
        <ele>1479.13</ele>
        <time>2017-02-16T08:44:03Z</time>
      </trkpt>
      <trkpt lat="45.85919" lon="6.41455">
        <ele>1480.57</ele>
        <time>2017-02-16T08:44:05Z</time>
      </trkpt>
      <trkpt lat="45.8591" lon="6.41463">
        <ele>1479.13</ele>
        <time>2017-02-16T08:44:07Z</time>
      </trkpt>
      <trkpt lat="45.85901" lon="6.41473">
        <ele>1477.68</ele>
        <time>2017-02-16T08:44:09Z</time>
      </trkpt>
      <trkpt lat="45.85885" lon="6.41506">
        <ele>1474.8</ele>
        <time>2017-02-16T08:44:14Z</time>
      </trkpt>
      <trkpt lat="45.85868" lon="6.41537">
        <ele>1471.92</ele>
        <time>2017-02-16T08:44:21Z</time>
      </trkpt>
      <trkpt lat="45.85856" lon="6.41546">
        <ele>1468.55</ele>
        <time>2017-02-16T08:44:24Z</time>
      </trkpt>
      <trkpt lat="45.85853" lon="6.41547">
        <ele>1469.03</ele>
        <time>2017-02-16T08:44:33Z</time>
      </trkpt>
      <trkpt lat="45.85852" lon="6.41546">
        <ele>1469.03</ele>
        <time>2017-02-16T08:44:55Z</time>
      </trkpt>
      <trkpt lat="45.8585" lon="6.41544">
        <ele>1469.03</ele>
        <time>2017-02-16T08:45:16Z</time>
      </trkpt>
      <trkpt lat="45.8585" lon="6.4154">
        <ele>1469.03</ele>
        <time>2017-02-16T08:45:29Z</time>
      </trkpt>
      <trkpt lat="45.8585" lon="6.4154">
        <ele>1469.03</ele>
        <time>2017-02-16T08:45:48Z</time>
      </trkpt>
      <trkpt lat="45.8585" lon="6.41538">
        <ele>1469.03</ele>
        <time>2017-02-16T08:46:07Z</time>
      </trkpt>
      <trkpt lat="45.85851" lon="6.41535">
        <ele>1469.03</ele>
        <time>2017-02-16T08:46:28Z</time>
      </trkpt>
      <trkpt lat="45.85852" lon="6.41533">
        <ele>1469.03</ele>
        <time>2017-02-16T08:46:47Z</time>
      </trkpt>
      <trkpt lat="45.85854" lon="6.4153">
        <ele>1469.03</ele>
        <time>2017-02-16T08:47:07Z</time>
      </trkpt>
      <trkpt lat="45.85855" lon="6.41524">
        <ele>1469.03</ele>
        <time>2017-02-16T08:47:18Z</time>
      </trkpt>
      <trkpt lat="45.85858" lon="6.41511">
        <ele>1470.95</ele>
        <time>2017-02-16T08:47:20Z</time>
      </trkpt>
      <trkpt lat="45.85866" lon="6.41476">
        <ele>1471.44</ele>
        <time>2017-02-16T08:47:28Z</time>
      </trkpt>
      <trkpt lat="45.8588" lon="6.41422">
        <ele>1474.8</ele>
        <time>2017-02-16T08:47:40Z</time>
      </trkpt>
      <trkpt lat="45.85888" lon="6.41394">
        <ele>1478.16</ele>
        <time>2017-02-16T08:47:46Z</time>
      </trkpt>
      <trkpt lat="45.85893" lon="6.41371">
        <ele>1482.01</ele>
        <time>2017-02-16T08:47:51Z</time>
      </trkpt>
      <trkpt lat="45.85897" lon="6.41353">
        <ele>1485.37</ele>
        <time>2017-02-16T08:47:55Z</time>
      </trkpt>
      <trkpt lat="45.85899" lon="6.41337">
        <ele>1488.74</ele>
        <time>2017-02-16T08:47:59Z</time>
      </trkpt>
      <trkpt lat="45.85902" lon="6.41321">
        <ele>1492.58</ele>
        <time>2017-02-16T08:48:03Z</time>
      </trkpt>
      <trkpt lat="45.85906" lon="6.41305">
        <ele>1495.95</ele>
        <time>2017-02-16T08:48:07Z</time>
      </trkpt>
      <trkpt lat="45.85909" lon="6.41288">
        <ele>1498.35</ele>
        <time>2017-02-16T08:48:11Z</time>
      </trkpt>
      <trkpt lat="45.85912" lon="6.41276">
        <ele>1501.72</ele>
        <time>2017-02-16T08:48:14Z</time>
      </trkpt>
      <trkpt lat="45.85914" lon="6.41268">
        <ele>1502.68</ele>
        <time>2017-02-16T08:48:16Z</time>
      </trkpt>
      <trkpt lat="45.85917" lon="6.41255">
        <ele>1510.85</ele>
        <time>2017-02-16T08:48:19Z</time>
      </trkpt>
      <trkpt lat="45.85918" lon="6.41251">
        <ele>1507.48</ele>
        <time>2017-02-16T08:48:20Z</time>
      </trkpt>
      <trkpt lat="45.85921" lon="6.41239">
        <ele>1510.37</ele>
        <time>2017-02-16T08:48:23Z</time>
      </trkpt>
      <trkpt lat="45.85924" lon="6.41226">
        <ele>1513.73</ele>
        <time>2017-02-16T08:48:26Z</time>
      </trkpt>
      <trkpt lat="45.85928" lon="6.41208">
        <ele>1517.58</ele>
        <time>2017-02-16T08:48:30Z</time>
      </trkpt>
      <trkpt lat="45.85935" lon="6.41188">
        <ele>1520.46</ele>
        <time>2017-02-16T08:48:35Z</time>
      </trkpt>
      <trkpt lat="45.85937" lon="6.4118">
        <ele>1521.42</ele>
        <time>2017-02-16T08:48:37Z</time>
      </trkpt>
      <trkpt lat="45.85944" lon="6.41159">
        <ele>1524.79</ele>
        <time>2017-02-16T08:48:42Z</time>
      </trkpt>
      <trkpt lat="45.85949" lon="6.41139">
        <ele>1528.63</ele>
        <time>2017-02-16T08:48:47Z</time>
      </trkpt>
      <trkpt lat="45.85953" lon="6.41123">
        <ele>1532</ele>
        <time>2017-02-16T08:48:51Z</time>
      </trkpt>
      <trkpt lat="45.85956" lon="6.41106">
        <ele>1535.36</ele>
        <time>2017-02-16T08:48:55Z</time>
      </trkpt>
      <trkpt lat="45.8596" lon="6.4109">
        <ele>1538.73</ele>
        <time>2017-02-16T08:48:59Z</time>
      </trkpt>
      <trkpt lat="45.85964" lon="6.41073">
        <ele>1542.09</ele>
        <time>2017-02-16T08:49:03Z</time>
      </trkpt>
      <trkpt lat="45.85967" lon="6.41061">
        <ele>1543.05</ele>
        <time>2017-02-16T08:49:06Z</time>
      </trkpt>
      <trkpt lat="45.85974" lon="6.41031">
        <ele>1546.9</ele>
        <time>2017-02-16T08:49:13Z</time>
      </trkpt>
      <trkpt lat="45.85978" lon="6.41014">
        <ele>1550.26</ele>
        <time>2017-02-16T08:49:17Z</time>
      </trkpt>
      <trkpt lat="45.8599" lon="6.40988">
        <ele>1554.11</ele>
        <time>2017-02-16T08:49:24Z</time>
      </trkpt>
      <trkpt lat="45.86004" lon="6.4097">
        <ele>1557.47</ele>
        <time>2017-02-16T08:49:30Z</time>
      </trkpt>
      <trkpt lat="45.86017" lon="6.40955">
        <ele>1560.84</ele>
        <time>2017-02-16T08:49:35Z</time>
      </trkpt>
      <trkpt lat="45.86023" lon="6.40946">
        <ele>1562.28</ele>
        <time>2017-02-16T08:49:38Z</time>
      </trkpt>
      <trkpt lat="45.86033" lon="6.40934">
        <ele>1564.68</ele>
        <time>2017-02-16T08:49:42Z</time>
      </trkpt>
      <trkpt lat="45.86048" lon="6.40917">
        <ele>1568.05</ele>
        <time>2017-02-16T08:49:48Z</time>
      </trkpt>
      <trkpt lat="45.86075" lon="6.40895">
        <ele>1571.41</ele>
        <time>2017-02-16T08:49:58Z</time>
      </trkpt>
      <trkpt lat="45.86112" lon="6.40869">
        <ele>1574.3</ele>
        <time>2017-02-16T08:50:11Z</time>
      </trkpt>
      <trkpt lat="45.86163" lon="6.40831">
        <ele>1576.7</ele>
        <time>2017-02-16T08:50:29Z</time>
      </trkpt>
      <trkpt lat="45.86224" lon="6.40788">
        <ele>1578.14</ele>
        <time>2017-02-16T08:50:50Z</time>
      </trkpt>
      <trkpt lat="45.86247" lon="6.40774">
        <ele>1581.03</ele>
        <time>2017-02-16T08:50:59Z</time>
      </trkpt>
      <trkpt lat="45.86262" lon="6.40771">
        <ele>1584.87</ele>
        <time>2017-02-16T08:51:04Z</time>
      </trkpt>
      <trkpt lat="45.86275" lon="6.40769">
        <ele>1588.24</ele>
        <time>2017-02-16T08:51:08Z</time>
      </trkpt>
      <trkpt lat="45.86289" lon="6.40768">
        <ele>1591.6</ele>
        <time>2017-02-16T08:51:12Z</time>
      </trkpt>
      <trkpt lat="45.86302" lon="6.40766">
        <ele>1594.48</ele>
        <time>2017-02-16T08:51:16Z</time>
      </trkpt>
      <trkpt lat="45.86314" lon="6.40764">
        <ele>1597.85</ele>
        <time>2017-02-16T08:51:20Z</time>
      </trkpt>
      <trkpt lat="45.86326" lon="6.40762">
        <ele>1601.21</ele>
        <time>2017-02-16T08:51:24Z</time>
      </trkpt>
      <trkpt lat="45.86336" lon="6.4076">
        <ele>1604.58</ele>
        <time>2017-02-16T08:51:27Z</time>
      </trkpt>
      <trkpt lat="45.86348" lon="6.40759">
        <ele>1608.42</ele>
        <time>2017-02-16T08:51:31Z</time>
      </trkpt>
      <trkpt lat="45.8636" lon="6.40758">
        <ele>1612.75</ele>
        <time>2017-02-16T08:51:35Z</time>
      </trkpt>
      <trkpt lat="45.86371" lon="6.40756">
        <ele>1616.11</ele>
        <time>2017-02-16T08:51:39Z</time>
      </trkpt>
      <trkpt lat="45.86384" lon="6.40754">
        <ele>1620.44</ele>
        <time>2017-02-16T08:51:43Z</time>
      </trkpt>
      <trkpt lat="45.86393" lon="6.40753">
        <ele>1623.32</ele>
        <time>2017-02-16T08:51:46Z</time>
      </trkpt>
      <trkpt lat="45.86405" lon="6.40752">
        <ele>1626.69</ele>
        <time>2017-02-16T08:51:50Z</time>
      </trkpt>
      <trkpt lat="45.86418" lon="6.40751">
        <ele>1631.01</ele>
        <time>2017-02-16T08:51:54Z</time>
      </trkpt>
      <trkpt lat="45.86431" lon="6.4075">
        <ele>1634.38</ele>
        <time>2017-02-16T08:51:58Z</time>
      </trkpt>
      <trkpt lat="45.8644" lon="6.40749">
        <ele>1637.74</ele>
        <time>2017-02-16T08:52:01Z</time>
      </trkpt>
      <trkpt lat="45.86449" lon="6.40747">
        <ele>1640.63</ele>
        <time>2017-02-16T08:52:04Z</time>
      </trkpt>
      <trkpt lat="45.86458" lon="6.40746">
        <ele>1643.99</ele>
        <time>2017-02-16T08:52:07Z</time>
      </trkpt>
      <trkpt lat="45.86469" lon="6.40749">
        <ele>1647.36</ele>
        <time>2017-02-16T08:52:11Z</time>
      </trkpt>
      <trkpt lat="45.8648" lon="6.40753">
        <ele>1649.76</ele>
        <time>2017-02-16T08:52:14Z</time>
      </trkpt>
      <trkpt lat="45.86496" lon="6.40762">
        <ele>1646.88</ele>
        <time>2017-02-16T08:52:17Z</time>
      </trkpt>
      <trkpt lat="45.86504" lon="6.40766">
        <ele>1646.88</ele>
        <time>2017-02-16T08:52:19Z</time>
      </trkpt>
      <trkpt lat="45.86509" lon="6.40767">
        <ele>1646.88</ele>
        <time>2017-02-16T08:52:20Z</time>
      </trkpt>
      <trkpt lat="45.86512" lon="6.40767">
        <ele>1646.88</ele>
        <time>2017-02-16T08:52:21Z</time>
      </trkpt>
      <trkpt lat="45.86516" lon="6.40767">
        <ele>1646.4</ele>
        <time>2017-02-16T08:52:30Z</time>
      </trkpt>
      <trkpt lat="45.86516" lon="6.40769">
        <ele>1645.91</ele>
        <time>2017-02-16T08:52:35Z</time>
      </trkpt>
      <trkpt lat="45.86517" lon="6.4077">
        <ele>1646.4</ele>
        <time>2017-02-16T08:52:36Z</time>
      </trkpt>
      <trkpt lat="45.86519" lon="6.4077">
        <ele>1646.4</ele>
        <time>2017-02-16T08:52:37Z</time>
      </trkpt>
      <trkpt lat="45.86544" lon="6.40785">
        <ele>1645.91</ele>
        <time>2017-02-16T08:52:49Z</time>
      </trkpt>
      <trkpt lat="45.86556" lon="6.40793">
        <ele>1645.43</ele>
        <time>2017-02-16T08:52:58Z</time>
      </trkpt>
      <trkpt lat="45.86557" lon="6.40794">
        <ele>1645.43</ele>
        <time>2017-02-16T08:52:59Z</time>
      </trkpt>
      <trkpt lat="45.86558" lon="6.40795">
        <ele>1645.43</ele>
        <time>2017-02-16T08:53:00Z</time>
      </trkpt>
      <trkpt lat="45.86579" lon="6.40808">
        <ele>1644.95</ele>
        <time>2017-02-16T08:53:14Z</time>
      </trkpt>
      <trkpt lat="45.86596" lon="6.40818">
        <ele>1644.95</ele>
        <time>2017-02-16T08:53:27Z</time>
      </trkpt>
      <trkpt lat="45.86599" lon="6.40819">
        <ele>1644.95</ele>
        <time>2017-02-16T08:53:29Z</time>
      </trkpt>
      <trkpt lat="45.86622" lon="6.40818">
        <ele>1644.47</ele>
        <time>2017-02-16T08:53:43Z</time>
      </trkpt>
      <trkpt lat="45.86638" lon="6.40817">
        <ele>1643.99</ele>
        <time>2017-02-16T08:53:52Z</time>
      </trkpt>
      <trkpt lat="45.8664" lon="6.40817">
        <ele>1643.99</ele>
        <time>2017-02-16T08:53:53Z</time>
      </trkpt>
      <trkpt lat="45.86641" lon="6.40817">
        <ele>1643.99</ele>
        <time>2017-02-16T08:53:54Z</time>
      </trkpt>
      <trkpt lat="45.86643" lon="6.40817">
        <ele>1643.99</ele>
        <time>2017-02-16T08:53:55Z</time>
      </trkpt>
      <trkpt lat="45.86645" lon="6.40817">
        <ele>1643.51</ele>
        <time>2017-02-16T08:53:56Z</time>
      </trkpt>
      <trkpt lat="45.86648" lon="6.40816">
        <ele>1643.51</ele>
        <time>2017-02-16T08:53:57Z</time>
      </trkpt>
      <trkpt lat="45.86651" lon="6.40816">
        <ele>1643.51</ele>
        <time>2017-02-16T08:53:58Z</time>
      </trkpt>
      <trkpt lat="45.86677" lon="6.40811">
        <ele>1640.63</ele>
        <time>2017-02-16T08:54:08Z</time>
      </trkpt>
      <trkpt lat="45.86695" lon="6.40812">
        <ele>1638.22</ele>
        <time>2017-02-16T08:54:12Z</time>
      </trkpt>
      <trkpt lat="45.867" lon="6.40812">
        <ele>1637.74</ele>
        <time>2017-02-16T08:54:13Z</time>
      </trkpt>
      <trkpt lat="45.86705" lon="6.40812">
        <ele>1636.78</ele>
        <time>2017-02-16T08:54:14Z</time>
      </trkpt>
      <trkpt lat="45.8671" lon="6.40813">
        <ele>1636.3</ele>
        <time>2017-02-16T08:54:15Z</time>
      </trkpt>
      <trkpt lat="45.86715" lon="6.40813">
        <ele>1635.82</ele>
        <time>2017-02-16T08:54:16Z</time>
      </trkpt>
      <trkpt lat="45.86719" lon="6.40813">
        <ele>1635.82</ele>
        <time>2017-02-16T08:54:17Z</time>
      </trkpt>
      <trkpt lat="45.86724" lon="6.40813">
        <ele>1634.86</ele>
        <time>2017-02-16T08:54:18Z</time>
      </trkpt>
      <trkpt lat="45.86728" lon="6.40814">
        <ele>1634.86</ele>
        <time>2017-02-16T08:54:19Z</time>
      </trkpt>
      <trkpt lat="45.86746" lon="6.40815">
        <ele>1632.94</ele>
        <time>2017-02-16T08:54:23Z</time>
      </trkpt>
      <trkpt lat="45.86766" lon="6.4082">
        <ele>1631.01</ele>
        <time>2017-02-16T08:54:27Z</time>
      </trkpt>
      <trkpt lat="45.86772" lon="6.4082">
        <ele>1630.05</ele>
        <time>2017-02-16T08:54:28Z</time>
      </trkpt>
      <trkpt lat="45.86788" lon="6.40821">
        <ele>1629.57</ele>
        <time>2017-02-16T08:54:31Z</time>
      </trkpt>
      <trkpt lat="45.86799" lon="6.40821">
        <ele>1628.13</ele>
        <time>2017-02-16T08:54:33Z</time>
      </trkpt>
      <trkpt lat="45.8681" lon="6.4082">
        <ele>1627.17</ele>
        <time>2017-02-16T08:54:35Z</time>
      </trkpt>
      <trkpt lat="45.86826" lon="6.40815">
        <ele>1624.77</ele>
        <time>2017-02-16T08:54:38Z</time>
      </trkpt>
      <trkpt lat="45.86848" lon="6.40815">
        <ele>1621.88</ele>
        <time>2017-02-16T08:54:42Z</time>
      </trkpt>
      <trkpt lat="45.86882" lon="6.40817">
        <ele>1619</ele>
        <time>2017-02-16T08:54:48Z</time>
      </trkpt>
      <trkpt lat="45.86917" lon="6.40813">
        <ele>1616.11</ele>
        <time>2017-02-16T08:54:54Z</time>
      </trkpt>
      <trkpt lat="45.86923" lon="6.40812">
        <ele>1616.11</ele>
        <time>2017-02-16T08:54:55Z</time>
      </trkpt>
      <trkpt lat="45.86946" lon="6.40801">
        <ele>1614.67</ele>
        <time>2017-02-16T08:54:59Z</time>
      </trkpt>
      <trkpt lat="45.86976" lon="6.40813">
        <ele>1609.38</ele>
        <time>2017-02-16T08:55:04Z</time>
      </trkpt>
      <trkpt lat="45.86989" lon="6.40816">
        <ele>1608.42</ele>
        <time>2017-02-16T08:55:06Z</time>
      </trkpt>
      <trkpt lat="45.86999" lon="6.40821">
        <ele>1606.02</ele>
        <time>2017-02-16T08:55:08Z</time>
      </trkpt>
      <trkpt lat="45.87015" lon="6.40838">
        <ele>1603.14</ele>
        <time>2017-02-16T08:55:13Z</time>
      </trkpt>
      <trkpt lat="45.87018" lon="6.40841">
        <ele>1603.14</ele>
        <time>2017-02-16T08:55:17Z</time>
      </trkpt>
      <trkpt lat="45.87026" lon="6.40843">
        <ele>1601.21</ele>
        <time>2017-02-16T08:55:21Z</time>
      </trkpt>
      <trkpt lat="45.87054" lon="6.40851">
        <ele>1595.45</ele>
        <time>2017-02-16T08:55:26Z</time>
      </trkpt>
      <trkpt lat="45.8708" lon="6.40848">
        <ele>1593.52</ele>
        <time>2017-02-16T08:55:30Z</time>
      </trkpt>
      <trkpt lat="45.87101" lon="6.40833">
        <ele>1593.52</ele>
        <time>2017-02-16T08:55:34Z</time>
      </trkpt>
      <trkpt lat="45.8711" lon="6.40827">
        <ele>1592.08</ele>
        <time>2017-02-16T08:55:36Z</time>
      </trkpt>
      <trkpt lat="45.87113" lon="6.4082">
        <ele>1591.12</ele>
        <time>2017-02-16T08:55:38Z</time>
      </trkpt>
      <trkpt lat="45.87112" lon="6.40815">
        <ele>1591.6</ele>
        <time>2017-02-16T08:55:39Z</time>
      </trkpt>
      <trkpt lat="45.8711" lon="6.40813">
        <ele>1591.12</ele>
        <time>2017-02-16T08:55:40Z</time>
      </trkpt>
      <trkpt lat="45.87106" lon="6.4081">
        <ele>1591.12</ele>
        <time>2017-02-16T08:55:54Z</time>
      </trkpt>
      <trkpt lat="45.87107" lon="6.40811">
        <ele>1591.12</ele>
        <time>2017-02-16T08:55:55Z</time>
      </trkpt>
      <trkpt lat="45.87139" lon="6.40799">
        <ele>1587.27</ele>
        <time>2017-02-16T08:56:07Z</time>
      </trkpt>
      <trkpt lat="45.8715" lon="6.40794">
        <ele>1584.87</ele>
        <time>2017-02-16T08:56:09Z</time>
      </trkpt>
      <trkpt lat="45.87154" lon="6.4079">
        <ele>1584.87</ele>
        <time>2017-02-16T08:56:10Z</time>
      </trkpt>
      <trkpt lat="45.87157" lon="6.40787">
        <ele>1584.39</ele>
        <time>2017-02-16T08:56:11Z</time>
      </trkpt>
      <trkpt lat="45.87158" lon="6.40785">
        <ele>1584.39</ele>
        <time>2017-02-16T08:56:12Z</time>
      </trkpt>
      <trkpt lat="45.87159" lon="6.40783">
        <ele>1584.39</ele>
        <time>2017-02-16T08:56:13Z</time>
      </trkpt>
      <trkpt lat="45.87163" lon="6.40768">
        <ele>1581.99</ele>
        <time>2017-02-16T08:56:18Z</time>
      </trkpt>
      <trkpt lat="45.87166" lon="6.40756">
        <ele>1579.58</ele>
        <time>2017-02-16T08:56:28Z</time>
      </trkpt>
      <trkpt lat="45.87169" lon="6.40745">
        <ele>1578.14</ele>
        <time>2017-02-16T08:56:32Z</time>
      </trkpt>
      <trkpt lat="45.87172" lon="6.40718">
        <ele>1570.45</ele>
        <time>2017-02-16T08:56:35Z</time>
      </trkpt>
      <trkpt lat="45.87186" lon="6.40688">
        <ele>1566.12</ele>
        <time>2017-02-16T08:56:40Z</time>
      </trkpt>
      <trkpt lat="45.87181" lon="6.40688">
        <ele>1565.64</ele>
        <time>2017-02-16T08:57:03Z</time>
      </trkpt>
      <trkpt lat="45.87181" lon="6.40689">
        <ele>1565.64</ele>
        <time>2017-02-16T08:57:12Z</time>
      </trkpt>
      <trkpt lat="45.87197" lon="6.40686">
        <ele>1562.28</ele>
        <time>2017-02-16T08:57:17Z</time>
      </trkpt>
      <trkpt lat="45.87217" lon="6.40677">
        <ele>1556.99</ele>
        <time>2017-02-16T08:57:20Z</time>
      </trkpt>
      <trkpt lat="45.87236" lon="6.40666">
        <ele>1551.71</ele>
        <time>2017-02-16T08:57:22Z</time>
      </trkpt>
      <trkpt lat="45.87257" lon="6.4065">
        <ele>1546.9</ele>
        <time>2017-02-16T08:57:24Z</time>
      </trkpt>
      <trkpt lat="45.87278" lon="6.40635">
        <ele>1542.09</ele>
        <time>2017-02-16T08:57:26Z</time>
      </trkpt>
      <trkpt lat="45.87305" lon="6.40614">
        <ele>1535.84</ele>
        <time>2017-02-16T08:57:29Z</time>
      </trkpt>
      <trkpt lat="45.87305" lon="6.40611">
        <ele>1535.36</ele>
        <time>2017-02-16T08:57:30Z</time>
      </trkpt>
      <trkpt lat="45.87309" lon="6.40605">
        <ele>1535.36</ele>
        <time>2017-02-16T08:57:42Z</time>
      </trkpt>
      <trkpt lat="45.87319" lon="6.40598">
        <ele>1531.52</ele>
        <time>2017-02-16T08:57:44Z</time>
      </trkpt>
      <trkpt lat="45.87339" lon="6.4058">
        <ele>1525.75</ele>
        <time>2017-02-16T08:57:47Z</time>
      </trkpt>
      <trkpt lat="45.87351" lon="6.40562">
        <ele>1520.46</ele>
        <time>2017-02-16T08:57:49Z</time>
      </trkpt>
      <trkpt lat="45.87358" lon="6.40553">
        <ele>1517.1</ele>
        <time>2017-02-16T08:57:50Z</time>
      </trkpt>
      <trkpt lat="45.87369" lon="6.4053">
        <ele>1515.66</ele>
        <time>2017-02-16T08:57:52Z</time>
      </trkpt>
      <trkpt lat="45.87373" lon="6.4052">
        <ele>1511.33</ele>
        <time>2017-02-16T08:57:53Z</time>
      </trkpt>
      <trkpt lat="45.87375" lon="6.40512">
        <ele>1511.33</ele>
        <time>2017-02-16T08:57:54Z</time>
      </trkpt>
      <trkpt lat="45.87383" lon="6.405">
        <ele>1505.56</ele>
        <time>2017-02-16T08:57:56Z</time>
      </trkpt>
      <trkpt lat="45.8739" lon="6.40484">
        <ele>1501.72</ele>
        <time>2017-02-16T08:57:58Z</time>
      </trkpt>
      <trkpt lat="45.87399" lon="6.4047">
        <ele>1495.47</ele>
        <time>2017-02-16T08:58:00Z</time>
      </trkpt>
      <trkpt lat="45.87408" lon="6.40455">
        <ele>1490.18</ele>
        <time>2017-02-16T08:58:02Z</time>
      </trkpt>
      <trkpt lat="45.87409" lon="6.40437">
        <ele>1486.82</ele>
        <time>2017-02-16T08:58:04Z</time>
      </trkpt>
      <trkpt lat="45.87407" lon="6.40429">
        <ele>1484.41</ele>
        <time>2017-02-16T08:58:07Z</time>
      </trkpt>
      <trkpt lat="45.87406" lon="6.40429">
        <ele>1484.41</ele>
        <time>2017-02-16T08:58:12Z</time>
      </trkpt>
      <trkpt lat="45.87412" lon="6.4042">
        <ele>1481.53</ele>
        <time>2017-02-16T08:58:21Z</time>
      </trkpt>
      <trkpt lat="45.87415" lon="6.40414">
        <ele>1478.65</ele>
        <time>2017-02-16T08:58:24Z</time>
      </trkpt>
      <trkpt lat="45.87431" lon="6.40399">
        <ele>1474.8</ele>
        <time>2017-02-16T08:58:29Z</time>
      </trkpt>
      <trkpt lat="45.87446" lon="6.40383">
        <ele>1470.95</ele>
        <time>2017-02-16T08:58:31Z</time>
      </trkpt>
      <trkpt lat="45.87455" lon="6.40373">
        <ele>1460.38</ele>
        <time>2017-02-16T08:58:32Z</time>
      </trkpt>
      <trkpt lat="45.87465" lon="6.4036">
        <ele>1452.69</ele>
        <time>2017-02-16T08:58:33Z</time>
      </trkpt>
      <trkpt lat="45.87476" lon="6.40346">
        <ele>1445.96</ele>
        <time>2017-02-16T08:58:34Z</time>
      </trkpt>
      <trkpt lat="45.87488" lon="6.4033">
        <ele>1442.6</ele>
        <time>2017-02-16T08:58:35Z</time>
      </trkpt>
      <trkpt lat="45.87499" lon="6.40315">
        <ele>1442.6</ele>
        <time>2017-02-16T08:58:36Z</time>
      </trkpt>
      <trkpt lat="45.87518" lon="6.40267">
        <ele>1444.04</ele>
        <time>2017-02-16T08:58:39Z</time>
      </trkpt>
      <trkpt lat="45.87519" lon="6.4026">
        <ele>1442.11</ele>
        <time>2017-02-16T08:58:40Z</time>
      </trkpt>
      <trkpt lat="45.87522" lon="6.4025">
        <ele>1442.11</ele>
        <time>2017-02-16T08:58:41Z</time>
      </trkpt>
      <trkpt lat="45.87527" lon="6.4024">
        <ele>1441.63</ele>
        <time>2017-02-16T08:58:42Z</time>
      </trkpt>
      <trkpt lat="45.87531" lon="6.40232">
        <ele>1441.63</ele>
        <time>2017-02-16T08:58:43Z</time>
      </trkpt>
      <trkpt lat="45.87536" lon="6.40224">
        <ele>1440.19</ele>
        <time>2017-02-16T08:58:44Z</time>
      </trkpt>
      <trkpt lat="45.8754" lon="6.40216">
        <ele>1439.71</ele>
        <time>2017-02-16T08:58:45Z</time>
      </trkpt>
      <trkpt lat="45.87541" lon="6.40211">
        <ele>1439.71</ele>
        <time>2017-02-16T08:58:46Z</time>
      </trkpt>
      <trkpt lat="45.87538" lon="6.40209">
        <ele>1440.19</ele>
        <time>2017-02-16T08:58:55Z</time>
      </trkpt>
      <trkpt lat="45.87537" lon="6.40208">
        <ele>1440.19</ele>
        <time>2017-02-16T08:58:56Z</time>
      </trkpt>
      <trkpt lat="45.87533" lon="6.40205">
        <ele>1440.19</ele>
        <time>2017-02-16T08:59:07Z</time>
      </trkpt>
      <trkpt lat="45.87532" lon="6.40204">
        <ele>1440.19</ele>
        <time>2017-02-16T08:59:18Z</time>
      </trkpt>
      <trkpt lat="45.87528" lon="6.40206">
        <ele>1440.19</ele>
        <time>2017-02-16T08:59:31Z</time>
      </trkpt>
      <trkpt lat="45.87524" lon="6.40208">
        <ele>1440.19</ele>
        <time>2017-02-16T08:59:46Z</time>
      </trkpt>
      <trkpt lat="45.8752" lon="6.40212">
        <ele>1440.67</ele>
        <time>2017-02-16T09:00:02Z</time>
      </trkpt>
      <trkpt lat="45.87514" lon="6.40217">
        <ele>1440.67</ele>
        <time>2017-02-16T09:00:17Z</time>
      </trkpt>
      <trkpt lat="45.87512" lon="6.40218">
        <ele>1439.71</ele>
        <time>2017-02-16T09:00:20Z</time>
      </trkpt>
      <trkpt lat="45.87506" lon="6.40223">
        <ele>1439.71</ele>
        <time>2017-02-16T09:00:23Z</time>
      </trkpt>
      <trkpt lat="45.87494" lon="6.40235">
        <ele>1441.15</ele>
        <time>2017-02-16T09:00:30Z</time>
      </trkpt>
      <trkpt lat="45.87478" lon="6.4025">
        <ele>1443.56</ele>
        <time>2017-02-16T09:00:39Z</time>
      </trkpt>
      <trkpt lat="45.87464" lon="6.40263">
        <ele>1447.4</ele>
        <time>2017-02-16T09:00:47Z</time>
      </trkpt>
      <trkpt lat="45.87452" lon="6.40274">
        <ele>1450.77</ele>
        <time>2017-02-16T09:00:54Z</time>
      </trkpt>
      <trkpt lat="45.87447" lon="6.40279">
        <ele>1451.73</ele>
        <time>2017-02-16T09:00:57Z</time>
      </trkpt>
      <trkpt lat="45.87438" lon="6.40287">
        <ele>1455.09</ele>
        <time>2017-02-16T09:01:02Z</time>
      </trkpt>
      <trkpt lat="45.8743" lon="6.40295">
        <ele>1458.46</ele>
        <time>2017-02-16T09:01:07Z</time>
      </trkpt>
      <trkpt lat="45.87422" lon="6.40302">
        <ele>1461.34</ele>
        <time>2017-02-16T09:01:12Z</time>
      </trkpt>
      <trkpt lat="45.87417" lon="6.40307">
        <ele>1463.26</ele>
        <time>2017-02-16T09:01:15Z</time>
      </trkpt>
      <trkpt lat="45.87412" lon="6.40312">
        <ele>1464.71</ele>
        <time>2017-02-16T09:01:18Z</time>
      </trkpt>
      <trkpt lat="45.87403" lon="6.4032">
        <ele>1467.59</ele>
        <time>2017-02-16T09:01:23Z</time>
      </trkpt>
      <trkpt lat="45.87393" lon="6.40329">
        <ele>1471.44</ele>
        <time>2017-02-16T09:01:29Z</time>
      </trkpt>
      <trkpt lat="45.87385" lon="6.40337">
        <ele>1474.32</ele>
        <time>2017-02-16T09:01:34Z</time>
      </trkpt>
      <trkpt lat="45.87377" lon="6.40344">
        <ele>1478.16</ele>
        <time>2017-02-16T09:01:39Z</time>
      </trkpt>
      <trkpt lat="45.87368" lon="6.40352">
        <ele>1481.53</ele>
        <time>2017-02-16T09:01:44Z</time>
      </trkpt>
      <trkpt lat="45.87362" lon="6.40359">
        <ele>1484.41</ele>
        <time>2017-02-16T09:01:48Z</time>
      </trkpt>
      <trkpt lat="45.87356" lon="6.40364">
        <ele>1487.78</ele>
        <time>2017-02-16T09:01:52Z</time>
      </trkpt>
      <trkpt lat="45.87355" lon="6.40365">
        <ele>1488.74</ele>
        <time>2017-02-16T09:01:53Z</time>
      </trkpt>
      <trkpt lat="45.87349" lon="6.40372">
        <ele>1491.62</ele>
        <time>2017-02-16T09:01:59Z</time>
      </trkpt>
      <trkpt lat="45.87343" lon="6.40378">
        <ele>1495.47</ele>
        <time>2017-02-16T09:02:03Z</time>
      </trkpt>
      <trkpt lat="45.87341" lon="6.4038">
        <ele>1495.95</ele>
        <time>2017-02-16T09:02:04Z</time>
      </trkpt>
      <trkpt lat="45.87337" lon="6.40385">
        <ele>1498.83</ele>
        <time>2017-02-16T09:02:07Z</time>
      </trkpt>
      <trkpt lat="45.8733" lon="6.4039">
        <ele>1502.2</ele>
        <time>2017-02-16T09:02:11Z</time>
      </trkpt>
      <trkpt lat="45.87326" lon="6.40395">
        <ele>1505.56</ele>
        <time>2017-02-16T09:02:14Z</time>
      </trkpt>
      <trkpt lat="45.8732" lon="6.40401">
        <ele>1509.89</ele>
        <time>2017-02-16T09:02:18Z</time>
      </trkpt>
      <trkpt lat="45.87313" lon="6.40407">
        <ele>1512.77</ele>
        <time>2017-02-16T09:02:22Z</time>
      </trkpt>
      <trkpt lat="45.87305" lon="6.40415">
        <ele>1516.62</ele>
        <time>2017-02-16T09:02:27Z</time>
      </trkpt>
      <trkpt lat="45.87298" lon="6.40421">
        <ele>1519.5</ele>
        <time>2017-02-16T09:02:31Z</time>
      </trkpt>
      <trkpt lat="45.87292" lon="6.40427">
        <ele>1522.39</ele>
        <time>2017-02-16T09:02:35Z</time>
      </trkpt>
      <trkpt lat="45.87285" lon="6.40434">
        <ele>1525.75</ele>
        <time>2017-02-16T09:02:39Z</time>
      </trkpt>
      <trkpt lat="45.87279" lon="6.4044">
        <ele>1529.59</ele>
        <time>2017-02-16T09:02:43Z</time>
      </trkpt>
      <trkpt lat="45.87269" lon="6.4045">
        <ele>1532.96</ele>
        <time>2017-02-16T09:02:49Z</time>
      </trkpt>
      <trkpt lat="45.87262" lon="6.40457">
        <ele>1534.4</ele>
        <time>2017-02-16T09:02:53Z</time>
      </trkpt>
      <trkpt lat="45.8725" lon="6.40469">
        <ele>1537.77</ele>
        <time>2017-02-16T09:03:00Z</time>
      </trkpt>
      <trkpt lat="45.8724" lon="6.40478">
        <ele>1541.13</ele>
        <time>2017-02-16T09:03:06Z</time>
      </trkpt>
      <trkpt lat="45.87232" lon="6.40485">
        <ele>1544.5</ele>
        <time>2017-02-16T09:03:11Z</time>
      </trkpt>
      <trkpt lat="45.87223" lon="6.40493">
        <ele>1547.38</ele>
        <time>2017-02-16T09:03:16Z</time>
      </trkpt>
      <trkpt lat="45.87215" lon="6.40501">
        <ele>1550.74</ele>
        <time>2017-02-16T09:03:21Z</time>
      </trkpt>
      <trkpt lat="45.87206" lon="6.40508">
        <ele>1554.11</ele>
        <time>2017-02-16T09:03:26Z</time>
      </trkpt>
      <trkpt lat="45.87189" lon="6.40525">
        <ele>1557.47</ele>
        <time>2017-02-16T09:03:36Z</time>
      </trkpt>
      <trkpt lat="45.87173" lon="6.4054">
        <ele>1560.84</ele>
        <time>2017-02-16T09:03:45Z</time>
      </trkpt>
      <trkpt lat="45.87159" lon="6.40553">
        <ele>1564.2</ele>
        <time>2017-02-16T09:03:53Z</time>
      </trkpt>
      <trkpt lat="45.87148" lon="6.40564">
        <ele>1567.57</ele>
        <time>2017-02-16T09:04:00Z</time>
      </trkpt>
      <trkpt lat="45.87137" lon="6.40574">
        <ele>1570.93</ele>
        <time>2017-02-16T09:04:06Z</time>
      </trkpt>
      <trkpt lat="45.87129" lon="6.40582">
        <ele>1573.82</ele>
        <time>2017-02-16T09:04:11Z</time>
      </trkpt>
      <trkpt lat="45.87118" lon="6.40593">
        <ele>1577.18</ele>
        <time>2017-02-16T09:04:18Z</time>
      </trkpt>
      <trkpt lat="45.87094" lon="6.40617">
        <ele>1580.06</ele>
        <time>2017-02-16T09:04:32Z</time>
      </trkpt>
      <trkpt lat="45.87078" lon="6.40632">
        <ele>1583.43</ele>
        <time>2017-02-16T09:04:41Z</time>
      </trkpt>
      <trkpt lat="45.87066" lon="6.40644">
        <ele>1586.31</ele>
        <time>2017-02-16T09:04:48Z</time>
      </trkpt>
      <trkpt lat="45.87054" lon="6.40656">
        <ele>1589.68</ele>
        <time>2017-02-16T09:04:55Z</time>
      </trkpt>
      <trkpt lat="45.87044" lon="6.40666">
        <ele>1593.04</ele>
        <time>2017-02-16T09:05:01Z</time>
      </trkpt>
      <trkpt lat="45.87034" lon="6.40675">
        <ele>1596.41</ele>
        <time>2017-02-16T09:05:07Z</time>
      </trkpt>
      <trkpt lat="45.87026" lon="6.40683">
        <ele>1599.77</ele>
        <time>2017-02-16T09:05:12Z</time>
      </trkpt>
      <trkpt lat="45.87014" lon="6.40694">
        <ele>1603.14</ele>
        <time>2017-02-16T09:05:19Z</time>
      </trkpt>
      <trkpt lat="45.86994" lon="6.40714">
        <ele>1606.98</ele>
        <time>2017-02-16T09:05:31Z</time>
      </trkpt>
      <trkpt lat="45.8698" lon="6.40727">
        <ele>1610.35</ele>
        <time>2017-02-16T09:05:39Z</time>
      </trkpt>
      <trkpt lat="45.86966" lon="6.40741">
        <ele>1613.71</ele>
        <time>2017-02-16T09:05:47Z</time>
      </trkpt>
      <trkpt lat="45.86956" lon="6.40751">
        <ele>1617.07</ele>
        <time>2017-02-16T09:05:53Z</time>
      </trkpt>
      <trkpt lat="45.86946" lon="6.40761">
        <ele>1620.44</ele>
        <time>2017-02-16T09:05:59Z</time>
      </trkpt>
      <trkpt lat="45.86923" lon="6.40785">
        <ele>1623.32</ele>
        <time>2017-02-16T09:06:13Z</time>
      </trkpt>
      <trkpt lat="45.86906" lon="6.40801">
        <ele>1626.69</ele>
        <time>2017-02-16T09:06:23Z</time>
      </trkpt>
      <trkpt lat="45.86902" lon="6.40804">
        <ele>1627.65</ele>
        <time>2017-02-16T09:06:25Z</time>
      </trkpt>
      <trkpt lat="45.8689" lon="6.40816">
        <ele>1631.01</ele>
        <time>2017-02-16T09:06:32Z</time>
      </trkpt>
      <trkpt lat="45.86884" lon="6.40822">
        <ele>1632.46</ele>
        <time>2017-02-16T09:06:36Z</time>
      </trkpt>
      <trkpt lat="45.86873" lon="6.40833">
        <ele>1635.82</ele>
        <time>2017-02-16T09:06:42Z</time>
      </trkpt>
      <trkpt lat="45.86851" lon="6.40855">
        <ele>1638.7</ele>
        <time>2017-02-16T09:06:55Z</time>
      </trkpt>
      <trkpt lat="45.86832" lon="6.40872">
        <ele>1642.07</ele>
        <time>2017-02-16T09:07:06Z</time>
      </trkpt>
      <trkpt lat="45.86817" lon="6.40887">
        <ele>1644.95</ele>
        <time>2017-02-16T09:07:15Z</time>
      </trkpt>
      <trkpt lat="45.86805" lon="6.40898">
        <ele>1648.32</ele>
        <time>2017-02-16T09:07:22Z</time>
      </trkpt>
      <trkpt lat="45.86768" lon="6.40936">
        <ele>1648.8</ele>
        <time>2017-02-16T09:07:43Z</time>
      </trkpt>
      <trkpt lat="45.86755" lon="6.40937">
        <ele>1648.32</ele>
        <time>2017-02-16T09:07:50Z</time>
      </trkpt>
      <trkpt lat="45.86755" lon="6.40937">
        <ele>1648.32</ele>
        <time>2017-02-16T09:07:55Z</time>
      </trkpt>
      <trkpt lat="45.86754" lon="6.40934">
        <ele>1648.32</ele>
        <time>2017-02-16T09:07:59Z</time>
      </trkpt>
      <trkpt lat="45.86746" lon="6.40909">
        <ele>1647.84</ele>
        <time>2017-02-16T09:08:08Z</time>
      </trkpt>
      <trkpt lat="45.86737" lon="6.40884">
        <ele>1647.84</ele>
        <time>2017-02-16T09:08:16Z</time>
      </trkpt>
      <trkpt lat="45.86734" lon="6.40867">
        <ele>1647.84</ele>
        <time>2017-02-16T09:08:22Z</time>
      </trkpt>
      <trkpt lat="45.86732" lon="6.40864">
        <ele>1647.84</ele>
        <time>2017-02-16T09:08:25Z</time>
      </trkpt>
      <trkpt lat="45.86731" lon="6.40856">
        <ele>1647.84</ele>
        <time>2017-02-16T09:08:37Z</time>
      </trkpt>
      <trkpt lat="45.86731" lon="6.40856">
        <ele>1648.32</ele>
        <time>2017-02-16T09:09:00Z</time>
      </trkpt>
      <trkpt lat="45.86731" lon="6.40853">
        <ele>1647.84</ele>
        <time>2017-02-16T09:09:10Z</time>
      </trkpt>
      <trkpt lat="45.86732" lon="6.40853">
        <ele>1647.84</ele>
        <time>2017-02-16T09:09:50Z</time>
      </trkpt>
      <trkpt lat="45.86733" lon="6.40853">
        <ele>1647.84</ele>
        <time>2017-02-16T09:10:26Z</time>
      </trkpt>
      <trkpt lat="45.86732" lon="6.40853">
        <ele>1647.36</ele>
        <time>2017-02-16T09:11:06Z</time>
      </trkpt>
      <trkpt lat="45.86732" lon="6.40851">
        <ele>1647.36</ele>
        <time>2017-02-16T09:11:41Z</time>
      </trkpt>
      <trkpt lat="45.86732" lon="6.40852">
        <ele>1647.36</ele>
        <time>2017-02-16T09:12:16Z</time>
      </trkpt>
      <trkpt lat="45.86732" lon="6.40852">
        <ele>1646.88</ele>
        <time>2017-02-16T09:12:49Z</time>
      </trkpt>
      <trkpt lat="45.86731" lon="6.40853">
        <ele>1646.4</ele>
        <time>2017-02-16T09:13:21Z</time>
      </trkpt>
      <trkpt lat="45.86731" lon="6.40853">
        <ele>1646.4</ele>
        <time>2017-02-16T09:13:42Z</time>
      </trkpt>
      <trkpt lat="45.8673" lon="6.40854">
        <ele>1646.4</ele>
        <time>2017-02-16T09:13:59Z</time>
      </trkpt>
      <trkpt lat="45.86729" lon="6.4086">
        <ele>1646.4</ele>
        <time>2017-02-16T09:14:13Z</time>
      </trkpt>
      <trkpt lat="45.86729" lon="6.40862">
        <ele>1646.4</ele>
        <time>2017-02-16T09:14:15Z</time>
      </trkpt>
      <trkpt lat="45.86729" lon="6.409">
        <ele>1646.4</ele>
        <time>2017-02-16T09:14:31Z</time>
      </trkpt>
      <trkpt lat="45.86736" lon="6.40934">
        <ele>1646.4</ele>
        <time>2017-02-16T09:14:48Z</time>
      </trkpt>
      <trkpt lat="45.86746" lon="6.40952">
        <ele>1646.4</ele>
        <time>2017-02-16T09:14:59Z</time>
      </trkpt>
      <trkpt lat="45.86745" lon="6.4096">
        <ele>1646.4</ele>
        <time>2017-02-16T09:15:04Z</time>
      </trkpt>
      <trkpt lat="45.86738" lon="6.40977">
        <ele>1646.4</ele>
        <time>2017-02-16T09:15:22Z</time>
      </trkpt>
      <trkpt lat="45.86738" lon="6.40978">
        <ele>1646.4</ele>
        <time>2017-02-16T09:15:29Z</time>
      </trkpt>
      <trkpt lat="45.86738" lon="6.40979">
        <ele>1644.95</ele>
        <time>2017-02-16T09:15:38Z</time>
      </trkpt>
      <trkpt lat="45.8674" lon="6.40978">
        <ele>1644.95</ele>
        <time>2017-02-16T09:15:52Z</time>
      </trkpt>
      <trkpt lat="45.86739" lon="6.40978">
        <ele>1644.95</ele>
        <time>2017-02-16T09:16:08Z</time>
      </trkpt>
      <trkpt lat="45.86738" lon="6.40978">
        <ele>1644.95</ele>
        <time>2017-02-16T09:16:20Z</time>
      </trkpt>
      <trkpt lat="45.86738" lon="6.40977">
        <ele>1644.95</ele>
        <time>2017-02-16T09:16:33Z</time>
      </trkpt>
      <trkpt lat="45.86739" lon="6.40979">
        <ele>1646.88</ele>
        <time>2017-02-16T09:16:41Z</time>
      </trkpt>
      <trkpt lat="45.86743" lon="6.40981">
        <ele>1646.88</ele>
        <time>2017-02-16T09:16:47Z</time>
      </trkpt>
      <trkpt lat="45.86746" lon="6.40984">
        <ele>1645.43</ele>
        <time>2017-02-16T09:16:50Z</time>
      </trkpt>
      <trkpt lat="45.86748" lon="6.40985">
        <ele>1645.43</ele>
        <time>2017-02-16T09:16:51Z</time>
      </trkpt>
      <trkpt lat="45.86761" lon="6.40993">
        <ele>1644.47</ele>
        <time>2017-02-16T09:17:04Z</time>
      </trkpt>
      <trkpt lat="45.86782" lon="6.41009">
        <ele>1643.99</ele>
        <time>2017-02-16T09:17:22Z</time>
      </trkpt>
      <trkpt lat="45.868" lon="6.41022">
        <ele>1641.59</ele>
        <time>2017-02-16T09:17:33Z</time>
      </trkpt>
      <trkpt lat="45.86801" lon="6.41022">
        <ele>1641.59</ele>
        <time>2017-02-16T09:17:36Z</time>
      </trkpt>
      <trkpt lat="45.86808" lon="6.41028">
        <ele>1639.67</ele>
        <time>2017-02-16T09:17:40Z</time>
      </trkpt>
      <trkpt lat="45.8681" lon="6.41029">
        <ele>1639.67</ele>
        <time>2017-02-16T09:17:41Z</time>
      </trkpt>
      <trkpt lat="45.86813" lon="6.4103">
        <ele>1639.19</ele>
        <time>2017-02-16T09:17:45Z</time>
      </trkpt>
      <trkpt lat="45.86815" lon="6.4103">
        <ele>1638.22</ele>
        <time>2017-02-16T09:17:46Z</time>
      </trkpt>
      <trkpt lat="45.86819" lon="6.41032">
        <ele>1637.26</ele>
        <time>2017-02-16T09:17:47Z</time>
      </trkpt>
      <trkpt lat="45.86823" lon="6.41035">
        <ele>1635.82</ele>
        <time>2017-02-16T09:17:48Z</time>
      </trkpt>
      <trkpt lat="45.86828" lon="6.41037">
        <ele>1633.9</ele>
        <time>2017-02-16T09:17:49Z</time>
      </trkpt>
      <trkpt lat="45.8683" lon="6.41037">
        <ele>1633.42</ele>
        <time>2017-02-16T09:17:50Z</time>
      </trkpt>
      <trkpt lat="45.86834" lon="6.4104">
        <ele>1632.46</ele>
        <time>2017-02-16T09:17:57Z</time>
      </trkpt>
      <trkpt lat="45.86844" lon="6.41044">
        <ele>1629.57</ele>
        <time>2017-02-16T09:17:59Z</time>
      </trkpt>
      <trkpt lat="45.86849" lon="6.41046">
        <ele>1628.61</ele>
        <time>2017-02-16T09:18:00Z</time>
      </trkpt>
      <trkpt lat="45.8687" lon="6.41051">
        <ele>1625.73</ele>
        <time>2017-02-16T09:18:04Z</time>
      </trkpt>
      <trkpt lat="45.86877" lon="6.41051">
        <ele>1623.8</ele>
        <time>2017-02-16T09:18:05Z</time>
      </trkpt>
      <trkpt lat="45.86884" lon="6.41051">
        <ele>1623.8</ele>
        <time>2017-02-16T09:18:06Z</time>
      </trkpt>
      <trkpt lat="45.86889" lon="6.41051">
        <ele>1622.84</ele>
        <time>2017-02-16T09:18:07Z</time>
      </trkpt>
      <trkpt lat="45.8691" lon="6.41046">
        <ele>1621.88</ele>
        <time>2017-02-16T09:18:11Z</time>
      </trkpt>
      <trkpt lat="45.86914" lon="6.41043">
        <ele>1621.4</ele>
        <time>2017-02-16T09:18:12Z</time>
      </trkpt>
      <trkpt lat="45.86918" lon="6.4104">
        <ele>1621.4</ele>
        <time>2017-02-16T09:18:13Z</time>
      </trkpt>
      <trkpt lat="45.86922" lon="6.41036">
        <ele>1620.44</ele>
        <time>2017-02-16T09:18:14Z</time>
      </trkpt>
      <trkpt lat="45.86926" lon="6.4103">
        <ele>1619.48</ele>
        <time>2017-02-16T09:18:15Z</time>
      </trkpt>
      <trkpt lat="45.8693" lon="6.41025">
        <ele>1619</ele>
        <time>2017-02-16T09:18:16Z</time>
      </trkpt>
      <trkpt lat="45.86938" lon="6.41015">
        <ele>1618.04</ele>
        <time>2017-02-16T09:18:18Z</time>
      </trkpt>
      <trkpt lat="45.86943" lon="6.41012">
        <ele>1618.04</ele>
        <time>2017-02-16T09:18:19Z</time>
      </trkpt>
      <trkpt lat="45.86948" lon="6.41011">
        <ele>1617.56</ele>
        <time>2017-02-16T09:18:20Z</time>
      </trkpt>
      <trkpt lat="45.86953" lon="6.41008">
        <ele>1617.07</ele>
        <time>2017-02-16T09:18:21Z</time>
      </trkpt>
      <trkpt lat="45.86958" lon="6.41005">
        <ele>1616.59</ele>
        <time>2017-02-16T09:18:22Z</time>
      </trkpt>
      <trkpt lat="45.86964" lon="6.41002">
        <ele>1616.59</ele>
        <time>2017-02-16T09:18:23Z</time>
      </trkpt>
      <trkpt lat="45.8697" lon="6.40999">
        <ele>1615.15</ele>
        <time>2017-02-16T09:18:24Z</time>
      </trkpt>
      <trkpt lat="45.86975" lon="6.40994">
        <ele>1613.71</ele>
        <time>2017-02-16T09:18:25Z</time>
      </trkpt>
      <trkpt lat="45.8698" lon="6.40988">
        <ele>1612.75</ele>
        <time>2017-02-16T09:18:26Z</time>
      </trkpt>
      <trkpt lat="45.86993" lon="6.40967">
        <ele>1608.9</ele>
        <time>2017-02-16T09:18:29Z</time>
      </trkpt>
      <trkpt lat="45.87016" lon="6.40931">
        <ele>1601.69</ele>
        <time>2017-02-16T09:18:34Z</time>
      </trkpt>
      <trkpt lat="45.87027" lon="6.40912">
        <ele>1600.25</ele>
        <time>2017-02-16T09:18:36Z</time>
      </trkpt>
      <trkpt lat="45.87032" lon="6.40903">
        <ele>1597.85</ele>
        <time>2017-02-16T09:18:37Z</time>
      </trkpt>
      <trkpt lat="45.87044" lon="6.40889">
        <ele>1596.89</ele>
        <time>2017-02-16T09:18:39Z</time>
      </trkpt>
      <trkpt lat="45.87065" lon="6.40868">
        <ele>1592.08</ele>
        <time>2017-02-16T09:18:42Z</time>
      </trkpt>
      <trkpt lat="45.87079" lon="6.40849">
        <ele>1589.2</ele>
        <time>2017-02-16T09:18:44Z</time>
      </trkpt>
      <trkpt lat="45.87113" lon="6.40828">
        <ele>1590.64</ele>
        <time>2017-02-16T09:18:51Z</time>
      </trkpt>
      <trkpt lat="45.87114" lon="6.40826">
        <ele>1590.64</ele>
        <time>2017-02-16T09:18:57Z</time>
      </trkpt>
      <trkpt lat="45.87133" lon="6.40808">
        <ele>1587.75</ele>
        <time>2017-02-16T09:19:06Z</time>
      </trkpt>
      <trkpt lat="45.87138" lon="6.40808">
        <ele>1587.27</ele>
        <time>2017-02-16T09:19:07Z</time>
      </trkpt>
      <trkpt lat="45.87142" lon="6.40808">
        <ele>1586.79</ele>
        <time>2017-02-16T09:19:08Z</time>
      </trkpt>
      <trkpt lat="45.87145" lon="6.40808">
        <ele>1586.31</ele>
        <time>2017-02-16T09:19:09Z</time>
      </trkpt>
      <trkpt lat="45.87149" lon="6.40807">
        <ele>1584.87</ele>
        <time>2017-02-16T09:19:10Z</time>
      </trkpt>
      <trkpt lat="45.87152" lon="6.40803">
        <ele>1584.39</ele>
        <time>2017-02-16T09:19:11Z</time>
      </trkpt>
      <trkpt lat="45.87155" lon="6.408">
        <ele>1583.43</ele>
        <time>2017-02-16T09:19:12Z</time>
      </trkpt>
      <trkpt lat="45.8716" lon="6.40799">
        <ele>1583.43</ele>
        <time>2017-02-16T09:19:13Z</time>
      </trkpt>
      <trkpt lat="45.87163" lon="6.40798">
        <ele>1581.99</ele>
        <time>2017-02-16T09:19:14Z</time>
      </trkpt>
      <trkpt lat="45.87166" lon="6.40796">
        <ele>1580.54</ele>
        <time>2017-02-16T09:19:15Z</time>
      </trkpt>
      <trkpt lat="45.87168" lon="6.40794">
        <ele>1580.54</ele>
        <time>2017-02-16T09:19:16Z</time>
      </trkpt>
      <trkpt lat="45.87171" lon="6.40789">
        <ele>1580.54</ele>
        <time>2017-02-16T09:19:21Z</time>
      </trkpt>
      <trkpt lat="45.87172" lon="6.40787">
        <ele>1579.58</ele>
        <time>2017-02-16T09:19:22Z</time>
      </trkpt>
      <trkpt lat="45.87174" lon="6.40783">
        <ele>1579.1</ele>
        <time>2017-02-16T09:19:23Z</time>
      </trkpt>
      <trkpt lat="45.87176" lon="6.40777">
        <ele>1577.66</ele>
        <time>2017-02-16T09:19:24Z</time>
      </trkpt>
      <trkpt lat="45.8718" lon="6.40773">
        <ele>1576.7</ele>
        <time>2017-02-16T09:19:25Z</time>
      </trkpt>
      <trkpt lat="45.87186" lon="6.40769">
        <ele>1574.3</ele>
        <time>2017-02-16T09:19:26Z</time>
      </trkpt>
      <trkpt lat="45.87194" lon="6.40763">
        <ele>1570.45</ele>
        <time>2017-02-16T09:19:27Z</time>
      </trkpt>
      <trkpt lat="45.87204" lon="6.40758">
        <ele>1566.12</ele>
        <time>2017-02-16T09:19:28Z</time>
      </trkpt>
      <trkpt lat="45.87214" lon="6.40754">
        <ele>1566.12</ele>
        <time>2017-02-16T09:19:29Z</time>
      </trkpt>
      <trkpt lat="45.87224" lon="6.40753">
        <ele>1564.68</ele>
        <time>2017-02-16T09:19:30Z</time>
      </trkpt>
      <trkpt lat="45.87232" lon="6.40754">
        <ele>1560.84</ele>
        <time>2017-02-16T09:19:31Z</time>
      </trkpt>
      <trkpt lat="45.8724" lon="6.40754">
        <ele>1559.4</ele>
        <time>2017-02-16T09:19:32Z</time>
      </trkpt>
      <trkpt lat="45.87247" lon="6.40752">
        <ele>1559.4</ele>
        <time>2017-02-16T09:19:33Z</time>
      </trkpt>
      <trkpt lat="45.87254" lon="6.40751">
        <ele>1559.4</ele>
        <time>2017-02-16T09:19:34Z</time>
      </trkpt>
      <trkpt lat="45.87274" lon="6.40748">
        <ele>1558.43</ele>
        <time>2017-02-16T09:19:37Z</time>
      </trkpt>
      <trkpt lat="45.87281" lon="6.40749">
        <ele>1557.95</ele>
        <time>2017-02-16T09:19:38Z</time>
      </trkpt>
      <trkpt lat="45.87295" lon="6.40751">
        <ele>1556.03</ele>
        <time>2017-02-16T09:19:40Z</time>
      </trkpt>
      <trkpt lat="45.87302" lon="6.4075">
        <ele>1554.59</ele>
        <time>2017-02-16T09:19:41Z</time>
      </trkpt>
      <trkpt lat="45.87308" lon="6.40745">
        <ele>1553.15</ele>
        <time>2017-02-16T09:19:42Z</time>
      </trkpt>
      <trkpt lat="45.87316" lon="6.40739">
        <ele>1552.19</ele>
        <time>2017-02-16T09:19:43Z</time>
      </trkpt>
      <trkpt lat="45.87323" lon="6.40737">
        <ele>1550.74</ele>
        <time>2017-02-16T09:19:44Z</time>
      </trkpt>
      <trkpt lat="45.8733" lon="6.40738">
        <ele>1548.82</ele>
        <time>2017-02-16T09:19:45Z</time>
      </trkpt>
      <trkpt lat="45.87338" lon="6.4074">
        <ele>1546.9</ele>
        <time>2017-02-16T09:19:46Z</time>
      </trkpt>
      <trkpt lat="45.87345" lon="6.40739">
        <ele>1544.98</ele>
        <time>2017-02-16T09:19:47Z</time>
      </trkpt>
      <trkpt lat="45.87352" lon="6.40735">
        <ele>1544.5</ele>
        <time>2017-02-16T09:19:48Z</time>
      </trkpt>
      <trkpt lat="45.87358" lon="6.40734">
        <ele>1543.53</ele>
        <time>2017-02-16T09:19:49Z</time>
      </trkpt>
      <trkpt lat="45.87364" lon="6.40736">
        <ele>1541.61</ele>
        <time>2017-02-16T09:19:50Z</time>
      </trkpt>
      <trkpt lat="45.87371" lon="6.40739">
        <ele>1539.69</ele>
        <time>2017-02-16T09:19:51Z</time>
      </trkpt>
      <trkpt lat="45.87377" lon="6.40743">
        <ele>1539.21</ele>
        <time>2017-02-16T09:19:52Z</time>
      </trkpt>
      <trkpt lat="45.87382" lon="6.40746">
        <ele>1539.21</ele>
        <time>2017-02-16T09:19:53Z</time>
      </trkpt>
      <trkpt lat="45.8739" lon="6.40752">
        <ele>1538.25</ele>
        <time>2017-02-16T09:19:58Z</time>
      </trkpt>
      <trkpt lat="45.87393" lon="6.40751">
        <ele>1538.25</ele>
        <time>2017-02-16T09:19:59Z</time>
      </trkpt>
      <trkpt lat="45.87396" lon="6.40747">
        <ele>1536.8</ele>
        <time>2017-02-16T09:20:00Z</time>
      </trkpt>
      <trkpt lat="45.87401" lon="6.40742">
        <ele>1534.4</ele>
        <time>2017-02-16T09:20:01Z</time>
      </trkpt>
      <trkpt lat="45.87406" lon="6.40738">
        <ele>1532.96</ele>
        <time>2017-02-16T09:20:02Z</time>
      </trkpt>
      <trkpt lat="45.87413" lon="6.40736">
        <ele>1531.04</ele>
        <time>2017-02-16T09:20:03Z</time>
      </trkpt>
      <trkpt lat="45.8742" lon="6.40736">
        <ele>1530.08</ele>
        <time>2017-02-16T09:20:04Z</time>
      </trkpt>
      <trkpt lat="45.87427" lon="6.40736">
        <ele>1528.63</ele>
        <time>2017-02-16T09:20:05Z</time>
      </trkpt>
      <trkpt lat="45.87434" lon="6.40737">
        <ele>1527.19</ele>
        <time>2017-02-16T09:20:06Z</time>
      </trkpt>
      <trkpt lat="45.87445" lon="6.40735">
        <ele>1527.19</ele>
        <time>2017-02-16T09:20:09Z</time>
      </trkpt>
      <trkpt lat="45.87448" lon="6.40735">
        <ele>1527.19</ele>
        <time>2017-02-16T09:20:10Z</time>
      </trkpt>
      <trkpt lat="45.87451" lon="6.40736">
        <ele>1526.23</ele>
        <time>2017-02-16T09:20:11Z</time>
      </trkpt>
      <trkpt lat="45.87454" lon="6.40737">
        <ele>1526.23</ele>
        <time>2017-02-16T09:20:12Z</time>
      </trkpt>
      <trkpt lat="45.87456" lon="6.40735">
        <ele>1525.75</ele>
        <time>2017-02-16T09:20:13Z</time>
      </trkpt>
      <trkpt lat="45.87454" lon="6.40731">
        <ele>1525.75</ele>
        <time>2017-02-16T09:20:25Z</time>
      </trkpt>
      <trkpt lat="45.87455" lon="6.40729">
        <ele>1525.27</ele>
        <time>2017-02-16T09:20:41Z</time>
      </trkpt>
      <trkpt lat="45.87457" lon="6.40729">
        <ele>1525.27</ele>
        <time>2017-02-16T09:20:46Z</time>
      </trkpt>
      <trkpt lat="45.87459" lon="6.40728">
        <ele>1525.27</ele>
        <time>2017-02-16T09:20:47Z</time>
      </trkpt>
      <trkpt lat="45.87462" lon="6.40729">
        <ele>1524.31</ele>
        <time>2017-02-16T09:20:48Z</time>
      </trkpt>
      <trkpt lat="45.87465" lon="6.4073">
        <ele>1523.83</ele>
        <time>2017-02-16T09:20:49Z</time>
      </trkpt>
      <trkpt lat="45.87468" lon="6.40731">
        <ele>1523.35</ele>
        <time>2017-02-16T09:20:50Z</time>
      </trkpt>
      <trkpt lat="45.87471" lon="6.40731">
        <ele>1522.87</ele>
        <time>2017-02-16T09:20:51Z</time>
      </trkpt>
      <trkpt lat="45.87474" lon="6.40731">
        <ele>1522.39</ele>
        <time>2017-02-16T09:20:52Z</time>
      </trkpt>
      <trkpt lat="45.87485" lon="6.40733">
        <ele>1519.98</ele>
        <time>2017-02-16T09:20:55Z</time>
      </trkpt>
      <trkpt lat="45.87489" lon="6.40732">
        <ele>1519.02</ele>
        <time>2017-02-16T09:20:56Z</time>
      </trkpt>
      <trkpt lat="45.87493" lon="6.4073">
        <ele>1517.58</ele>
        <time>2017-02-16T09:20:57Z</time>
      </trkpt>
      <trkpt lat="45.87496" lon="6.40728">
        <ele>1516.62</ele>
        <time>2017-02-16T09:20:59Z</time>
      </trkpt>
      <trkpt lat="45.87498" lon="6.40728">
        <ele>1516.14</ele>
        <time>2017-02-16T09:21:00Z</time>
      </trkpt>
      <trkpt lat="45.875" lon="6.40729">
        <ele>1515.18</ele>
        <time>2017-02-16T09:21:01Z</time>
      </trkpt>
      <trkpt lat="45.87501" lon="6.4073">
        <ele>1515.18</ele>
        <time>2017-02-16T09:21:02Z</time>
      </trkpt>
      <trkpt lat="45.87503" lon="6.40731">
        <ele>1514.69</ele>
        <time>2017-02-16T09:21:03Z</time>
      </trkpt>
      <trkpt lat="45.87506" lon="6.40731">
        <ele>1513.73</ele>
        <time>2017-02-16T09:21:04Z</time>
      </trkpt>
      <trkpt lat="45.87512" lon="6.4073">
        <ele>1511.81</ele>
        <time>2017-02-16T09:21:05Z</time>
      </trkpt>
      <trkpt lat="45.87523" lon="6.40722">
        <ele>1508.45</ele>
        <time>2017-02-16T09:21:08Z</time>
      </trkpt>
      <trkpt lat="45.87538" lon="6.4072">
        <ele>1501.72</ele>
        <time>2017-02-16T09:21:10Z</time>
      </trkpt>
      <trkpt lat="45.87547" lon="6.40715">
        <ele>1498.35</ele>
        <time>2017-02-16T09:21:11Z</time>
      </trkpt>
      <trkpt lat="45.87566" lon="6.40693">
        <ele>1495.47</ele>
        <time>2017-02-16T09:21:14Z</time>
      </trkpt>
      <trkpt lat="45.87578" lon="6.40672">
        <ele>1492.1</ele>
        <time>2017-02-16T09:21:18Z</time>
      </trkpt>
      <trkpt lat="45.87586" lon="6.40659">
        <ele>1488.74</ele>
        <time>2017-02-16T09:21:20Z</time>
      </trkpt>
      <trkpt lat="45.87587" lon="6.40648">
        <ele>1485.37</ele>
        <time>2017-02-16T09:21:21Z</time>
      </trkpt>
      <trkpt lat="45.87585" lon="6.40641">
        <ele>1484.41</ele>
        <time>2017-02-16T09:21:22Z</time>
      </trkpt>
      <trkpt lat="45.87579" lon="6.40618">
        <ele>1479.13</ele>
        <time>2017-02-16T09:21:25Z</time>
      </trkpt>
      <trkpt lat="45.87575" lon="6.40601">
        <ele>1477.2</ele>
        <time>2017-02-16T09:21:27Z</time>
      </trkpt>
      <trkpt lat="45.87573" lon="6.4058">
        <ele>1474.32</ele>
        <time>2017-02-16T09:21:29Z</time>
      </trkpt>
      <trkpt lat="45.87571" lon="6.40575">
        <ele>1474.8</ele>
        <time>2017-02-16T09:21:30Z</time>
      </trkpt>
      <trkpt lat="45.87567" lon="6.4055">
        <ele>1470.47</ele>
        <time>2017-02-16T09:21:33Z</time>
      </trkpt>
      <trkpt lat="45.87564" lon="6.40532">
        <ele>1469.99</ele>
        <time>2017-02-16T09:21:35Z</time>
      </trkpt>
      <trkpt lat="45.87563" lon="6.40524">
        <ele>1468.55</ele>
        <time>2017-02-16T09:21:36Z</time>
      </trkpt>
      <trkpt lat="45.87563" lon="6.40496">
        <ele>1465.67</ele>
        <time>2017-02-16T09:21:39Z</time>
      </trkpt>
      <trkpt lat="45.8756" lon="6.4047">
        <ele>1463.74</ele>
        <time>2017-02-16T09:21:42Z</time>
      </trkpt>
      <trkpt lat="45.87558" lon="6.40444">
        <ele>1459.42</ele>
        <time>2017-02-16T09:21:45Z</time>
      </trkpt>
      <trkpt lat="45.87554" lon="6.40398">
        <ele>1452.21</ele>
        <time>2017-02-16T09:21:50Z</time>
      </trkpt>
      <trkpt lat="45.87555" lon="6.40386">
        <ele>1450.77</ele>
        <time>2017-02-16T09:21:51Z</time>
      </trkpt>
      <trkpt lat="45.87561" lon="6.4032">
        <ele>1443.08</ele>
        <time>2017-02-16T09:21:56Z</time>
      </trkpt>
      <trkpt lat="45.87561" lon="6.40306">
        <ele>1443.08</ele>
        <time>2017-02-16T09:21:57Z</time>
      </trkpt>
      <trkpt lat="45.87564" lon="6.40266">
        <ele>1440.19</ele>
        <time>2017-02-16T09:22:00Z</time>
      </trkpt>
      <trkpt lat="45.87565" lon="6.40243">
        <ele>1439.23</ele>
        <time>2017-02-16T09:22:02Z</time>
      </trkpt>
      <trkpt lat="45.87564" lon="6.40222">
        <ele>1439.71</ele>
        <time>2017-02-16T09:22:04Z</time>
      </trkpt>
      <trkpt lat="45.87563" lon="6.40212">
        <ele>1439.71</ele>
        <time>2017-02-16T09:22:05Z</time>
      </trkpt>
      <trkpt lat="45.8756" lon="6.40205">
        <ele>1439.71</ele>
        <time>2017-02-16T09:22:06Z</time>
      </trkpt>
      <trkpt lat="45.87556" lon="6.40201">
        <ele>1439.71</ele>
        <time>2017-02-16T09:22:07Z</time>
      </trkpt>
      <trkpt lat="45.87553" lon="6.402">
        <ele>1440.19</ele>
        <time>2017-02-16T09:22:08Z</time>
      </trkpt>
      <trkpt lat="45.87552" lon="6.40203">
        <ele>1440.19</ele>
        <time>2017-02-16T09:22:19Z</time>
      </trkpt>
      <trkpt lat="45.87551" lon="6.40207">
        <ele>1441.15</ele>
        <time>2017-02-16T09:22:33Z</time>
      </trkpt>
      <trkpt lat="45.8755" lon="6.40209">
        <ele>1441.15</ele>
        <time>2017-02-16T09:22:55Z</time>
      </trkpt>
      <trkpt lat="45.87549" lon="6.40212">
        <ele>1441.15</ele>
        <time>2017-02-16T09:23:15Z</time>
      </trkpt>
      <trkpt lat="45.87548" lon="6.40213">
        <ele>1441.63</ele>
        <time>2017-02-16T09:23:37Z</time>
      </trkpt>
      <trkpt lat="45.87548" lon="6.40214">
        <ele>1441.63</ele>
        <time>2017-02-16T09:23:55Z</time>
      </trkpt>
      <trkpt lat="45.87548" lon="6.40216">
        <ele>1442.11</ele>
        <time>2017-02-16T09:24:11Z</time>
      </trkpt>
      <trkpt lat="45.87549" lon="6.40216">
        <ele>1442.11</ele>
        <time>2017-02-16T09:24:28Z</time>
      </trkpt>
      <trkpt lat="45.87549" lon="6.40218">
        <ele>1442.11</ele>
        <time>2017-02-16T09:24:45Z</time>
      </trkpt>
      <trkpt lat="45.87548" lon="6.40219">
        <ele>1442.11</ele>
        <time>2017-02-16T09:25:04Z</time>
      </trkpt>
      <trkpt lat="45.87548" lon="6.40219">
        <ele>1442.11</ele>
        <time>2017-02-16T09:25:21Z</time>
      </trkpt>
      <trkpt lat="45.87548" lon="6.40219">
        <ele>1442.11</ele>
        <time>2017-02-16T09:25:40Z</time>
      </trkpt>
      <trkpt lat="45.87548" lon="6.4022">
        <ele>1443.56</ele>
        <time>2017-02-16T09:25:51Z</time>
      </trkpt>
      <trkpt lat="45.87548" lon="6.4022">
        <ele>1439.23</ele>
        <time>2017-02-16T09:26:05Z</time>
      </trkpt>
      <trkpt lat="45.87548" lon="6.4022">
        <ele>1445</ele>
        <time>2017-02-16T09:26:06Z</time>
      </trkpt>
      <trkpt lat="45.87548" lon="6.40221">
        <ele>1442.11</ele>
        <time>2017-02-16T09:26:20Z</time>
      </trkpt>
      <trkpt lat="45.87548" lon="6.40223">
        <ele>1442.11</ele>
        <time>2017-02-16T09:26:39Z</time>
      </trkpt>
      <trkpt lat="45.87547" lon="6.40223">
        <ele>1442.11</ele>
        <time>2017-02-16T09:26:55Z</time>
      </trkpt>
      <trkpt lat="45.87546" lon="6.40224">
        <ele>1442.11</ele>
        <time>2017-02-16T09:27:15Z</time>
      </trkpt>
      <trkpt lat="45.87546" lon="6.40225">
        <ele>1442.11</ele>
        <time>2017-02-16T09:27:33Z</time>
      </trkpt>
      <trkpt lat="45.87545" lon="6.40225">
        <ele>1442.6</ele>
        <time>2017-02-16T09:27:50Z</time>
      </trkpt>
      <trkpt lat="45.87546" lon="6.40225">
        <ele>1442.6</ele>
        <time>2017-02-16T09:28:04Z</time>
      </trkpt>
      <trkpt lat="45.87545" lon="6.40228">
        <ele>1442.6</ele>
        <time>2017-02-16T09:28:22Z</time>
      </trkpt>
      <trkpt lat="45.87544" lon="6.40229">
        <ele>1442.6</ele>
        <time>2017-02-16T09:28:38Z</time>
      </trkpt>
      <trkpt lat="45.87543" lon="6.40233">
        <ele>1442.6</ele>
        <time>2017-02-16T09:29:00Z</time>
      </trkpt>
      <trkpt lat="45.87542" lon="6.40237">
        <ele>1442.6</ele>
        <time>2017-02-16T09:29:14Z</time>
      </trkpt>
      <trkpt lat="45.87542" lon="6.40239">
        <ele>1442.6</ele>
        <time>2017-02-16T09:29:29Z</time>
      </trkpt>
      <trkpt lat="45.8754" lon="6.40243">
        <ele>1442.6</ele>
        <time>2017-02-16T09:29:45Z</time>
      </trkpt>
      <trkpt lat="45.87542" lon="6.40241">
        <ele>1442.6</ele>
        <time>2017-02-16T09:29:53Z</time>
      </trkpt>
      <trkpt lat="45.87541" lon="6.40242">
        <ele>1445.96</ele>
        <time>2017-02-16T09:29:56Z</time>
      </trkpt>
      <trkpt lat="45.87541" lon="6.40242">
        <ele>1443.08</ele>
        <time>2017-02-16T09:29:57Z</time>
      </trkpt>
      <trkpt lat="45.87539" lon="6.40248">
        <ele>1443.08</ele>
        <time>2017-02-16T09:30:10Z</time>
      </trkpt>
      <trkpt lat="45.87538" lon="6.40252">
        <ele>1442.11</ele>
        <time>2017-02-16T09:30:13Z</time>
      </trkpt>
      <trkpt lat="45.87534" lon="6.40269">
        <ele>1443.56</ele>
        <time>2017-02-16T09:30:19Z</time>
      </trkpt>
      <trkpt lat="45.87533" lon="6.40273">
        <ele>1443.56</ele>
        <time>2017-02-16T09:30:20Z</time>
      </trkpt>
      <trkpt lat="45.8753" lon="6.40285">
        <ele>1447.4</ele>
        <time>2017-02-16T09:30:24Z</time>
      </trkpt>
      <trkpt lat="45.87529" lon="6.40288">
        <ele>1447.4</ele>
        <time>2017-02-16T09:30:25Z</time>
      </trkpt>
      <trkpt lat="45.87526" lon="6.40304">
        <ele>1450.29</ele>
        <time>2017-02-16T09:30:30Z</time>
      </trkpt>
      <trkpt lat="45.87522" lon="6.40323">
        <ele>1453.65</ele>
        <time>2017-02-16T09:30:36Z</time>
      </trkpt>
      <trkpt lat="45.87519" lon="6.40332">
        <ele>1457.02</ele>
        <time>2017-02-16T09:30:39Z</time>
      </trkpt>
      <trkpt lat="45.87518" lon="6.40335">
        <ele>1455.57</ele>
        <time>2017-02-16T09:30:40Z</time>
      </trkpt>
      <trkpt lat="45.87513" lon="6.40353">
        <ele>1458.46</ele>
        <time>2017-02-16T09:30:46Z</time>
      </trkpt>
      <trkpt lat="45.87508" lon="6.40373">
        <ele>1461.82</ele>
        <time>2017-02-16T09:30:53Z</time>
      </trkpt>
      <trkpt lat="45.87504" lon="6.40388">
        <ele>1465.19</ele>
        <time>2017-02-16T09:30:58Z</time>
      </trkpt>
      <trkpt lat="45.87499" lon="6.40406">
        <ele>1468.55</ele>
        <time>2017-02-16T09:31:04Z</time>
      </trkpt>
      <trkpt lat="45.87496" lon="6.40419">
        <ele>1472.4</ele>
        <time>2017-02-16T09:31:09Z</time>
      </trkpt>
      <trkpt lat="45.87492" lon="6.40433">
        <ele>1475.76</ele>
        <time>2017-02-16T09:31:14Z</time>
      </trkpt>
      <trkpt lat="45.87487" lon="6.40449">
        <ele>1479.61</ele>
        <time>2017-02-16T09:31:19Z</time>
      </trkpt>
      <trkpt lat="45.87481" lon="6.40471">
        <ele>1482.97</ele>
        <time>2017-02-16T09:31:27Z</time>
      </trkpt>
      <trkpt lat="45.87477" lon="6.4049">
        <ele>1485.85</ele>
        <time>2017-02-16T09:31:33Z</time>
      </trkpt>
      <trkpt lat="45.87472" lon="6.40506">
        <ele>1489.22</ele>
        <time>2017-02-16T09:31:39Z</time>
      </trkpt>
      <trkpt lat="45.87468" lon="6.40521">
        <ele>1492.58</ele>
        <time>2017-02-16T09:31:44Z</time>
      </trkpt>
      <trkpt lat="45.87464" lon="6.40535">
        <ele>1495.47</ele>
        <time>2017-02-16T09:31:49Z</time>
      </trkpt>
      <trkpt lat="45.87461" lon="6.40549">
        <ele>1499.31</ele>
        <time>2017-02-16T09:31:54Z</time>
      </trkpt>
      <trkpt lat="45.8746" lon="6.40552">
        <ele>1499.31</ele>
        <time>2017-02-16T09:31:55Z</time>
      </trkpt>
      <trkpt lat="45.87457" lon="6.40563">
        <ele>1502.68</ele>
        <time>2017-02-16T09:31:59Z</time>
      </trkpt>
      <trkpt lat="45.87453" lon="6.40577">
        <ele>1506.52</ele>
        <time>2017-02-16T09:32:04Z</time>
      </trkpt>
      <trkpt lat="45.87449" lon="6.40589">
        <ele>1510.37</ele>
        <time>2017-02-16T09:32:08Z</time>
      </trkpt>
      <trkpt lat="45.87446" lon="6.406">
        <ele>1513.73</ele>
        <time>2017-02-16T09:32:12Z</time>
      </trkpt>
      <trkpt lat="45.87443" lon="6.4061">
        <ele>1517.1</ele>
        <time>2017-02-16T09:32:16Z</time>
      </trkpt>
      <trkpt lat="45.8744" lon="6.40621">
        <ele>1520.46</ele>
        <time>2017-02-16T09:32:20Z</time>
      </trkpt>
      <trkpt lat="45.87437" lon="6.40632">
        <ele>1524.31</ele>
        <time>2017-02-16T09:32:24Z</time>
      </trkpt>
      <trkpt lat="45.87434" lon="6.40643">
        <ele>1527.67</ele>
        <time>2017-02-16T09:32:28Z</time>
      </trkpt>
      <trkpt lat="45.87428" lon="6.40667">
        <ele>1531.04</ele>
        <time>2017-02-16T09:32:36Z</time>
      </trkpt>
      <trkpt lat="45.87422" lon="6.40687">
        <ele>1533.92</ele>
        <time>2017-02-16T09:32:43Z</time>
      </trkpt>
      <trkpt lat="45.87418" lon="6.40704">
        <ele>1537.29</ele>
        <time>2017-02-16T09:32:49Z</time>
      </trkpt>
      <trkpt lat="45.87417" lon="6.40707">
        <ele>1537.29</ele>
        <time>2017-02-16T09:32:50Z</time>
      </trkpt>
      <trkpt lat="45.87412" lon="6.40724">
        <ele>1541.61</ele>
        <time>2017-02-16T09:32:56Z</time>
      </trkpt>
      <trkpt lat="45.87408" lon="6.40741">
        <ele>1544.5</ele>
        <time>2017-02-16T09:33:02Z</time>
      </trkpt>
      <trkpt lat="45.87404" lon="6.40755">
        <ele>1547.86</ele>
        <time>2017-02-16T09:33:07Z</time>
      </trkpt>
      <trkpt lat="45.874" lon="6.40769">
        <ele>1551.22</ele>
        <time>2017-02-16T09:33:12Z</time>
      </trkpt>
      <trkpt lat="45.87396" lon="6.40783">
        <ele>1554.59</ele>
        <time>2017-02-16T09:33:17Z</time>
      </trkpt>
      <trkpt lat="45.87393" lon="6.40794">
        <ele>1557.95</ele>
        <time>2017-02-16T09:33:21Z</time>
      </trkpt>
      <trkpt lat="45.8739" lon="6.40806">
        <ele>1561.32</ele>
        <time>2017-02-16T09:33:25Z</time>
      </trkpt>
      <trkpt lat="45.87387" lon="6.40817">
        <ele>1564.68</ele>
        <time>2017-02-16T09:33:29Z</time>
      </trkpt>
      <trkpt lat="45.87384" lon="6.40828">
        <ele>1568.05</ele>
        <time>2017-02-16T09:33:33Z</time>
      </trkpt>
      <trkpt lat="45.87381" lon="6.40839">
        <ele>1571.89</ele>
        <time>2017-02-16T09:33:37Z</time>
      </trkpt>
      <trkpt lat="45.87378" lon="6.4085">
        <ele>1575.26</ele>
        <time>2017-02-16T09:33:41Z</time>
      </trkpt>
      <trkpt lat="45.87375" lon="6.40861">
        <ele>1579.1</ele>
        <time>2017-02-16T09:33:45Z</time>
      </trkpt>
      <trkpt lat="45.87372" lon="6.40872">
        <ele>1582.95</ele>
        <time>2017-02-16T09:33:49Z</time>
      </trkpt>
      <trkpt lat="45.87369" lon="6.40882">
        <ele>1587.27</ele>
        <time>2017-02-16T09:33:53Z</time>
      </trkpt>
      <trkpt lat="45.87364" lon="6.409">
        <ele>1590.16</ele>
        <time>2017-02-16T09:33:59Z</time>
      </trkpt>
      <trkpt lat="45.8736" lon="6.40917">
        <ele>1593.04</ele>
        <time>2017-02-16T09:34:05Z</time>
      </trkpt>
      <trkpt lat="45.87355" lon="6.40934">
        <ele>1596.89</ele>
        <time>2017-02-16T09:34:11Z</time>
      </trkpt>
      <trkpt lat="45.87351" lon="6.4095">
        <ele>1600.25</ele>
        <time>2017-02-16T09:34:17Z</time>
      </trkpt>
      <trkpt lat="45.87347" lon="6.40964">
        <ele>1603.62</ele>
        <time>2017-02-16T09:34:22Z</time>
      </trkpt>
      <trkpt lat="45.87343" lon="6.40978">
        <ele>1606.98</ele>
        <time>2017-02-16T09:34:27Z</time>
      </trkpt>
      <trkpt lat="45.87339" lon="6.40992">
        <ele>1610.83</ele>
        <time>2017-02-16T09:34:32Z</time>
      </trkpt>
      <trkpt lat="45.87335" lon="6.41007">
        <ele>1614.67</ele>
        <time>2017-02-16T09:34:37Z</time>
      </trkpt>
      <trkpt lat="45.87332" lon="6.41018">
        <ele>1618.04</ele>
        <time>2017-02-16T09:34:41Z</time>
      </trkpt>
      <trkpt lat="45.87329" lon="6.41029">
        <ele>1621.4</ele>
        <time>2017-02-16T09:34:45Z</time>
      </trkpt>
      <trkpt lat="45.87327" lon="6.41037">
        <ele>1622.84</ele>
        <time>2017-02-16T09:34:48Z</time>
      </trkpt>
      <trkpt lat="45.87321" lon="6.41058">
        <ele>1626.21</ele>
        <time>2017-02-16T09:34:55Z</time>
      </trkpt>
      <trkpt lat="45.87315" lon="6.41082">
        <ele>1629.09</ele>
        <time>2017-02-16T09:35:03Z</time>
      </trkpt>
      <trkpt lat="45.87311" lon="6.41099">
        <ele>1632.46</ele>
        <time>2017-02-16T09:35:09Z</time>
      </trkpt>
      <trkpt lat="45.87306" lon="6.41116">
        <ele>1635.82</ele>
        <time>2017-02-16T09:35:15Z</time>
      </trkpt>
      <trkpt lat="45.87301" lon="6.41133">
        <ele>1639.19</ele>
        <time>2017-02-16T09:35:21Z</time>
      </trkpt>
      <trkpt lat="45.87299" lon="6.41142">
        <ele>1640.63</ele>
        <time>2017-02-16T09:35:24Z</time>
      </trkpt>
      <trkpt lat="45.87289" lon="6.41188">
        <ele>1639.67</ele>
        <time>2017-02-16T09:35:36Z</time>
      </trkpt>
      <trkpt lat="45.87288" lon="6.41195">
        <ele>1639.19</ele>
        <time>2017-02-16T09:35:47Z</time>
      </trkpt>
      <trkpt lat="45.87289" lon="6.41193">
        <ele>1639.19</ele>
        <time>2017-02-16T09:35:49Z</time>
      </trkpt>
      <trkpt lat="45.87278" lon="6.41184">
        <ele>1639.67</ele>
        <time>2017-02-16T09:36:01Z</time>
      </trkpt>
      <trkpt lat="45.87277" lon="6.41184">
        <ele>1639.67</ele>
        <time>2017-02-16T09:36:02Z</time>
      </trkpt>
      <trkpt lat="45.87274" lon="6.41185">
        <ele>1639.67</ele>
        <time>2017-02-16T09:36:05Z</time>
      </trkpt>
      <trkpt lat="45.87263" lon="6.41187">
        <ele>1638.7</ele>
        <time>2017-02-16T09:36:17Z</time>
      </trkpt>
      <trkpt lat="45.87258" lon="6.41187">
        <ele>1637.26</ele>
        <time>2017-02-16T09:36:20Z</time>
      </trkpt>
      <trkpt lat="45.87255" lon="6.41184">
        <ele>1636.3</ele>
        <time>2017-02-16T09:36:21Z</time>
      </trkpt>
      <trkpt lat="45.87251" lon="6.4118">
        <ele>1634.86</ele>
        <time>2017-02-16T09:36:22Z</time>
      </trkpt>
      <trkpt lat="45.87246" lon="6.41175">
        <ele>1631.98</ele>
        <time>2017-02-16T09:36:23Z</time>
      </trkpt>
      <trkpt lat="45.8724" lon="6.41172">
        <ele>1630.05</ele>
        <time>2017-02-16T09:36:24Z</time>
      </trkpt>
      <trkpt lat="45.87233" lon="6.41172">
        <ele>1629.09</ele>
        <time>2017-02-16T09:36:25Z</time>
      </trkpt>
      <trkpt lat="45.87227" lon="6.41172">
        <ele>1627.65</ele>
        <time>2017-02-16T09:36:26Z</time>
      </trkpt>
      <trkpt lat="45.8722" lon="6.41173">
        <ele>1627.17</ele>
        <time>2017-02-16T09:36:27Z</time>
      </trkpt>
      <trkpt lat="45.87214" lon="6.41174">
        <ele>1626.69</ele>
        <time>2017-02-16T09:36:28Z</time>
      </trkpt>
      <trkpt lat="45.87203" lon="6.41175">
        <ele>1626.69</ele>
        <time>2017-02-16T09:36:30Z</time>
      </trkpt>
      <trkpt lat="45.87199" lon="6.41174">
        <ele>1626.69</ele>
        <time>2017-02-16T09:36:31Z</time>
      </trkpt>
      <trkpt lat="45.87196" lon="6.41174">
        <ele>1626.69</ele>
        <time>2017-02-16T09:36:32Z</time>
      </trkpt>
      <trkpt lat="45.87193" lon="6.41174">
        <ele>1626.69</ele>
        <time>2017-02-16T09:36:33Z</time>
      </trkpt>
      <trkpt lat="45.8719" lon="6.41176">
        <ele>1626.69</ele>
        <time>2017-02-16T09:36:34Z</time>
      </trkpt>
      <trkpt lat="45.87188" lon="6.41177">
        <ele>1626.69</ele>
        <time>2017-02-16T09:36:35Z</time>
      </trkpt>
      <trkpt lat="45.87185" lon="6.41178">
        <ele>1626.69</ele>
        <time>2017-02-16T09:36:36Z</time>
      </trkpt>
      <trkpt lat="45.87175" lon="6.41182">
        <ele>1624.77</ele>
        <time>2017-02-16T09:36:39Z</time>
      </trkpt>
      <trkpt lat="45.87166" lon="6.41187">
        <ele>1623.8</ele>
        <time>2017-02-16T09:36:41Z</time>
      </trkpt>
      <trkpt lat="45.87146" lon="6.41201">
        <ele>1624.77</ele>
        <time>2017-02-16T09:36:46Z</time>
      </trkpt>
      <trkpt lat="45.8714" lon="6.41202">
        <ele>1621.88</ele>
        <time>2017-02-16T09:36:47Z</time>
      </trkpt>
      <trkpt lat="45.8713" lon="6.41204">
        <ele>1620.92</ele>
        <time>2017-02-16T09:36:49Z</time>
      </trkpt>
      <trkpt lat="45.87125" lon="6.41204">
        <ele>1620.44</ele>
        <time>2017-02-16T09:36:50Z</time>
      </trkpt>
      <trkpt lat="45.8712" lon="6.41203">
        <ele>1620.44</ele>
        <time>2017-02-16T09:36:51Z</time>
      </trkpt>
      <trkpt lat="45.87117" lon="6.41202">
        <ele>1620.44</ele>
        <time>2017-02-16T09:36:52Z</time>
      </trkpt>
      <trkpt lat="45.87114" lon="6.41202">
        <ele>1620.44</ele>
        <time>2017-02-16T09:36:53Z</time>
      </trkpt>
      <trkpt lat="45.87111" lon="6.41201">
        <ele>1620.44</ele>
        <time>2017-02-16T09:36:54Z</time>
      </trkpt>
      <trkpt lat="45.87108" lon="6.41201">
        <ele>1620.44</ele>
        <time>2017-02-16T09:36:55Z</time>
      </trkpt>
      <trkpt lat="45.87105" lon="6.41202">
        <ele>1622.36</ele>
        <time>2017-02-16T09:36:57Z</time>
      </trkpt>
      <trkpt lat="45.8709" lon="6.41197">
        <ele>1622.84</ele>
        <time>2017-02-16T09:37:08Z</time>
      </trkpt>
      <trkpt lat="45.87089" lon="6.41196">
        <ele>1622.84</ele>
        <time>2017-02-16T09:37:09Z</time>
      </trkpt>
      <trkpt lat="45.87087" lon="6.41194">
        <ele>1622.84</ele>
        <time>2017-02-16T09:37:10Z</time>
      </trkpt>
      <trkpt lat="45.87086" lon="6.41193">
        <ele>1622.84</ele>
        <time>2017-02-16T09:37:11Z</time>
      </trkpt>
      <trkpt lat="45.87084" lon="6.41191">
        <ele>1622.84</ele>
        <time>2017-02-16T09:37:12Z</time>
      </trkpt>
      <trkpt lat="45.87081" lon="6.41189">
        <ele>1621.88</ele>
        <time>2017-02-16T09:37:13Z</time>
      </trkpt>
      <trkpt lat="45.87079" lon="6.41187">
        <ele>1621.88</ele>
        <time>2017-02-16T09:37:14Z</time>
      </trkpt>
      <trkpt lat="45.87063" lon="6.41171">
        <ele>1621.4</ele>
        <time>2017-02-16T09:37:25Z</time>
      </trkpt>
      <trkpt lat="45.87053" lon="6.41155">
        <ele>1621.4</ele>
        <time>2017-02-16T09:37:42Z</time>
      </trkpt>
      <trkpt lat="45.87047" lon="6.41148">
        <ele>1621.4</ele>
        <time>2017-02-16T09:37:47Z</time>
      </trkpt>
      <trkpt lat="45.87042" lon="6.41143">
        <ele>1620.44</ele>
        <time>2017-02-16T09:38:01Z</time>
      </trkpt>
      <trkpt lat="45.87029" lon="6.41129">
        <ele>1616.59</ele>
        <time>2017-02-16T09:38:11Z</time>
      </trkpt>
      <trkpt lat="45.87025" lon="6.41127">
        <ele>1616.11</ele>
        <time>2017-02-16T09:38:12Z</time>
      </trkpt>
      <trkpt lat="45.87022" lon="6.41126">
        <ele>1615.15</ele>
        <time>2017-02-16T09:38:13Z</time>
      </trkpt>
      <trkpt lat="45.87018" lon="6.41125">
        <ele>1615.15</ele>
        <time>2017-02-16T09:38:14Z</time>
      </trkpt>
      <trkpt lat="45.87013" lon="6.41123">
        <ele>1614.19</ele>
        <time>2017-02-16T09:38:15Z</time>
      </trkpt>
      <trkpt lat="45.87009" lon="6.4112">
        <ele>1613.23</ele>
        <time>2017-02-16T09:38:16Z</time>
      </trkpt>
      <trkpt lat="45.87007" lon="6.41117">
        <ele>1613.23</ele>
        <time>2017-02-16T09:38:17Z</time>
      </trkpt>
      <trkpt lat="45.87004" lon="6.41114">
        <ele>1613.23</ele>
        <time>2017-02-16T09:38:18Z</time>
      </trkpt>
      <trkpt lat="45.87001" lon="6.41111">
        <ele>1611.79</ele>
        <time>2017-02-16T09:38:19Z</time>
      </trkpt>
      <trkpt lat="45.86998" lon="6.4111">
        <ele>1610.83</ele>
        <time>2017-02-16T09:38:20Z</time>
      </trkpt>
      <trkpt lat="45.86994" lon="6.41111">
        <ele>1609.38</ele>
        <time>2017-02-16T09:38:21Z</time>
      </trkpt>
      <trkpt lat="45.8699" lon="6.41112">
        <ele>1609.38</ele>
        <time>2017-02-16T09:38:22Z</time>
      </trkpt>
      <trkpt lat="45.86987" lon="6.41114">
        <ele>1609.38</ele>
        <time>2017-02-16T09:38:23Z</time>
      </trkpt>
      <trkpt lat="45.86984" lon="6.41116">
        <ele>1609.38</ele>
        <time>2017-02-16T09:38:24Z</time>
      </trkpt>
      <trkpt lat="45.86982" lon="6.41117">
        <ele>1609.38</ele>
        <time>2017-02-16T09:38:25Z</time>
      </trkpt>
      <trkpt lat="45.8698" lon="6.41118">
        <ele>1609.38</ele>
        <time>2017-02-16T09:38:26Z</time>
      </trkpt>
      <trkpt lat="45.86979" lon="6.41119">
        <ele>1609.38</ele>
        <time>2017-02-16T09:38:27Z</time>
      </trkpt>
      <trkpt lat="45.86977" lon="6.4112">
        <ele>1609.38</ele>
        <time>2017-02-16T09:38:28Z</time>
      </trkpt>
      <trkpt lat="45.86966" lon="6.41125">
        <ele>1608.9</ele>
        <time>2017-02-16T09:38:36Z</time>
      </trkpt>
      <trkpt lat="45.86964" lon="6.41128">
        <ele>1608.42</ele>
        <time>2017-02-16T09:38:37Z</time>
      </trkpt>
      <trkpt lat="45.86962" lon="6.41132">
        <ele>1607.46</ele>
        <time>2017-02-16T09:38:38Z</time>
      </trkpt>
      <trkpt lat="45.86959" lon="6.4114">
        <ele>1603.62</ele>
        <time>2017-02-16T09:38:41Z</time>
      </trkpt>
      <trkpt lat="45.86954" lon="6.41147">
        <ele>1598.81</ele>
        <time>2017-02-16T09:38:44Z</time>
      </trkpt>
      <trkpt lat="45.8695" lon="6.41149">
        <ele>1598.33</ele>
        <time>2017-02-16T09:38:45Z</time>
      </trkpt>
      <trkpt lat="45.86945" lon="6.41149">
        <ele>1595.93</ele>
        <time>2017-02-16T09:38:46Z</time>
      </trkpt>
      <trkpt lat="45.86938" lon="6.41152">
        <ele>1593.04</ele>
        <time>2017-02-16T09:38:47Z</time>
      </trkpt>
      <trkpt lat="45.86929" lon="6.41156">
        <ele>1593.04</ele>
        <time>2017-02-16T09:38:48Z</time>
      </trkpt>
      <trkpt lat="45.86897" lon="6.41171">
        <ele>1591.12</ele>
        <time>2017-02-16T09:38:53Z</time>
      </trkpt>
      <trkpt lat="45.86886" lon="6.41179">
        <ele>1593.04</ele>
        <time>2017-02-16T09:38:54Z</time>
      </trkpt>
      <trkpt lat="45.86861" lon="6.41184">
        <ele>1594</ele>
        <time>2017-02-16T09:38:59Z</time>
      </trkpt>
      <trkpt lat="45.86851" lon="6.41187">
        <ele>1593.04</ele>
        <time>2017-02-16T09:39:01Z</time>
      </trkpt>
      <trkpt lat="45.86805" lon="6.41211">
        <ele>1592.08</ele>
        <time>2017-02-16T09:39:11Z</time>
      </trkpt>
      <trkpt lat="45.86793" lon="6.4122">
        <ele>1590.64</ele>
        <time>2017-02-16T09:39:15Z</time>
      </trkpt>
      <trkpt lat="45.86789" lon="6.41225">
        <ele>1590.64</ele>
        <time>2017-02-16T09:39:17Z</time>
      </trkpt>
      <trkpt lat="45.86786" lon="6.41229">
        <ele>1590.64</ele>
        <time>2017-02-16T09:39:29Z</time>
      </trkpt>
      <trkpt lat="45.86786" lon="6.4123">
        <ele>1590.64</ele>
        <time>2017-02-16T09:39:30Z</time>
      </trkpt>
      <trkpt lat="45.86774" lon="6.41246">
        <ele>1587.27</ele>
        <time>2017-02-16T09:39:36Z</time>
      </trkpt>
      <trkpt lat="45.86753" lon="6.41259">
        <ele>1584.87</ele>
        <time>2017-02-16T09:39:40Z</time>
      </trkpt>
      <trkpt lat="45.86733" lon="6.41266">
        <ele>1584.87</ele>
        <time>2017-02-16T09:39:44Z</time>
      </trkpt>
      <trkpt lat="45.86724" lon="6.41269">
        <ele>1584.39</ele>
        <time>2017-02-16T09:39:46Z</time>
      </trkpt>
      <trkpt lat="45.86713" lon="6.41272">
        <ele>1585.83</ele>
        <time>2017-02-16T09:39:50Z</time>
      </trkpt>
      <trkpt lat="45.86706" lon="6.41275">
        <ele>1585.83</ele>
        <time>2017-02-16T09:39:54Z</time>
      </trkpt>
      <trkpt lat="45.86687" lon="6.41275">
        <ele>1586.31</ele>
        <time>2017-02-16T09:40:07Z</time>
      </trkpt>
      <trkpt lat="45.86678" lon="6.41273">
        <ele>1586.31</ele>
        <time>2017-02-16T09:40:15Z</time>
      </trkpt>
      <trkpt lat="45.86672" lon="6.41273">
        <ele>1586.31</ele>
        <time>2017-02-16T09:40:21Z</time>
      </trkpt>
      <trkpt lat="45.8667" lon="6.41272">
        <ele>1586.31</ele>
        <time>2017-02-16T09:40:22Z</time>
      </trkpt>
      <trkpt lat="45.86665" lon="6.41271">
        <ele>1586.31</ele>
        <time>2017-02-16T09:40:26Z</time>
      </trkpt>
      <trkpt lat="45.86663" lon="6.41271">
        <ele>1586.31</ele>
        <time>2017-02-16T09:40:27Z</time>
      </trkpt>
      <trkpt lat="45.86661" lon="6.4127">
        <ele>1586.31</ele>
        <time>2017-02-16T09:40:28Z</time>
      </trkpt>
      <trkpt lat="45.86659" lon="6.41269">
        <ele>1584.87</ele>
        <time>2017-02-16T09:40:29Z</time>
      </trkpt>
      <trkpt lat="45.86657" lon="6.41269">
        <ele>1584.87</ele>
        <time>2017-02-16T09:40:30Z</time>
      </trkpt>
      <trkpt lat="45.86641" lon="6.41264">
        <ele>1583.91</ele>
        <time>2017-02-16T09:40:36Z</time>
      </trkpt>
      <trkpt lat="45.86638" lon="6.41264">
        <ele>1583.91</ele>
        <time>2017-02-16T09:40:37Z</time>
      </trkpt>
      <trkpt lat="45.86636" lon="6.41264">
        <ele>1583.91</ele>
        <time>2017-02-16T09:40:38Z</time>
      </trkpt>
      <trkpt lat="45.86633" lon="6.41263">
        <ele>1583.91</ele>
        <time>2017-02-16T09:40:39Z</time>
      </trkpt>
      <trkpt lat="45.86631" lon="6.41263">
        <ele>1583.91</ele>
        <time>2017-02-16T09:40:40Z</time>
      </trkpt>
      <trkpt lat="45.86594" lon="6.41255">
        <ele>1581.03</ele>
        <time>2017-02-16T09:40:53Z</time>
      </trkpt>
      <trkpt lat="45.86587" lon="6.41256">
        <ele>1580.54</ele>
        <time>2017-02-16T09:40:55Z</time>
      </trkpt>
      <trkpt lat="45.86583" lon="6.41259">
        <ele>1580.06</ele>
        <time>2017-02-16T09:40:56Z</time>
      </trkpt>
      <trkpt lat="45.86578" lon="6.41263">
        <ele>1579.58</ele>
        <time>2017-02-16T09:40:57Z</time>
      </trkpt>
      <trkpt lat="45.86574" lon="6.41265">
        <ele>1578.62</ele>
        <time>2017-02-16T09:40:58Z</time>
      </trkpt>
      <trkpt lat="45.86569" lon="6.41265">
        <ele>1578.62</ele>
        <time>2017-02-16T09:40:59Z</time>
      </trkpt>
      <trkpt lat="45.86564" lon="6.41264">
        <ele>1577.66</ele>
        <time>2017-02-16T09:41:00Z</time>
      </trkpt>
      <trkpt lat="45.86559" lon="6.41261">
        <ele>1577.66</ele>
        <time>2017-02-16T09:41:01Z</time>
      </trkpt>
      <trkpt lat="45.86556" lon="6.41258">
        <ele>1577.18</ele>
        <time>2017-02-16T09:41:02Z</time>
      </trkpt>
      <trkpt lat="45.86553" lon="6.41254">
        <ele>1576.22</ele>
        <time>2017-02-16T09:41:03Z</time>
      </trkpt>
      <trkpt lat="45.8655" lon="6.41251">
        <ele>1575.74</ele>
        <time>2017-02-16T09:41:04Z</time>
      </trkpt>
      <trkpt lat="45.86546" lon="6.41248">
        <ele>1575.74</ele>
        <time>2017-02-16T09:41:05Z</time>
      </trkpt>
      <trkpt lat="45.86541" lon="6.41246">
        <ele>1574.78</ele>
        <time>2017-02-16T09:41:06Z</time>
      </trkpt>
      <trkpt lat="45.86536" lon="6.41246">
        <ele>1574.3</ele>
        <time>2017-02-16T09:41:07Z</time>
      </trkpt>
      <trkpt lat="45.86532" lon="6.41247">
        <ele>1574.3</ele>
        <time>2017-02-16T09:41:08Z</time>
      </trkpt>
      <trkpt lat="45.86528" lon="6.41248">
        <ele>1574.3</ele>
        <time>2017-02-16T09:41:09Z</time>
      </trkpt>
      <trkpt lat="45.86523" lon="6.41248">
        <ele>1572.85</ele>
        <time>2017-02-16T09:41:10Z</time>
      </trkpt>
      <trkpt lat="45.86519" lon="6.41247">
        <ele>1571.41</ele>
        <time>2017-02-16T09:41:11Z</time>
      </trkpt>
      <trkpt lat="45.86513" lon="6.41245">
        <ele>1571.41</ele>
        <time>2017-02-16T09:41:12Z</time>
      </trkpt>
      <trkpt lat="45.86507" lon="6.41243">
        <ele>1569.49</ele>
        <time>2017-02-16T09:41:13Z</time>
      </trkpt>
      <trkpt lat="45.86501" lon="6.41243">
        <ele>1568.05</ele>
        <time>2017-02-16T09:41:14Z</time>
      </trkpt>
      <trkpt lat="45.86493" lon="6.41243">
        <ele>1566.61</ele>
        <time>2017-02-16T09:41:15Z</time>
      </trkpt>
      <trkpt lat="45.86485" lon="6.41243">
        <ele>1564.2</ele>
        <time>2017-02-16T09:41:16Z</time>
      </trkpt>
      <trkpt lat="45.86477" lon="6.41241">
        <ele>1562.76</ele>
        <time>2017-02-16T09:41:17Z</time>
      </trkpt>
      <trkpt lat="45.8647" lon="6.41239">
        <ele>1562.76</ele>
        <time>2017-02-16T09:41:18Z</time>
      </trkpt>
      <trkpt lat="45.86464" lon="6.41238">
        <ele>1562.76</ele>
        <time>2017-02-16T09:41:19Z</time>
      </trkpt>
      <trkpt lat="45.86458" lon="6.41239">
        <ele>1562.76</ele>
        <time>2017-02-16T09:41:20Z</time>
      </trkpt>
      <trkpt lat="45.86446" lon="6.41242">
        <ele>1559.88</ele>
        <time>2017-02-16T09:41:22Z</time>
      </trkpt>
      <trkpt lat="45.8644" lon="6.41246">
        <ele>1558.92</ele>
        <time>2017-02-16T09:41:23Z</time>
      </trkpt>
      <trkpt lat="45.86417" lon="6.4126">
        <ele>1555.55</ele>
        <time>2017-02-16T09:41:26Z</time>
      </trkpt>
      <trkpt lat="45.8641" lon="6.41265">
        <ele>1552.19</ele>
        <time>2017-02-16T09:41:27Z</time>
      </trkpt>
      <trkpt lat="45.86405" lon="6.41271">
        <ele>1552.19</ele>
        <time>2017-02-16T09:41:28Z</time>
      </trkpt>
      <trkpt lat="45.86401" lon="6.41276">
        <ele>1552.67</ele>
        <time>2017-02-16T09:41:29Z</time>
      </trkpt>
      <trkpt lat="45.86398" lon="6.41281">
        <ele>1552.67</ele>
        <time>2017-02-16T09:41:30Z</time>
      </trkpt>
      <trkpt lat="45.86396" lon="6.41284">
        <ele>1552.67</ele>
        <time>2017-02-16T09:41:31Z</time>
      </trkpt>
      <trkpt lat="45.86389" lon="6.41294">
        <ele>1552.67</ele>
        <time>2017-02-16T09:41:39Z</time>
      </trkpt>
      <trkpt lat="45.86377" lon="6.41298">
        <ele>1549.78</ele>
        <time>2017-02-16T09:41:43Z</time>
      </trkpt>
      <trkpt lat="45.86367" lon="6.41312">
        <ele>1546.42</ele>
        <time>2017-02-16T09:41:46Z</time>
      </trkpt>
      <trkpt lat="45.86357" lon="6.41321">
        <ele>1541.13</ele>
        <time>2017-02-16T09:41:48Z</time>
      </trkpt>
      <trkpt lat="45.86351" lon="6.41333">
        <ele>1539.69</ele>
        <time>2017-02-16T09:41:50Z</time>
      </trkpt>
      <trkpt lat="45.86343" lon="6.4134">
        <ele>1534.4</ele>
        <time>2017-02-16T09:41:52Z</time>
      </trkpt>
      <trkpt lat="45.86339" lon="6.41344">
        <ele>1532.48</ele>
        <time>2017-02-16T09:41:53Z</time>
      </trkpt>
      <trkpt lat="45.86336" lon="6.41351">
        <ele>1531.04</ele>
        <time>2017-02-16T09:41:54Z</time>
      </trkpt>
      <trkpt lat="45.86331" lon="6.41357">
        <ele>1530.08</ele>
        <time>2017-02-16T09:41:55Z</time>
      </trkpt>
      <trkpt lat="45.86326" lon="6.41362">
        <ele>1527.67</ele>
        <time>2017-02-16T09:41:56Z</time>
      </trkpt>
      <trkpt lat="45.86321" lon="6.41367">
        <ele>1525.27</ele>
        <time>2017-02-16T09:41:57Z</time>
      </trkpt>
      <trkpt lat="45.86316" lon="6.41371">
        <ele>1525.27</ele>
        <time>2017-02-16T09:41:58Z</time>
      </trkpt>
      <trkpt lat="45.86311" lon="6.41374">
        <ele>1523.83</ele>
        <time>2017-02-16T09:41:59Z</time>
      </trkpt>
      <trkpt lat="45.86308" lon="6.41378">
        <ele>1523.35</ele>
        <time>2017-02-16T09:42:00Z</time>
      </trkpt>
      <trkpt lat="45.86305" lon="6.4138">
        <ele>1523.35</ele>
        <time>2017-02-16T09:42:01Z</time>
      </trkpt>
      <trkpt lat="45.86304" lon="6.41382">
        <ele>1522.87</ele>
        <time>2017-02-16T09:42:02Z</time>
      </trkpt>
      <trkpt lat="45.86304" lon="6.41384">
        <ele>1524.31</ele>
        <time>2017-02-16T09:42:05Z</time>
      </trkpt>
      <trkpt lat="45.86302" lon="6.41387">
        <ele>1523.83</ele>
        <time>2017-02-16T09:42:09Z</time>
      </trkpt>
      <trkpt lat="45.863" lon="6.41389">
        <ele>1523.35</ele>
        <time>2017-02-16T09:42:10Z</time>
      </trkpt>
      <trkpt lat="45.86297" lon="6.41393">
        <ele>1521.9</ele>
        <time>2017-02-16T09:42:11Z</time>
      </trkpt>
      <trkpt lat="45.86292" lon="6.41399">
        <ele>1518.54</ele>
        <time>2017-02-16T09:42:12Z</time>
      </trkpt>
      <trkpt lat="45.86283" lon="6.4141">
        <ele>1514.21</ele>
        <time>2017-02-16T09:42:13Z</time>
      </trkpt>
      <trkpt lat="45.86275" lon="6.41419">
        <ele>1508.93</ele>
        <time>2017-02-16T09:42:14Z</time>
      </trkpt>
      <trkpt lat="45.86266" lon="6.41427">
        <ele>1504.12</ele>
        <time>2017-02-16T09:42:15Z</time>
      </trkpt>
      <trkpt lat="45.86245" lon="6.41447">
        <ele>1500.76</ele>
        <time>2017-02-16T09:42:17Z</time>
      </trkpt>
      <trkpt lat="45.86215" lon="6.41473">
        <ele>1497.39</ele>
        <time>2017-02-16T09:42:20Z</time>
      </trkpt>
      <trkpt lat="45.86195" lon="6.41491">
        <ele>1494.51</ele>
        <time>2017-02-16T09:42:22Z</time>
      </trkpt>
      <trkpt lat="45.8617" lon="6.41531">
        <ele>1491.14</ele>
        <time>2017-02-16T09:42:26Z</time>
      </trkpt>
      <trkpt lat="45.86156" lon="6.41563">
        <ele>1490.18</ele>
        <time>2017-02-16T09:42:29Z</time>
      </trkpt>
      <trkpt lat="45.86141" lon="6.41576">
        <ele>1488.26</ele>
        <time>2017-02-16T09:42:31Z</time>
      </trkpt>
      <trkpt lat="45.86118" lon="6.41561">
        <ele>1489.7</ele>
        <time>2017-02-16T09:42:36Z</time>
      </trkpt>
      <trkpt lat="45.86115" lon="6.41555">
        <ele>1489.7</ele>
        <time>2017-02-16T09:42:37Z</time>
      </trkpt>
      <trkpt lat="45.86113" lon="6.4155">
        <ele>1488.26</ele>
        <time>2017-02-16T09:42:38Z</time>
      </trkpt>
      <trkpt lat="45.86081" lon="6.41484">
        <ele>1485.37</ele>
        <time>2017-02-16T09:42:48Z</time>
      </trkpt>
      <trkpt lat="45.86071" lon="6.41477">
        <ele>1485.37</ele>
        <time>2017-02-16T09:42:55Z</time>
      </trkpt>
      <trkpt lat="45.86076" lon="6.41482">
        <ele>1485.37</ele>
        <time>2017-02-16T09:43:07Z</time>
      </trkpt>
      <trkpt lat="45.86075" lon="6.4148">
        <ele>1485.37</ele>
        <time>2017-02-16T09:43:25Z</time>
      </trkpt>
      <trkpt lat="45.86078" lon="6.41484">
        <ele>1485.37</ele>
        <time>2017-02-16T09:43:40Z</time>
      </trkpt>
      <trkpt lat="45.86083" lon="6.41485">
        <ele>1485.37</ele>
        <time>2017-02-16T09:43:55Z</time>
      </trkpt>
      <trkpt lat="45.86085" lon="6.41487">
        <ele>1485.37</ele>
        <time>2017-02-16T09:44:16Z</time>
      </trkpt>
      <trkpt lat="45.86086" lon="6.4149">
        <ele>1485.37</ele>
        <time>2017-02-16T09:44:25Z</time>
      </trkpt>
      <trkpt lat="45.86097" lon="6.4151">
        <ele>1486.82</ele>
        <time>2017-02-16T09:44:42Z</time>
      </trkpt>
      <trkpt lat="45.86105" lon="6.4153">
        <ele>1487.3</ele>
        <time>2017-02-16T09:44:57Z</time>
      </trkpt>
      <trkpt lat="45.86106" lon="6.41532">
        <ele>1487.3</ele>
        <time>2017-02-16T09:44:58Z</time>
      </trkpt>
      <trkpt lat="45.86108" lon="6.41538">
        <ele>1487.3</ele>
        <time>2017-02-16T09:45:06Z</time>
      </trkpt>
      <trkpt lat="45.86112" lon="6.41552">
        <ele>1488.74</ele>
        <time>2017-02-16T09:45:18Z</time>
      </trkpt>
      <trkpt lat="45.86119" lon="6.41569">
        <ele>1489.7</ele>
        <time>2017-02-16T09:45:33Z</time>
      </trkpt>
      <trkpt lat="45.86129" lon="6.41578">
        <ele>1490.18</ele>
        <time>2017-02-16T09:45:48Z</time>
      </trkpt>
      <trkpt lat="45.86123" lon="6.41571">
        <ele>1490.18</ele>
        <time>2017-02-16T09:46:03Z</time>
      </trkpt>
      <trkpt lat="45.86124" lon="6.41569">
        <ele>1490.18</ele>
        <time>2017-02-16T09:46:16Z</time>
      </trkpt>
      <trkpt lat="45.86123" lon="6.41564">
        <ele>1490.18</ele>
        <time>2017-02-16T09:46:32Z</time>
      </trkpt>
      <trkpt lat="45.86122" lon="6.4156">
        <ele>1490.18</ele>
        <time>2017-02-16T09:46:46Z</time>
      </trkpt>
      <trkpt lat="45.86124" lon="6.41563">
        <ele>1490.18</ele>
        <time>2017-02-16T09:47:02Z</time>
      </trkpt>
      <trkpt lat="45.86127" lon="6.41561">
        <ele>1490.18</ele>
        <time>2017-02-16T09:47:25Z</time>
      </trkpt>
      <trkpt lat="45.86128" lon="6.4156">
        <ele>1486.82</ele>
        <time>2017-02-16T09:47:43Z</time>
      </trkpt>
      <trkpt lat="45.86128" lon="6.4156">
        <ele>1492.1</ele>
        <time>2017-02-16T09:47:44Z</time>
      </trkpt>
      <trkpt lat="45.86128" lon="6.41559">
        <ele>1489.7</ele>
        <time>2017-02-16T09:47:53Z</time>
      </trkpt>
      <trkpt lat="45.8613" lon="6.41557">
        <ele>1489.7</ele>
        <time>2017-02-16T09:48:12Z</time>
      </trkpt>
      <trkpt lat="45.86136" lon="6.41551">
        <ele>1489.7</ele>
        <time>2017-02-16T09:48:30Z</time>
      </trkpt>
      <trkpt lat="45.86141" lon="6.41544">
        <ele>1489.7</ele>
        <time>2017-02-16T09:48:50Z</time>
      </trkpt>
      <trkpt lat="45.86143" lon="6.41542">
        <ele>1489.7</ele>
        <time>2017-02-16T09:48:54Z</time>
      </trkpt>
      <trkpt lat="45.86156" lon="6.41525">
        <ele>1493.06</ele>
        <time>2017-02-16T09:49:03Z</time>
      </trkpt>
      <trkpt lat="45.86157" lon="6.41523">
        <ele>1493.55</ele>
        <time>2017-02-16T09:49:04Z</time>
      </trkpt>
      <trkpt lat="45.86161" lon="6.41517">
        <ele>1496.91</ele>
        <time>2017-02-16T09:49:07Z</time>
      </trkpt>
      <trkpt lat="45.86167" lon="6.41509">
        <ele>1500.76</ele>
        <time>2017-02-16T09:49:11Z</time>
      </trkpt>
      <trkpt lat="45.8617" lon="6.41504">
        <ele>1501.72</ele>
        <time>2017-02-16T09:49:13Z</time>
      </trkpt>
      <trkpt lat="45.86187" lon="6.41481">
        <ele>1504.6</ele>
        <time>2017-02-16T09:49:23Z</time>
      </trkpt>
      <trkpt lat="45.86198" lon="6.41467">
        <ele>1507.97</ele>
        <time>2017-02-16T09:49:30Z</time>
      </trkpt>
      <trkpt lat="45.86208" lon="6.41454">
        <ele>1511.33</ele>
        <time>2017-02-16T09:49:36Z</time>
      </trkpt>
      <trkpt lat="45.86228" lon="6.4143">
        <ele>1514.69</ele>
        <time>2017-02-16T09:49:47Z</time>
      </trkpt>
      <trkpt lat="45.86247" lon="6.41403">
        <ele>1518.06</ele>
        <time>2017-02-16T09:49:59Z</time>
      </trkpt>
      <trkpt lat="45.86262" lon="6.41384">
        <ele>1520.94</ele>
        <time>2017-02-16T09:50:08Z</time>
      </trkpt>
      <trkpt lat="45.86271" lon="6.41371">
        <ele>1524.31</ele>
        <time>2017-02-16T09:50:14Z</time>
      </trkpt>
      <trkpt lat="45.86279" lon="6.41361">
        <ele>1527.19</ele>
        <time>2017-02-16T09:50:19Z</time>
      </trkpt>
      <trkpt lat="45.86287" lon="6.41351">
        <ele>1530.56</ele>
        <time>2017-02-16T09:50:24Z</time>
      </trkpt>
      <trkpt lat="45.86296" lon="6.41341">
        <ele>1533.92</ele>
        <time>2017-02-16T09:50:29Z</time>
      </trkpt>
      <trkpt lat="45.86302" lon="6.41333">
        <ele>1536.8</ele>
        <time>2017-02-16T09:50:33Z</time>
      </trkpt>
      <trkpt lat="45.86308" lon="6.41325">
        <ele>1540.17</ele>
        <time>2017-02-16T09:50:37Z</time>
      </trkpt>
      <trkpt lat="45.86312" lon="6.41321">
        <ele>1540.65</ele>
        <time>2017-02-16T09:50:39Z</time>
      </trkpt>
      <trkpt lat="45.86326" lon="6.41301">
        <ele>1544.01</ele>
        <time>2017-02-16T09:50:48Z</time>
      </trkpt>
      <trkpt lat="45.86339" lon="6.41284">
        <ele>1546.9</ele>
        <time>2017-02-16T09:50:56Z</time>
      </trkpt>
      <trkpt lat="45.86349" lon="6.41271">
        <ele>1550.26</ele>
        <time>2017-02-16T09:51:02Z</time>
      </trkpt>
      <trkpt lat="45.86359" lon="6.41259">
        <ele>1553.63</ele>
        <time>2017-02-16T09:51:08Z</time>
      </trkpt>
      <trkpt lat="45.86369" lon="6.41247">
        <ele>1556.51</ele>
        <time>2017-02-16T09:51:14Z</time>
      </trkpt>
      <trkpt lat="45.86401" lon="6.41202">
        <ele>1559.4</ele>
        <time>2017-02-16T09:51:34Z</time>
      </trkpt>
      <trkpt lat="45.86415" lon="6.41185">
        <ele>1562.76</ele>
        <time>2017-02-16T09:51:43Z</time>
      </trkpt>
      <trkpt lat="45.86428" lon="6.41169">
        <ele>1566.12</ele>
        <time>2017-02-16T09:51:51Z</time>
      </trkpt>
      <trkpt lat="45.86437" lon="6.41156">
        <ele>1569.49</ele>
        <time>2017-02-16T09:51:57Z</time>
      </trkpt>
      <trkpt lat="45.86447" lon="6.41144">
        <ele>1572.85</ele>
        <time>2017-02-16T09:52:03Z</time>
      </trkpt>
      <trkpt lat="45.86455" lon="6.41134">
        <ele>1576.22</ele>
        <time>2017-02-16T09:52:08Z</time>
      </trkpt>
      <trkpt lat="45.86464" lon="6.41123">
        <ele>1579.58</ele>
        <time>2017-02-16T09:52:14Z</time>
      </trkpt>
      <trkpt lat="45.86472" lon="6.41112">
        <ele>1582.47</ele>
        <time>2017-02-16T09:52:19Z</time>
      </trkpt>
      <trkpt lat="45.8648" lon="6.41102">
        <ele>1585.83</ele>
        <time>2017-02-16T09:52:24Z</time>
      </trkpt>
      <trkpt lat="45.86488" lon="6.41091">
        <ele>1589.68</ele>
        <time>2017-02-16T09:52:29Z</time>
      </trkpt>
      <trkpt lat="45.86495" lon="6.41082">
        <ele>1592.56</ele>
        <time>2017-02-16T09:52:33Z</time>
      </trkpt>
      <trkpt lat="45.86503" lon="6.41069">
        <ele>1596.41</ele>
        <time>2017-02-16T09:52:38Z</time>
      </trkpt>
      <trkpt lat="45.86509" lon="6.4106">
        <ele>1599.77</ele>
        <time>2017-02-16T09:52:42Z</time>
      </trkpt>
      <trkpt lat="45.86517" lon="6.41048">
        <ele>1603.14</ele>
        <time>2017-02-16T09:52:47Z</time>
      </trkpt>
      <trkpt lat="45.86525" lon="6.41038">
        <ele>1606.02</ele>
        <time>2017-02-16T09:52:52Z</time>
      </trkpt>
      <trkpt lat="45.86532" lon="6.41028">
        <ele>1609.38</ele>
        <time>2017-02-16T09:52:57Z</time>
      </trkpt>
      <trkpt lat="45.86537" lon="6.4102">
        <ele>1612.75</ele>
        <time>2017-02-16T09:53:01Z</time>
      </trkpt>
      <trkpt lat="45.86546" lon="6.41008">
        <ele>1616.11</ele>
        <time>2017-02-16T09:53:07Z</time>
      </trkpt>
      <trkpt lat="45.86556" lon="6.40995">
        <ele>1619</ele>
        <time>2017-02-16T09:53:13Z</time>
      </trkpt>
      <trkpt lat="45.86558" lon="6.40993">
        <ele>1619.48</ele>
        <time>2017-02-16T09:53:14Z</time>
      </trkpt>
      <trkpt lat="45.86566" lon="6.40982">
        <ele>1622.36</ele>
        <time>2017-02-16T09:53:19Z</time>
      </trkpt>
      <trkpt lat="45.86575" lon="6.40969">
        <ele>1626.21</ele>
        <time>2017-02-16T09:53:25Z</time>
      </trkpt>
      <trkpt lat="45.86583" lon="6.40959">
        <ele>1629.57</ele>
        <time>2017-02-16T09:53:30Z</time>
      </trkpt>
      <trkpt lat="45.8659" lon="6.40949">
        <ele>1633.42</ele>
        <time>2017-02-16T09:53:35Z</time>
      </trkpt>
      <trkpt lat="45.86604" lon="6.40933">
        <ele>1636.78</ele>
        <time>2017-02-16T09:53:42Z</time>
      </trkpt>
      <trkpt lat="45.86617" lon="6.40916">
        <ele>1640.15</ele>
        <time>2017-02-16T09:53:50Z</time>
      </trkpt>
      <trkpt lat="45.86619" lon="6.40914">
        <ele>1640.15</ele>
        <time>2017-02-16T09:53:51Z</time>
      </trkpt>
      <trkpt lat="45.86627" lon="6.40904">
        <ele>1643.03</ele>
        <time>2017-02-16T09:53:56Z</time>
      </trkpt>
      <trkpt lat="45.86629" lon="6.40902">
        <ele>1643.03</ele>
        <time>2017-02-16T09:53:57Z</time>
      </trkpt>
      <trkpt lat="45.86637" lon="6.40891">
        <ele>1646.4</ele>
        <time>2017-02-16T09:54:02Z</time>
      </trkpt>
      <trkpt lat="45.8664" lon="6.40887">
        <ele>1647.36</ele>
        <time>2017-02-16T09:54:04Z</time>
      </trkpt>
      <trkpt lat="45.86648" lon="6.40877">
        <ele>1651.2</ele>
        <time>2017-02-16T09:54:09Z</time>
      </trkpt>
      <trkpt lat="45.8665" lon="6.40876">
        <ele>1650.72</ele>
        <time>2017-02-16T09:54:10Z</time>
      </trkpt>
      <trkpt lat="45.86658" lon="6.40867">
        <ele>1653.12</ele>
        <time>2017-02-16T09:54:15Z</time>
      </trkpt>
      <trkpt lat="45.86675" lon="6.40845">
        <ele>1651.68</ele>
        <time>2017-02-16T09:54:23Z</time>
      </trkpt>
      <trkpt lat="45.86677" lon="6.40845">
        <ele>1651.68</ele>
        <time>2017-02-16T09:54:24Z</time>
      </trkpt>
      <trkpt lat="45.86679" lon="6.40847">
        <ele>1651.68</ele>
        <time>2017-02-16T09:54:25Z</time>
      </trkpt>
      <trkpt lat="45.86681" lon="6.40851">
        <ele>1651.68</ele>
        <time>2017-02-16T09:54:26Z</time>
      </trkpt>
      <trkpt lat="45.86681" lon="6.40855">
        <ele>1651.2</ele>
        <time>2017-02-16T09:54:27Z</time>
      </trkpt>
      <trkpt lat="45.86682" lon="6.40859">
        <ele>1650.72</ele>
        <time>2017-02-16T09:54:28Z</time>
      </trkpt>
      <trkpt lat="45.86683" lon="6.40863">
        <ele>1650.24</ele>
        <time>2017-02-16T09:54:29Z</time>
      </trkpt>
      <trkpt lat="45.86684" lon="6.40867">
        <ele>1650.24</ele>
        <time>2017-02-16T09:54:38Z</time>
      </trkpt>
      <trkpt lat="45.86686" lon="6.40869">
        <ele>1650.24</ele>
        <time>2017-02-16T09:54:44Z</time>
      </trkpt>
      <trkpt lat="45.86692" lon="6.40877">
        <ele>1649.28</ele>
        <time>2017-02-16T09:54:55Z</time>
      </trkpt>
      <trkpt lat="45.86693" lon="6.40875">
        <ele>1649.28</ele>
        <time>2017-02-16T09:54:57Z</time>
      </trkpt>
      <trkpt lat="45.86693" lon="6.40873">
        <ele>1649.28</ele>
        <time>2017-02-16T09:54:58Z</time>
      </trkpt>
      <trkpt lat="45.86693" lon="6.40871">
        <ele>1649.28</ele>
        <time>2017-02-16T09:55:00Z</time>
      </trkpt>
      <trkpt lat="45.86693" lon="6.40869">
        <ele>1649.28</ele>
        <time>2017-02-16T09:55:01Z</time>
      </trkpt>
      <trkpt lat="45.86692" lon="6.40867">
        <ele>1649.28</ele>
        <time>2017-02-16T09:55:02Z</time>
      </trkpt>
      <trkpt lat="45.86692" lon="6.40865">
        <ele>1649.28</ele>
        <time>2017-02-16T09:55:03Z</time>
      </trkpt>
      <trkpt lat="45.86693" lon="6.40863">
        <ele>1649.28</ele>
        <time>2017-02-16T09:55:04Z</time>
      </trkpt>
      <trkpt lat="45.86699" lon="6.40845">
        <ele>1650.72</ele>
        <time>2017-02-16T09:55:12Z</time>
      </trkpt>
      <trkpt lat="45.86699" lon="6.40842">
        <ele>1650.72</ele>
        <time>2017-02-16T09:55:25Z</time>
      </trkpt>
      <trkpt lat="45.86698" lon="6.40842">
        <ele>1650.72</ele>
        <time>2017-02-16T09:55:48Z</time>
      </trkpt>
      <trkpt lat="45.86696" lon="6.40844">
        <ele>1650.72</ele>
        <time>2017-02-16T09:56:08Z</time>
      </trkpt>
      <trkpt lat="45.86698" lon="6.4084">
        <ele>1650.72</ele>
        <time>2017-02-16T09:56:35Z</time>
      </trkpt>
      <trkpt lat="45.86695" lon="6.40844">
        <ele>1650.72</ele>
        <time>2017-02-16T09:57:02Z</time>
      </trkpt>
      <trkpt lat="45.86696" lon="6.40841">
        <ele>1651.2</ele>
        <time>2017-02-16T09:57:23Z</time>
      </trkpt>
      <trkpt lat="45.86696" lon="6.40843">
        <ele>1651.2</ele>
        <time>2017-02-16T09:57:48Z</time>
      </trkpt>
      <trkpt lat="45.86693" lon="6.40842">
        <ele>1651.2</ele>
        <time>2017-02-16T09:58:07Z</time>
      </trkpt>
      <trkpt lat="45.86695" lon="6.40838">
        <ele>1651.2</ele>
        <time>2017-02-16T09:58:22Z</time>
      </trkpt>
      <trkpt lat="45.86693" lon="6.40838">
        <ele>1650.72</ele>
        <time>2017-02-16T09:58:38Z</time>
      </trkpt>
      <trkpt lat="45.86692" lon="6.40838">
        <ele>1654.57</ele>
        <time>2017-02-16T09:58:39Z</time>
      </trkpt>
      <trkpt lat="45.86674" lon="6.40834">
        <ele>1651.68</ele>
        <time>2017-02-16T09:58:51Z</time>
      </trkpt>
      <trkpt lat="45.86638" lon="6.40833">
        <ele>1649.76</ele>
        <time>2017-02-16T09:59:04Z</time>
      </trkpt>
      <trkpt lat="45.86626" lon="6.40833">
        <ele>1648.32</ele>
        <time>2017-02-16T09:59:07Z</time>
      </trkpt>
      <trkpt lat="45.86621" lon="6.40832">
        <ele>1647.36</ele>
        <time>2017-02-16T09:59:08Z</time>
      </trkpt>
      <trkpt lat="45.86616" lon="6.4083">
        <ele>1646.4</ele>
        <time>2017-02-16T09:59:09Z</time>
      </trkpt>
      <trkpt lat="45.8661" lon="6.40828">
        <ele>1645.43</ele>
        <time>2017-02-16T09:59:10Z</time>
      </trkpt>
      <trkpt lat="45.86604" lon="6.40825">
        <ele>1644.47</ele>
        <time>2017-02-16T09:59:11Z</time>
      </trkpt>
      <trkpt lat="45.86599" lon="6.40821">
        <ele>1644.47</ele>
        <time>2017-02-16T09:59:12Z</time>
      </trkpt>
      <trkpt lat="45.86581" lon="6.40811">
        <ele>1645.91</ele>
        <time>2017-02-16T09:59:17Z</time>
      </trkpt>
      <trkpt lat="45.86578" lon="6.40809">
        <ele>1645.91</ele>
        <time>2017-02-16T09:59:19Z</time>
      </trkpt>
      <trkpt lat="45.86576" lon="6.40807">
        <ele>1645.91</ele>
        <time>2017-02-16T09:59:20Z</time>
      </trkpt>
      <trkpt lat="45.86574" lon="6.40806">
        <ele>1645.91</ele>
        <time>2017-02-16T09:59:21Z</time>
      </trkpt>
      <trkpt lat="45.86572" lon="6.40804">
        <ele>1645.91</ele>
        <time>2017-02-16T09:59:22Z</time>
      </trkpt>
      <trkpt lat="45.8657" lon="6.40803">
        <ele>1645.91</ele>
        <time>2017-02-16T09:59:23Z</time>
      </trkpt>
      <trkpt lat="45.86545" lon="6.40787">
        <ele>1646.88</ele>
        <time>2017-02-16T09:59:35Z</time>
      </trkpt>
      <trkpt lat="45.86541" lon="6.40786">
        <ele>1646.88</ele>
        <time>2017-02-16T09:59:37Z</time>
      </trkpt>
      <trkpt lat="45.86539" lon="6.40785">
        <ele>1646.88</ele>
        <time>2017-02-16T09:59:38Z</time>
      </trkpt>
      <trkpt lat="45.86521" lon="6.40776">
        <ele>1647.36</ele>
        <time>2017-02-16T09:59:48Z</time>
      </trkpt>
      <trkpt lat="45.86504" lon="6.40775">
        <ele>1647.36</ele>
        <time>2017-02-16T09:59:57Z</time>
      </trkpt>
      <trkpt lat="45.86502" lon="6.40775">
        <ele>1647.36</ele>
        <time>2017-02-16T09:59:59Z</time>
      </trkpt>
      <trkpt lat="45.86501" lon="6.40775">
        <ele>1647.36</ele>
        <time>2017-02-16T10:00:00Z</time>
      </trkpt>
      <trkpt lat="45.86497" lon="6.40775">
        <ele>1647.36</ele>
        <time>2017-02-16T10:00:03Z</time>
      </trkpt>
      <trkpt lat="45.86496" lon="6.40775">
        <ele>1647.84</ele>
        <time>2017-02-16T10:00:04Z</time>
      </trkpt>
      <trkpt lat="45.86483" lon="6.40773">
        <ele>1646.4</ele>
        <time>2017-02-16T10:00:10Z</time>
      </trkpt>
      <trkpt lat="45.86482" lon="6.40772">
        <ele>1645.43</ele>
        <time>2017-02-16T10:00:21Z</time>
      </trkpt>
      <trkpt lat="45.86482" lon="6.40772">
        <ele>1645.43</ele>
        <time>2017-02-16T10:00:43Z</time>
      </trkpt>
      <trkpt lat="45.86481" lon="6.40773">
        <ele>1646.4</ele>
        <time>2017-02-16T10:00:46Z</time>
      </trkpt>
      <trkpt lat="45.86478" lon="6.40774">
        <ele>1644.47</ele>
        <time>2017-02-16T10:00:48Z</time>
      </trkpt>
      <trkpt lat="45.86474" lon="6.40774">
        <ele>1644.47</ele>
        <time>2017-02-16T10:00:49Z</time>
      </trkpt>
      <trkpt lat="45.86468" lon="6.40774">
        <ele>1643.03</ele>
        <time>2017-02-16T10:00:51Z</time>
      </trkpt>
      <trkpt lat="45.86468" lon="6.40775">
        <ele>1643.03</ele>
        <time>2017-02-16T10:01:02Z</time>
      </trkpt>
      <trkpt lat="45.86457" lon="6.40769">
        <ele>1640.63</ele>
        <time>2017-02-16T10:01:07Z</time>
      </trkpt>
      <trkpt lat="45.86437" lon="6.40773">
        <ele>1634.86</ele>
        <time>2017-02-16T10:01:11Z</time>
      </trkpt>
      <trkpt lat="45.86431" lon="6.40773">
        <ele>1633.42</ele>
        <time>2017-02-16T10:01:12Z</time>
      </trkpt>
      <trkpt lat="45.86399" lon="6.4077">
        <ele>1625.25</ele>
        <time>2017-02-16T10:01:20Z</time>
      </trkpt>
      <trkpt lat="45.86396" lon="6.4077">
        <ele>1624.77</ele>
        <time>2017-02-16T10:01:22Z</time>
      </trkpt>
      <trkpt lat="45.86395" lon="6.40774">
        <ele>1624.28</ele>
        <time>2017-02-16T10:01:33Z</time>
      </trkpt>
      <trkpt lat="45.86386" lon="6.40782">
        <ele>1621.88</ele>
        <time>2017-02-16T10:01:38Z</time>
      </trkpt>
      <trkpt lat="45.86373" lon="6.40772">
        <ele>1617.56</ele>
        <time>2017-02-16T10:01:42Z</time>
      </trkpt>
      <trkpt lat="45.86361" lon="6.40781">
        <ele>1614.67</ele>
        <time>2017-02-16T10:01:45Z</time>
      </trkpt>
      <trkpt lat="45.8635" lon="6.40778">
        <ele>1609.86</ele>
        <time>2017-02-16T10:01:47Z</time>
      </trkpt>
      <trkpt lat="45.86343" lon="6.40778">
        <ele>1605.06</ele>
        <time>2017-02-16T10:01:48Z</time>
      </trkpt>
      <trkpt lat="45.86326" lon="6.4078">
        <ele>1596.41</ele>
        <time>2017-02-16T10:01:50Z</time>
      </trkpt>
      <trkpt lat="45.86316" lon="6.40781">
        <ele>1591.6</ele>
        <time>2017-02-16T10:01:51Z</time>
      </trkpt>
      <trkpt lat="45.86304" lon="6.40782">
        <ele>1585.83</ele>
        <time>2017-02-16T10:01:52Z</time>
      </trkpt>
      <trkpt lat="45.86291" lon="6.40783">
        <ele>1581.99</ele>
        <time>2017-02-16T10:01:53Z</time>
      </trkpt>
      <trkpt lat="45.86264" lon="6.40789">
        <ele>1574.3</ele>
        <time>2017-02-16T10:01:55Z</time>
      </trkpt>
      <trkpt lat="45.8625" lon="6.40794">
        <ele>1569.01</ele>
        <time>2017-02-16T10:01:56Z</time>
      </trkpt>
      <trkpt lat="45.86234" lon="6.40799">
        <ele>1565.16</ele>
        <time>2017-02-16T10:01:57Z</time>
      </trkpt>
      <trkpt lat="45.86194" lon="6.40818">
        <ele>1570.93</ele>
        <time>2017-02-16T10:02:00Z</time>
      </trkpt>
      <trkpt lat="45.86184" lon="6.40825">
        <ele>1574.3</ele>
        <time>2017-02-16T10:02:01Z</time>
      </trkpt>
      <trkpt lat="45.86174" lon="6.40832">
        <ele>1573.82</ele>
        <time>2017-02-16T10:02:02Z</time>
      </trkpt>
      <trkpt lat="45.86164" lon="6.40839">
        <ele>1573.82</ele>
        <time>2017-02-16T10:02:03Z</time>
      </trkpt>
      <trkpt lat="45.86147" lon="6.40849">
        <ele>1572.37</ele>
        <time>2017-02-16T10:02:05Z</time>
      </trkpt>
      <trkpt lat="45.86134" lon="6.4086">
        <ele>1577.18</ele>
        <time>2017-02-16T10:02:08Z</time>
      </trkpt>
      <trkpt lat="45.86133" lon="6.40862">
        <ele>1572.85</ele>
        <time>2017-02-16T10:02:09Z</time>
      </trkpt>
      <trkpt lat="45.86133" lon="6.40861">
        <ele>1576.7</ele>
        <time>2017-02-16T10:02:10Z</time>
      </trkpt>
      <trkpt lat="45.86132" lon="6.40862">
        <ele>1581.51</ele>
        <time>2017-02-16T10:02:11Z</time>
      </trkpt>
      <trkpt lat="45.86132" lon="6.40862">
        <ele>1577.66</ele>
        <time>2017-02-16T10:02:12Z</time>
      </trkpt>
      <trkpt lat="45.86128" lon="6.40865">
        <ele>1576.7</ele>
        <time>2017-02-16T10:02:16Z</time>
      </trkpt>
      <trkpt lat="45.86099" lon="6.40892">
        <ele>1573.82</ele>
        <time>2017-02-16T10:02:26Z</time>
      </trkpt>
      <trkpt lat="45.86064" lon="6.4092">
        <ele>1570.93</ele>
        <time>2017-02-16T10:02:34Z</time>
      </trkpt>
      <trkpt lat="45.86053" lon="6.40937">
        <ele>1569.97</ele>
        <time>2017-02-16T10:02:42Z</time>
      </trkpt>
      <trkpt lat="45.86048" lon="6.40949">
        <ele>1568.53</ele>
        <time>2017-02-16T10:02:53Z</time>
      </trkpt>
      <trkpt lat="45.86052" lon="6.40948">
        <ele>1568.05</ele>
        <time>2017-02-16T10:03:05Z</time>
      </trkpt>
      <trkpt lat="45.86053" lon="6.40945">
        <ele>1569.49</ele>
        <time>2017-02-16T10:03:14Z</time>
      </trkpt>
      <trkpt lat="45.86053" lon="6.40945">
        <ele>1569.49</ele>
        <time>2017-02-16T10:03:15Z</time>
      </trkpt>
      <trkpt lat="45.86053" lon="6.40946">
        <ele>1569.49</ele>
        <time>2017-02-16T10:03:18Z</time>
      </trkpt>
      <trkpt lat="45.86052" lon="6.40945">
        <ele>1568.05</ele>
        <time>2017-02-16T10:03:22Z</time>
      </trkpt>
      <trkpt lat="45.86053" lon="6.40946">
        <ele>1568.05</ele>
        <time>2017-02-16T10:03:25Z</time>
      </trkpt>
      <trkpt lat="45.86052" lon="6.40949">
        <ele>1567.57</ele>
        <time>2017-02-16T10:03:33Z</time>
      </trkpt>
      <trkpt lat="45.86052" lon="6.40949">
        <ele>1568.05</ele>
        <time>2017-02-16T10:03:44Z</time>
      </trkpt>
      <trkpt lat="45.86052" lon="6.4095">
        <ele>1568.05</ele>
        <time>2017-02-16T10:03:56Z</time>
      </trkpt>
      <trkpt lat="45.86052" lon="6.40948">
        <ele>1568.05</ele>
        <time>2017-02-16T10:04:16Z</time>
      </trkpt>
      <trkpt lat="45.86051" lon="6.40947">
        <ele>1568.53</ele>
        <time>2017-02-16T10:04:26Z</time>
      </trkpt>
      <trkpt lat="45.86052" lon="6.40947">
        <ele>1572.37</ele>
        <time>2017-02-16T10:04:28Z</time>
      </trkpt>
      <trkpt lat="45.86052" lon="6.40947">
        <ele>1569.01</ele>
        <time>2017-02-16T10:04:29Z</time>
      </trkpt>
      <trkpt lat="45.86048" lon="6.40952">
        <ele>1568.05</ele>
        <time>2017-02-16T10:04:43Z</time>
      </trkpt>
      <trkpt lat="45.86036" lon="6.40963">
        <ele>1564.2</ele>
        <time>2017-02-16T10:04:47Z</time>
      </trkpt>
      <trkpt lat="45.86031" lon="6.40968">
        <ele>1562.76</ele>
        <time>2017-02-16T10:04:48Z</time>
      </trkpt>
      <trkpt lat="45.86008" lon="6.40997">
        <ele>1555.07</ele>
        <time>2017-02-16T10:04:52Z</time>
      </trkpt>
      <trkpt lat="45.85995" lon="6.41013">
        <ele>1550.74</ele>
        <time>2017-02-16T10:04:54Z</time>
      </trkpt>
      <trkpt lat="45.85983" lon="6.41031">
        <ele>1548.82</ele>
        <time>2017-02-16T10:04:56Z</time>
      </trkpt>
      <trkpt lat="45.85983" lon="6.41053">
        <ele>1544.5</ele>
        <time>2017-02-16T10:04:58Z</time>
      </trkpt>
      <trkpt lat="45.85977" lon="6.41074">
        <ele>1540.17</ele>
        <time>2017-02-16T10:05:00Z</time>
      </trkpt>
      <trkpt lat="45.85969" lon="6.41095">
        <ele>1536.32</ele>
        <time>2017-02-16T10:05:02Z</time>
      </trkpt>
      <trkpt lat="45.8597" lon="6.41107">
        <ele>1532.96</ele>
        <time>2017-02-16T10:05:03Z</time>
      </trkpt>
      <trkpt lat="45.8596" lon="6.41144">
        <ele>1528.63</ele>
        <time>2017-02-16T10:05:07Z</time>
      </trkpt>
      <trkpt lat="45.85953" lon="6.41166">
        <ele>1525.75</ele>
        <time>2017-02-16T10:05:11Z</time>
      </trkpt>
      <trkpt lat="45.85957" lon="6.41177">
        <ele>1522.87</ele>
        <time>2017-02-16T10:05:13Z</time>
      </trkpt>
      <trkpt lat="45.85953" lon="6.41195">
        <ele>1521.42</ele>
        <time>2017-02-16T10:05:16Z</time>
      </trkpt>
      <trkpt lat="45.85941" lon="6.41223">
        <ele>1517.1</ele>
        <time>2017-02-16T10:05:22Z</time>
      </trkpt>
      <trkpt lat="45.8594" lon="6.41248">
        <ele>1512.77</ele>
        <time>2017-02-16T10:05:25Z</time>
      </trkpt>
      <trkpt lat="45.85932" lon="6.41261">
        <ele>1508.45</ele>
        <time>2017-02-16T10:05:27Z</time>
      </trkpt>
      <trkpt lat="45.85931" lon="6.41269">
        <ele>1508.93</ele>
        <time>2017-02-16T10:05:28Z</time>
      </trkpt>
      <trkpt lat="45.85932" lon="6.41279">
        <ele>1505.56</ele>
        <time>2017-02-16T10:05:29Z</time>
      </trkpt>
      <trkpt lat="45.85925" lon="6.41318">
        <ele>1495.47</ele>
        <time>2017-02-16T10:05:33Z</time>
      </trkpt>
      <trkpt lat="45.85921" lon="6.41341">
        <ele>1490.66</ele>
        <time>2017-02-16T10:05:35Z</time>
      </trkpt>
      <trkpt lat="45.85914" lon="6.41363">
        <ele>1485.37</ele>
        <time>2017-02-16T10:05:37Z</time>
      </trkpt>
      <trkpt lat="45.85902" lon="6.41395">
        <ele>1482.01</ele>
        <time>2017-02-16T10:05:40Z</time>
      </trkpt>
      <trkpt lat="45.85899" lon="6.41427">
        <ele>1480.57</ele>
        <time>2017-02-16T10:05:43Z</time>
      </trkpt>
      <trkpt lat="45.85892" lon="6.41468">
        <ele>1477.68</ele>
        <time>2017-02-16T10:05:47Z</time>
      </trkpt>
      <trkpt lat="45.85889" lon="6.41489">
        <ele>1475.76</ele>
        <time>2017-02-16T10:05:49Z</time>
      </trkpt>
      <trkpt lat="45.85879" lon="6.41542">
        <ele>1474.8</ele>
        <time>2017-02-16T10:05:56Z</time>
      </trkpt>
      <trkpt lat="45.85873" lon="6.41546">
        <ele>1473.36</ele>
        <time>2017-02-16T10:05:57Z</time>
      </trkpt>
      <trkpt lat="45.85852" lon="6.41558">
        <ele>1466.63</ele>
        <time>2017-02-16T10:06:00Z</time>
      </trkpt>
      <trkpt lat="45.85834" lon="6.41565">
        <ele>1464.71</ele>
        <time>2017-02-16T10:06:02Z</time>
      </trkpt>
      <trkpt lat="45.85826" lon="6.41566">
        <ele>1464.71</ele>
        <time>2017-02-16T10:06:03Z</time>
      </trkpt>
      <trkpt lat="45.85818" lon="6.41567">
        <ele>1466.15</ele>
        <time>2017-02-16T10:06:04Z</time>
      </trkpt>
      <trkpt lat="45.85805" lon="6.41565">
        <ele>1468.55</ele>
        <time>2017-02-16T10:06:06Z</time>
      </trkpt>
      <trkpt lat="45.85801" lon="6.41562">
        <ele>1469.51</ele>
        <time>2017-02-16T10:06:07Z</time>
      </trkpt>
      <trkpt lat="45.85797" lon="6.41558">
        <ele>1469.51</ele>
        <time>2017-02-16T10:06:08Z</time>
      </trkpt>
      <trkpt lat="45.85794" lon="6.41554">
        <ele>1469.99</ele>
        <time>2017-02-16T10:06:09Z</time>
      </trkpt>
      <trkpt lat="45.85792" lon="6.4155">
        <ele>1469.99</ele>
        <time>2017-02-16T10:06:10Z</time>
      </trkpt>
      <trkpt lat="45.8579" lon="6.41546">
        <ele>1469.99</ele>
        <time>2017-02-16T10:06:11Z</time>
      </trkpt>
      <trkpt lat="45.85789" lon="6.41542">
        <ele>1469.99</ele>
        <time>2017-02-16T10:06:12Z</time>
      </trkpt>
      <trkpt lat="45.85783" lon="6.4152">
        <ele>1470.95</ele>
        <time>2017-02-16T10:06:22Z</time>
      </trkpt>
      <trkpt lat="45.8578" lon="6.41512">
        <ele>1470.95</ele>
        <time>2017-02-16T10:06:33Z</time>
      </trkpt>
      <trkpt lat="45.85777" lon="6.41512">
        <ele>1470.95</ele>
        <time>2017-02-16T10:06:47Z</time>
      </trkpt>
      <trkpt lat="45.85775" lon="6.41514">
        <ele>1471.44</ele>
        <time>2017-02-16T10:07:05Z</time>
      </trkpt>
      <trkpt lat="45.85775" lon="6.41514">
        <ele>1470.95</ele>
        <time>2017-02-16T10:07:29Z</time>
      </trkpt>
      <trkpt lat="45.85775" lon="6.41514">
        <ele>1470.95</ele>
        <time>2017-02-16T10:07:47Z</time>
      </trkpt>
      <trkpt lat="45.85775" lon="6.41515">
        <ele>1471.44</ele>
        <time>2017-02-16T10:08:06Z</time>
      </trkpt>
      <trkpt lat="45.85775" lon="6.41515">
        <ele>1471.44</ele>
        <time>2017-02-16T10:08:29Z</time>
      </trkpt>
      <trkpt lat="45.85775" lon="6.41515">
        <ele>1471.44</ele>
        <time>2017-02-16T10:08:49Z</time>
      </trkpt>
      <trkpt lat="45.85774" lon="6.41515">
        <ele>1471.44</ele>
        <time>2017-02-16T10:09:08Z</time>
      </trkpt>
      <trkpt lat="45.85773" lon="6.41515">
        <ele>1471.44</ele>
        <time>2017-02-16T10:09:31Z</time>
      </trkpt>
      <trkpt lat="45.85774" lon="6.41515">
        <ele>1471.44</ele>
        <time>2017-02-16T10:09:49Z</time>
      </trkpt>
      <trkpt lat="45.85774" lon="6.41516">
        <ele>1471.44</ele>
        <time>2017-02-16T10:10:09Z</time>
      </trkpt>
      <trkpt lat="45.85772" lon="6.41518">
        <ele>1471.44</ele>
        <time>2017-02-16T10:10:30Z</time>
      </trkpt>
      <trkpt lat="45.85771" lon="6.41518">
        <ele>1471.44</ele>
        <time>2017-02-16T10:10:45Z</time>
      </trkpt>
      <trkpt lat="45.8577" lon="6.41518">
        <ele>1470.95</ele>
        <time>2017-02-16T10:10:59Z</time>
      </trkpt>
      <trkpt lat="45.8577" lon="6.41517">
        <ele>1470.95</ele>
        <time>2017-02-16T10:11:13Z</time>
      </trkpt>
      <trkpt lat="45.85769" lon="6.4152">
        <ele>1470.95</ele>
        <time>2017-02-16T10:11:30Z</time>
      </trkpt>
      <trkpt lat="45.85768" lon="6.41523">
        <ele>1470.95</ele>
        <time>2017-02-16T10:11:42Z</time>
      </trkpt>
      <trkpt lat="45.85767" lon="6.41526">
        <ele>1470.95</ele>
        <time>2017-02-16T10:12:01Z</time>
      </trkpt>
      <trkpt lat="45.85769" lon="6.41525">
        <ele>1470.95</ele>
        <time>2017-02-16T10:12:24Z</time>
      </trkpt>
      <trkpt lat="45.8577" lon="6.41525">
        <ele>1470.95</ele>
        <time>2017-02-16T10:12:48Z</time>
      </trkpt>
      <trkpt lat="45.8577" lon="6.41526">
        <ele>1470.95</ele>
        <time>2017-02-16T10:13:04Z</time>
      </trkpt>
      <trkpt lat="45.85771" lon="6.41527">
        <ele>1470.95</ele>
        <time>2017-02-16T10:13:19Z</time>
      </trkpt>
      <trkpt lat="45.8577" lon="6.4153">
        <ele>1470.95</ele>
        <time>2017-02-16T10:13:40Z</time>
      </trkpt>
      <trkpt lat="45.8577" lon="6.41534">
        <ele>1470.95</ele>
        <time>2017-02-16T10:14:02Z</time>
      </trkpt>
      <trkpt lat="45.8577" lon="6.41539">
        <ele>1470.95</ele>
        <time>2017-02-16T10:14:16Z</time>
      </trkpt>
      <trkpt lat="45.85771" lon="6.41541">
        <ele>1470.95</ele>
        <time>2017-02-16T10:14:28Z</time>
      </trkpt>
      <trkpt lat="45.85771" lon="6.41557">
        <ele>1470.47</ele>
        <time>2017-02-16T10:14:31Z</time>
      </trkpt>
      <trkpt lat="45.85769" lon="6.41577">
        <ele>1473.84</ele>
        <time>2017-02-16T10:14:36Z</time>
      </trkpt>
      <trkpt lat="45.85768" lon="6.41591">
        <ele>1478.16</ele>
        <time>2017-02-16T10:14:39Z</time>
      </trkpt>
      <trkpt lat="45.85767" lon="6.41604">
        <ele>1482.01</ele>
        <time>2017-02-16T10:14:42Z</time>
      </trkpt>
      <trkpt lat="45.85766" lon="6.41617">
        <ele>1485.85</ele>
        <time>2017-02-16T10:14:45Z</time>
      </trkpt>
      <trkpt lat="45.85765" lon="6.4163">
        <ele>1490.18</ele>
        <time>2017-02-16T10:14:48Z</time>
      </trkpt>
      <trkpt lat="45.85764" lon="6.41642">
        <ele>1494.03</ele>
        <time>2017-02-16T10:14:51Z</time>
      </trkpt>
      <trkpt lat="45.85764" lon="6.41649">
        <ele>1497.39</ele>
        <time>2017-02-16T10:14:53Z</time>
      </trkpt>
      <trkpt lat="45.85764" lon="6.41661">
        <ele>1501.24</ele>
        <time>2017-02-16T10:14:56Z</time>
      </trkpt>
      <trkpt lat="45.85763" lon="6.4167">
        <ele>1504.6</ele>
        <time>2017-02-16T10:14:58Z</time>
      </trkpt>
      <trkpt lat="45.85763" lon="6.41682">
        <ele>1508.45</ele>
        <time>2017-02-16T10:15:01Z</time>
      </trkpt>
      <trkpt lat="45.85762" lon="6.41694">
        <ele>1511.81</ele>
        <time>2017-02-16T10:15:04Z</time>
      </trkpt>
      <trkpt lat="45.85762" lon="6.41707">
        <ele>1515.18</ele>
        <time>2017-02-16T10:15:07Z</time>
      </trkpt>
      <trkpt lat="45.85761" lon="6.4172">
        <ele>1519.02</ele>
        <time>2017-02-16T10:15:10Z</time>
      </trkpt>
      <trkpt lat="45.8576" lon="6.41733">
        <ele>1522.39</ele>
        <time>2017-02-16T10:15:13Z</time>
      </trkpt>
      <trkpt lat="45.85759" lon="6.41747">
        <ele>1525.75</ele>
        <time>2017-02-16T10:15:16Z</time>
      </trkpt>
      <trkpt lat="45.85759" lon="6.4176">
        <ele>1530.08</ele>
        <time>2017-02-16T10:15:19Z</time>
      </trkpt>
      <trkpt lat="45.85758" lon="6.41774">
        <ele>1533.44</ele>
        <time>2017-02-16T10:15:22Z</time>
      </trkpt>
      <trkpt lat="45.85757" lon="6.41793">
        <ele>1537.29</ele>
        <time>2017-02-16T10:15:26Z</time>
      </trkpt>
      <trkpt lat="45.85756" lon="6.41805">
        <ele>1541.61</ele>
        <time>2017-02-16T10:15:29Z</time>
      </trkpt>
      <trkpt lat="45.85756" lon="6.41818">
        <ele>1545.94</ele>
        <time>2017-02-16T10:15:32Z</time>
      </trkpt>
      <trkpt lat="45.85755" lon="6.41826">
        <ele>1549.3</ele>
        <time>2017-02-16T10:15:34Z</time>
      </trkpt>
      <trkpt lat="45.85755" lon="6.41833">
        <ele>1550.26</ele>
        <time>2017-02-16T10:15:36Z</time>
      </trkpt>
      <trkpt lat="45.85755" lon="6.41837">
        <ele>1553.15</ele>
        <time>2017-02-16T10:15:37Z</time>
      </trkpt>
      <trkpt lat="45.85755" lon="6.41841">
        <ele>1553.15</ele>
        <time>2017-02-16T10:15:38Z</time>
      </trkpt>
      <trkpt lat="45.85753" lon="6.4186">
        <ele>1557.47</ele>
        <time>2017-02-16T10:15:42Z</time>
      </trkpt>
      <trkpt lat="45.85752" lon="6.41878">
        <ele>1561.32</ele>
        <time>2017-02-16T10:15:46Z</time>
      </trkpt>
      <trkpt lat="45.85752" lon="6.41882">
        <ele>1562.76</ele>
        <time>2017-02-16T10:15:47Z</time>
      </trkpt>
      <trkpt lat="45.85753" lon="6.41886">
        <ele>1563.72</ele>
        <time>2017-02-16T10:15:48Z</time>
      </trkpt>
      <trkpt lat="45.85758" lon="6.41902">
        <ele>1568.05</ele>
        <time>2017-02-16T10:15:52Z</time>
      </trkpt>
      <trkpt lat="45.85761" lon="6.41915">
        <ele>1570.45</ele>
        <time>2017-02-16T10:15:55Z</time>
      </trkpt>
      <trkpt lat="45.85762" lon="6.41919">
        <ele>1575.26</ele>
        <time>2017-02-16T10:15:56Z</time>
      </trkpt>
      <trkpt lat="45.85763" lon="6.41923">
        <ele>1575.26</ele>
        <time>2017-02-16T10:15:57Z</time>
      </trkpt>
      <trkpt lat="45.85767" lon="6.41939">
        <ele>1578.62</ele>
        <time>2017-02-16T10:16:01Z</time>
      </trkpt>
      <trkpt lat="45.85771" lon="6.41952">
        <ele>1581.99</ele>
        <time>2017-02-16T10:16:04Z</time>
      </trkpt>
      <trkpt lat="45.85775" lon="6.41968">
        <ele>1586.31</ele>
        <time>2017-02-16T10:16:08Z</time>
      </trkpt>
      <trkpt lat="45.8578" lon="6.41984">
        <ele>1590.64</ele>
        <time>2017-02-16T10:16:12Z</time>
      </trkpt>
      <trkpt lat="45.85784" lon="6.41997">
        <ele>1594</ele>
        <time>2017-02-16T10:16:15Z</time>
      </trkpt>
      <trkpt lat="45.85787" lon="6.42009">
        <ele>1597.37</ele>
        <time>2017-02-16T10:16:18Z</time>
      </trkpt>
      <trkpt lat="45.8579" lon="6.42022">
        <ele>1600.73</ele>
        <time>2017-02-16T10:16:21Z</time>
      </trkpt>
      <trkpt lat="45.85794" lon="6.42034">
        <ele>1604.58</ele>
        <time>2017-02-16T10:16:24Z</time>
      </trkpt>
      <trkpt lat="45.85797" lon="6.42047">
        <ele>1607.46</ele>
        <time>2017-02-16T10:16:27Z</time>
      </trkpt>
      <trkpt lat="45.858" lon="6.42059">
        <ele>1611.31</ele>
        <time>2017-02-16T10:16:30Z</time>
      </trkpt>
      <trkpt lat="45.85804" lon="6.4207">
        <ele>1614.67</ele>
        <time>2017-02-16T10:16:33Z</time>
      </trkpt>
      <trkpt lat="45.85808" lon="6.42082">
        <ele>1618.04</ele>
        <time>2017-02-16T10:16:36Z</time>
      </trkpt>
      <trkpt lat="45.85812" lon="6.42098">
        <ele>1621.88</ele>
        <time>2017-02-16T10:16:40Z</time>
      </trkpt>
      <trkpt lat="45.85817" lon="6.42115">
        <ele>1625.73</ele>
        <time>2017-02-16T10:16:44Z</time>
      </trkpt>
      <trkpt lat="45.8582" lon="6.42128">
        <ele>1628.61</ele>
        <time>2017-02-16T10:16:47Z</time>
      </trkpt>
      <trkpt lat="45.85823" lon="6.4214">
        <ele>1631.98</ele>
        <time>2017-02-16T10:16:50Z</time>
      </trkpt>
      <trkpt lat="45.85827" lon="6.42151">
        <ele>1634.86</ele>
        <time>2017-02-16T10:16:53Z</time>
      </trkpt>
      <trkpt lat="45.8583" lon="6.42164">
        <ele>1638.22</ele>
        <time>2017-02-16T10:16:56Z</time>
      </trkpt>
      <trkpt lat="45.85834" lon="6.42176">
        <ele>1641.59</ele>
        <time>2017-02-16T10:16:59Z</time>
      </trkpt>
      <trkpt lat="45.85837" lon="6.42188">
        <ele>1644.95</ele>
        <time>2017-02-16T10:17:02Z</time>
      </trkpt>
      <trkpt lat="45.85841" lon="6.422">
        <ele>1648.32</ele>
        <time>2017-02-16T10:17:05Z</time>
      </trkpt>
      <trkpt lat="45.85844" lon="6.42212">
        <ele>1652.16</ele>
        <time>2017-02-16T10:17:08Z</time>
      </trkpt>
      <trkpt lat="45.85847" lon="6.42225">
        <ele>1655.53</ele>
        <time>2017-02-16T10:17:11Z</time>
      </trkpt>
      <trkpt lat="45.8585" lon="6.42238">
        <ele>1658.89</ele>
        <time>2017-02-16T10:17:14Z</time>
      </trkpt>
      <trkpt lat="45.85853" lon="6.42248">
        <ele>1663.22</ele>
        <time>2017-02-16T10:17:17Z</time>
      </trkpt>
      <trkpt lat="45.85859" lon="6.42259">
        <ele>1666.1</ele>
        <time>2017-02-16T10:17:20Z</time>
      </trkpt>
      <trkpt lat="45.85864" lon="6.42269">
        <ele>1669.47</ele>
        <time>2017-02-16T10:17:23Z</time>
      </trkpt>
      <trkpt lat="45.85869" lon="6.4228">
        <ele>1673.31</ele>
        <time>2017-02-16T10:17:26Z</time>
      </trkpt>
      <trkpt lat="45.85874" lon="6.4229">
        <ele>1677.16</ele>
        <time>2017-02-16T10:17:29Z</time>
      </trkpt>
      <trkpt lat="45.85879" lon="6.42301">
        <ele>1680.52</ele>
        <time>2017-02-16T10:17:32Z</time>
      </trkpt>
      <trkpt lat="45.85884" lon="6.42312">
        <ele>1684.37</ele>
        <time>2017-02-16T10:17:35Z</time>
      </trkpt>
      <trkpt lat="45.8589" lon="6.42323">
        <ele>1687.73</ele>
        <time>2017-02-16T10:17:38Z</time>
      </trkpt>
      <trkpt lat="45.85895" lon="6.42334">
        <ele>1691.1</ele>
        <time>2017-02-16T10:17:41Z</time>
      </trkpt>
      <trkpt lat="45.859" lon="6.42345">
        <ele>1694.46</ele>
        <time>2017-02-16T10:17:44Z</time>
      </trkpt>
      <trkpt lat="45.85906" lon="6.42356">
        <ele>1697.83</ele>
        <time>2017-02-16T10:17:47Z</time>
      </trkpt>
      <trkpt lat="45.85911" lon="6.42366">
        <ele>1701.67</ele>
        <time>2017-02-16T10:17:50Z</time>
      </trkpt>
      <trkpt lat="45.85916" lon="6.42376">
        <ele>1705.52</ele>
        <time>2017-02-16T10:17:53Z</time>
      </trkpt>
      <trkpt lat="45.85921" lon="6.42388">
        <ele>1708.88</ele>
        <time>2017-02-16T10:17:56Z</time>
      </trkpt>
      <trkpt lat="45.85924" lon="6.42395">
        <ele>1711.76</ele>
        <time>2017-02-16T10:17:58Z</time>
      </trkpt>
      <trkpt lat="45.85929" lon="6.42407">
        <ele>1718.01</ele>
        <time>2017-02-16T10:18:01Z</time>
      </trkpt>
      <trkpt lat="45.85931" lon="6.4241">
        <ele>1718.01</ele>
        <time>2017-02-16T10:18:02Z</time>
      </trkpt>
      <trkpt lat="45.8594" lon="6.42429">
        <ele>1723.78</ele>
        <time>2017-02-16T10:18:07Z</time>
      </trkpt>
      <trkpt lat="45.85941" lon="6.42433">
        <ele>1727.15</ele>
        <time>2017-02-16T10:18:08Z</time>
      </trkpt>
      <trkpt lat="45.85943" lon="6.42436">
        <ele>1727.15</ele>
        <time>2017-02-16T10:18:09Z</time>
      </trkpt>
      <trkpt lat="45.8595" lon="6.4245">
        <ele>1731.47</ele>
        <time>2017-02-16T10:18:13Z</time>
      </trkpt>
      <trkpt lat="45.85955" lon="6.42461">
        <ele>1734.84</ele>
        <time>2017-02-16T10:18:16Z</time>
      </trkpt>
      <trkpt lat="45.85959" lon="6.42472">
        <ele>1738.68</ele>
        <time>2017-02-16T10:18:19Z</time>
      </trkpt>
      <trkpt lat="45.85964" lon="6.42482">
        <ele>1742.53</ele>
        <time>2017-02-16T10:18:22Z</time>
      </trkpt>
      <trkpt lat="45.85969" lon="6.42493">
        <ele>1746.37</ele>
        <time>2017-02-16T10:18:25Z</time>
      </trkpt>
      <trkpt lat="45.85974" lon="6.42503">
        <ele>1750.22</ele>
        <time>2017-02-16T10:18:28Z</time>
      </trkpt>
      <trkpt lat="45.8598" lon="6.42514">
        <ele>1754.06</ele>
        <time>2017-02-16T10:18:31Z</time>
      </trkpt>
      <trkpt lat="45.85986" lon="6.42525">
        <ele>1757.91</ele>
        <time>2017-02-16T10:18:34Z</time>
      </trkpt>
      <trkpt lat="45.85991" lon="6.42536">
        <ele>1761.27</ele>
        <time>2017-02-16T10:18:37Z</time>
      </trkpt>
      <trkpt lat="45.85996" lon="6.42545">
        <ele>1765.6</ele>
        <time>2017-02-16T10:18:40Z</time>
      </trkpt>
      <trkpt lat="45.86003" lon="6.42558">
        <ele>1768</ele>
        <time>2017-02-16T10:18:43Z</time>
      </trkpt>
      <trkpt lat="45.86007" lon="6.42561">
        <ele>1768</ele>
        <time>2017-02-16T10:18:44Z</time>
      </trkpt>
      <trkpt lat="45.86012" lon="6.4256">
        <ele>1768.48</ele>
        <time>2017-02-16T10:18:50Z</time>
      </trkpt>
      <trkpt lat="45.86012" lon="6.42556">
        <ele>1767.52</ele>
        <time>2017-02-16T10:19:05Z</time>
      </trkpt>
      <trkpt lat="45.86014" lon="6.42553">
        <ele>1766.56</ele>
        <time>2017-02-16T10:19:07Z</time>
      </trkpt>
      <trkpt lat="45.86018" lon="6.4255">
        <ele>1766.08</ele>
        <time>2017-02-16T10:19:09Z</time>
      </trkpt>
      <trkpt lat="45.86019" lon="6.42547">
        <ele>1764.64</ele>
        <time>2017-02-16T10:19:10Z</time>
      </trkpt>
      <trkpt lat="45.86018" lon="6.42544">
        <ele>1764.16</ele>
        <time>2017-02-16T10:19:11Z</time>
      </trkpt>
      <trkpt lat="45.86017" lon="6.42542">
        <ele>1763.68</ele>
        <time>2017-02-16T10:19:12Z</time>
      </trkpt>
      <trkpt lat="45.86014" lon="6.4254">
        <ele>1763.2</ele>
        <time>2017-02-16T10:19:24Z</time>
      </trkpt>
      <trkpt lat="45.86019" lon="6.42547">
        <ele>1763.2</ele>
        <time>2017-02-16T10:19:46Z</time>
      </trkpt>
      <trkpt lat="45.86023" lon="6.42545">
        <ele>1763.2</ele>
        <time>2017-02-16T10:19:59Z</time>
      </trkpt>
      <trkpt lat="45.86023" lon="6.4255">
        <ele>1763.2</ele>
        <time>2017-02-16T10:20:20Z</time>
      </trkpt>
      <trkpt lat="45.86024" lon="6.42547">
        <ele>1763.2</ele>
        <time>2017-02-16T10:20:49Z</time>
      </trkpt>
      <trkpt lat="45.86016" lon="6.42533">
        <ele>1760.79</ele>
        <time>2017-02-16T10:21:02Z</time>
      </trkpt>
      <trkpt lat="45.8601" lon="6.4252">
        <ele>1757.91</ele>
        <time>2017-02-16T10:21:09Z</time>
      </trkpt>
      <trkpt lat="45.86003" lon="6.42509">
        <ele>1754.06</ele>
        <time>2017-02-16T10:21:14Z</time>
      </trkpt>
      <trkpt lat="45.86003" lon="6.42508">
        <ele>1754.06</ele>
        <time>2017-02-16T10:21:15Z</time>
      </trkpt>
      <trkpt lat="45.86001" lon="6.42504">
        <ele>1752.62</ele>
        <time>2017-02-16T10:21:26Z</time>
      </trkpt>
      <trkpt lat="45.86" lon="6.42503">
        <ele>1752.62</ele>
        <time>2017-02-16T10:21:27Z</time>
      </trkpt>
      <trkpt lat="45.85993" lon="6.42494">
        <ele>1749.26</ele>
        <time>2017-02-16T10:21:31Z</time>
      </trkpt>
      <trkpt lat="45.85987" lon="6.42483">
        <ele>1746.37</ele>
        <time>2017-02-16T10:21:36Z</time>
      </trkpt>
      <trkpt lat="45.85981" lon="6.42475">
        <ele>1743.01</ele>
        <time>2017-02-16T10:21:40Z</time>
      </trkpt>
      <trkpt lat="45.85976" lon="6.42467">
        <ele>1739.64</ele>
        <time>2017-02-16T10:21:43Z</time>
      </trkpt>
      <trkpt lat="45.85975" lon="6.42462">
        <ele>1738.2</ele>
        <time>2017-02-16T10:21:44Z</time>
      </trkpt>
      <trkpt lat="45.85975" lon="6.42458">
        <ele>1736.76</ele>
        <time>2017-02-16T10:21:45Z</time>
      </trkpt>
      <trkpt lat="45.85976" lon="6.42448">
        <ele>1734.36</ele>
        <time>2017-02-16T10:21:47Z</time>
      </trkpt>
      <trkpt lat="45.85975" lon="6.42443">
        <ele>1733.39</ele>
        <time>2017-02-16T10:21:48Z</time>
      </trkpt>
      <trkpt lat="45.85974" lon="6.4244">
        <ele>1731.95</ele>
        <time>2017-02-16T10:21:49Z</time>
      </trkpt>
      <trkpt lat="45.85972" lon="6.42438">
        <ele>1730.51</ele>
        <time>2017-02-16T10:21:52Z</time>
      </trkpt>
      <trkpt lat="45.8597" lon="6.42435">
        <ele>1730.03</ele>
        <time>2017-02-16T10:21:53Z</time>
      </trkpt>
      <trkpt lat="45.85968" lon="6.42433">
        <ele>1728.59</ele>
        <time>2017-02-16T10:21:54Z</time>
      </trkpt>
      <trkpt lat="45.85966" lon="6.42432">
        <ele>1728.11</ele>
        <time>2017-02-16T10:21:55Z</time>
      </trkpt>
      <trkpt lat="45.85965" lon="6.42429">
        <ele>1727.15</ele>
        <time>2017-02-16T10:21:56Z</time>
      </trkpt>
      <trkpt lat="45.85963" lon="6.42426">
        <ele>1725.7</ele>
        <time>2017-02-16T10:21:57Z</time>
      </trkpt>
      <trkpt lat="45.85963" lon="6.42424">
        <ele>1724.74</ele>
        <time>2017-02-16T10:21:58Z</time>
      </trkpt>
      <trkpt lat="45.85959" lon="6.42415">
        <ele>1721.38</ele>
        <time>2017-02-16T10:22:01Z</time>
      </trkpt>
      <trkpt lat="45.85954" lon="6.42406">
        <ele>1718.01</ele>
        <time>2017-02-16T10:22:04Z</time>
      </trkpt>
      <trkpt lat="45.85949" lon="6.42398">
        <ele>1714.65</ele>
        <time>2017-02-16T10:22:08Z</time>
      </trkpt>
      <trkpt lat="45.85943" lon="6.4239">
        <ele>1711.28</ele>
        <time>2017-02-16T10:22:12Z</time>
      </trkpt>
      <trkpt lat="45.85937" lon="6.42382">
        <ele>1707.92</ele>
        <time>2017-02-16T10:22:15Z</time>
      </trkpt>
      <trkpt lat="45.85929" lon="6.42369">
        <ele>1704.07</ele>
        <time>2017-02-16T10:22:19Z</time>
      </trkpt>
      <trkpt lat="45.85924" lon="6.42358">
        <ele>1700.23</ele>
        <time>2017-02-16T10:22:22Z</time>
      </trkpt>
      <trkpt lat="45.85918" lon="6.4235">
        <ele>1697.34</ele>
        <time>2017-02-16T10:22:25Z</time>
      </trkpt>
      <trkpt lat="45.85913" lon="6.42337">
        <ele>1693.02</ele>
        <time>2017-02-16T10:22:28Z</time>
      </trkpt>
      <trkpt lat="45.85908" lon="6.42328">
        <ele>1690.14</ele>
        <time>2017-02-16T10:22:32Z</time>
      </trkpt>
      <trkpt lat="45.85901" lon="6.42315">
        <ele>1686.29</ele>
        <time>2017-02-16T10:22:36Z</time>
      </trkpt>
      <trkpt lat="45.85897" lon="6.42309">
        <ele>1683.89</ele>
        <time>2017-02-16T10:22:38Z</time>
      </trkpt>
      <trkpt lat="45.85895" lon="6.42303">
        <ele>1682.44</ele>
        <time>2017-02-16T10:22:40Z</time>
      </trkpt>
      <trkpt lat="45.85894" lon="6.42301">
        <ele>1681.96</ele>
        <time>2017-02-16T10:22:41Z</time>
      </trkpt>
      <trkpt lat="45.85893" lon="6.42298">
        <ele>1680.52</ele>
        <time>2017-02-16T10:22:42Z</time>
      </trkpt>
      <trkpt lat="45.85891" lon="6.42296">
        <ele>1680.04</ele>
        <time>2017-02-16T10:22:43Z</time>
      </trkpt>
      <trkpt lat="45.8589" lon="6.42294">
        <ele>1679.56</ele>
        <time>2017-02-16T10:22:44Z</time>
      </trkpt>
      <trkpt lat="45.85888" lon="6.42291">
        <ele>1678.12</ele>
        <time>2017-02-16T10:22:45Z</time>
      </trkpt>
      <trkpt lat="45.85884" lon="6.42282">
        <ele>1675.23</ele>
        <time>2017-02-16T10:22:48Z</time>
      </trkpt>
      <trkpt lat="45.85879" lon="6.42272">
        <ele>1671.87</ele>
        <time>2017-02-16T10:22:51Z</time>
      </trkpt>
      <trkpt lat="45.85875" lon="6.42261">
        <ele>1668.02</ele>
        <time>2017-02-16T10:22:54Z</time>
      </trkpt>
      <trkpt lat="45.85872" lon="6.42256">
        <ele>1666.1</ele>
        <time>2017-02-16T10:22:55Z</time>
      </trkpt>
      <trkpt lat="45.85868" lon="6.42251">
        <ele>1664.66</ele>
        <time>2017-02-16T10:22:56Z</time>
      </trkpt>
      <trkpt lat="45.85866" lon="6.42246">
        <ele>1663.7</ele>
        <time>2017-02-16T10:22:57Z</time>
      </trkpt>
      <trkpt lat="45.85865" lon="6.42241">
        <ele>1661.78</ele>
        <time>2017-02-16T10:22:58Z</time>
      </trkpt>
      <trkpt lat="45.85864" lon="6.42236">
        <ele>1660.81</ele>
        <time>2017-02-16T10:22:59Z</time>
      </trkpt>
      <trkpt lat="45.85863" lon="6.42233">
        <ele>1659.37</ele>
        <time>2017-02-16T10:23:00Z</time>
      </trkpt>
      <trkpt lat="45.85861" lon="6.42231">
        <ele>1658.89</ele>
        <time>2017-02-16T10:23:01Z</time>
      </trkpt>
      <trkpt lat="45.8586" lon="6.42228">
        <ele>1657.45</ele>
        <time>2017-02-16T10:23:02Z</time>
      </trkpt>
      <trkpt lat="45.85858" lon="6.42222">
        <ele>1656.01</ele>
        <time>2017-02-16T10:23:03Z</time>
      </trkpt>
      <trkpt lat="45.85857" lon="6.42217">
        <ele>1654.09</ele>
        <time>2017-02-16T10:23:04Z</time>
      </trkpt>
      <trkpt lat="45.85855" lon="6.42212">
        <ele>1653.12</ele>
        <time>2017-02-16T10:23:05Z</time>
      </trkpt>
      <trkpt lat="45.85852" lon="6.42201">
        <ele>1648.8</ele>
        <time>2017-02-16T10:23:08Z</time>
      </trkpt>
      <trkpt lat="45.8585" lon="6.42193">
        <ele>1646.88</ele>
        <time>2017-02-16T10:23:09Z</time>
      </trkpt>
      <trkpt lat="45.85846" lon="6.42179">
        <ele>1643.03</ele>
        <time>2017-02-16T10:23:11Z</time>
      </trkpt>
      <trkpt lat="45.85845" lon="6.42172">
        <ele>1639.19</ele>
        <time>2017-02-16T10:23:13Z</time>
      </trkpt>
      <trkpt lat="45.85845" lon="6.42172">
        <ele>1639.67</ele>
        <time>2017-02-16T10:23:14Z</time>
      </trkpt>
      <trkpt lat="45.85844" lon="6.4217">
        <ele>1637.74</ele>
        <time>2017-02-16T10:23:16Z</time>
      </trkpt>
      <trkpt lat="45.85843" lon="6.42168">
        <ele>1637.26</ele>
        <time>2017-02-16T10:23:17Z</time>
      </trkpt>
      <trkpt lat="45.85842" lon="6.42164">
        <ele>1637.26</ele>
        <time>2017-02-16T10:23:18Z</time>
      </trkpt>
      <trkpt lat="45.85836" lon="6.42152">
        <ele>1633.9</ele>
        <time>2017-02-16T10:23:21Z</time>
      </trkpt>
      <trkpt lat="45.85834" lon="6.42143">
        <ele>1632.46</ele>
        <time>2017-02-16T10:23:23Z</time>
      </trkpt>
      <trkpt lat="45.85835" lon="6.42137">
        <ele>1630.53</ele>
        <time>2017-02-16T10:23:24Z</time>
      </trkpt>
      <trkpt lat="45.85836" lon="6.42129">
        <ele>1629.09</ele>
        <time>2017-02-16T10:23:25Z</time>
      </trkpt>
      <trkpt lat="45.85836" lon="6.42121">
        <ele>1626.69</ele>
        <time>2017-02-16T10:23:26Z</time>
      </trkpt>
      <trkpt lat="45.85834" lon="6.42115">
        <ele>1625.73</ele>
        <time>2017-02-16T10:23:27Z</time>
      </trkpt>
      <trkpt lat="45.85833" lon="6.42111">
        <ele>1624.28</ele>
        <time>2017-02-16T10:23:28Z</time>
      </trkpt>
      <trkpt lat="45.85828" lon="6.42102">
        <ele>1621.4</ele>
        <time>2017-02-16T10:23:32Z</time>
      </trkpt>
      <trkpt lat="45.85819" lon="6.42089">
        <ele>1618.52</ele>
        <time>2017-02-16T10:23:36Z</time>
      </trkpt>
      <trkpt lat="45.85817" lon="6.42084">
        <ele>1617.56</ele>
        <time>2017-02-16T10:23:37Z</time>
      </trkpt>
      <trkpt lat="45.85815" lon="6.42076">
        <ele>1616.11</ele>
        <time>2017-02-16T10:23:38Z</time>
      </trkpt>
      <trkpt lat="45.85813" lon="6.42066">
        <ele>1613.71</ele>
        <time>2017-02-16T10:23:39Z</time>
      </trkpt>
      <trkpt lat="45.8581" lon="6.42053">
        <ele>1609.38</ele>
        <time>2017-02-16T10:23:40Z</time>
      </trkpt>
      <trkpt lat="45.85806" lon="6.42039">
        <ele>1605.06</ele>
        <time>2017-02-16T10:23:41Z</time>
      </trkpt>
      <trkpt lat="45.85803" lon="6.42029">
        <ele>1603.62</ele>
        <time>2017-02-16T10:23:42Z</time>
      </trkpt>
      <trkpt lat="45.85799" lon="6.42015">
        <ele>1600.25</ele>
        <time>2017-02-16T10:23:44Z</time>
      </trkpt>
      <trkpt lat="45.85799" lon="6.42005">
        <ele>1593.52</ele>
        <time>2017-02-16T10:23:45Z</time>
      </trkpt>
      <trkpt lat="45.85798" lon="6.41995">
        <ele>1591.12</ele>
        <time>2017-02-16T10:23:46Z</time>
      </trkpt>
      <trkpt lat="45.85796" lon="6.41989">
        <ele>1591.12</ele>
        <time>2017-02-16T10:23:47Z</time>
      </trkpt>
      <trkpt lat="45.85796" lon="6.41989">
        <ele>1592.08</ele>
        <time>2017-02-16T10:23:52Z</time>
      </trkpt>
      <trkpt lat="45.85796" lon="6.41988">
        <ele>1591.12</ele>
        <time>2017-02-16T10:23:54Z</time>
      </trkpt>
      <trkpt lat="45.85794" lon="6.41988">
        <ele>1590.16</ele>
        <time>2017-02-16T10:24:11Z</time>
      </trkpt>
      <trkpt lat="45.85795" lon="6.41987">
        <ele>1590.16</ele>
        <time>2017-02-16T10:24:12Z</time>
      </trkpt>
      <trkpt lat="45.85798" lon="6.41979">
        <ele>1586.31</ele>
        <time>2017-02-16T10:24:14Z</time>
      </trkpt>
      <trkpt lat="45.85798" lon="6.41967">
        <ele>1582.47</ele>
        <time>2017-02-16T10:24:15Z</time>
      </trkpt>
      <trkpt lat="45.85798" lon="6.41955">
        <ele>1576.7</ele>
        <time>2017-02-16T10:24:16Z</time>
      </trkpt>
      <trkpt lat="45.85797" lon="6.41937">
        <ele>1569.97</ele>
        <time>2017-02-16T10:24:17Z</time>
      </trkpt>
      <trkpt lat="45.85787" lon="6.41881">
        <ele>1564.2</ele>
        <time>2017-02-16T10:24:22Z</time>
      </trkpt>
      <trkpt lat="45.85789" lon="6.41887">
        <ele>1564.2</ele>
        <time>2017-02-16T10:24:35Z</time>
      </trkpt>
      <trkpt lat="45.85788" lon="6.41876">
        <ele>1561.8</ele>
        <time>2017-02-16T10:24:39Z</time>
      </trkpt>
      <trkpt lat="45.85791" lon="6.41866">
        <ele>1559.88</ele>
        <time>2017-02-16T10:24:41Z</time>
      </trkpt>
      <trkpt lat="45.85789" lon="6.41841">
        <ele>1553.63</ele>
        <time>2017-02-16T10:24:44Z</time>
      </trkpt>
      <trkpt lat="45.8579" lon="6.41827">
        <ele>1548.82</ele>
        <time>2017-02-16T10:24:45Z</time>
      </trkpt>
      <trkpt lat="45.85791" lon="6.41815">
        <ele>1542.57</ele>
        <time>2017-02-16T10:24:46Z</time>
      </trkpt>
      <trkpt lat="45.85792" lon="6.41767">
        <ele>1533.44</ele>
        <time>2017-02-16T10:24:49Z</time>
      </trkpt>
      <trkpt lat="45.85791" lon="6.4176">
        <ele>1533.44</ele>
        <time>2017-02-16T10:24:50Z</time>
      </trkpt>
      <trkpt lat="45.8579" lon="6.41759">
        <ele>1532</ele>
        <time>2017-02-16T10:24:52Z</time>
      </trkpt>
      <trkpt lat="45.85786" lon="6.41754">
        <ele>1529.59</ele>
        <time>2017-02-16T10:25:06Z</time>
      </trkpt>
      <trkpt lat="45.85785" lon="6.41754">
        <ele>1529.59</ele>
        <time>2017-02-16T10:25:07Z</time>
      </trkpt>
      <trkpt lat="45.85781" lon="6.41752">
        <ele>1529.11</ele>
        <time>2017-02-16T10:25:22Z</time>
      </trkpt>
      <trkpt lat="45.85781" lon="6.41752">
        <ele>1529.11</ele>
        <time>2017-02-16T10:25:24Z</time>
      </trkpt>
      <trkpt lat="45.85781" lon="6.41742">
        <ele>1526.23</ele>
        <time>2017-02-16T10:25:29Z</time>
      </trkpt>
      <trkpt lat="45.85786" lon="6.4173">
        <ele>1523.35</ele>
        <time>2017-02-16T10:25:33Z</time>
      </trkpt>
      <trkpt lat="45.85782" lon="6.41705">
        <ele>1517.1</ele>
        <time>2017-02-16T10:25:37Z</time>
      </trkpt>
      <trkpt lat="45.85785" lon="6.41698">
        <ele>1510.85</ele>
        <time>2017-02-16T10:25:38Z</time>
      </trkpt>
      <trkpt lat="45.85785" lon="6.41688">
        <ele>1506.52</ele>
        <time>2017-02-16T10:25:39Z</time>
      </trkpt>
      <trkpt lat="45.85785" lon="6.41682">
        <ele>1506.04</ele>
        <time>2017-02-16T10:25:40Z</time>
      </trkpt>
      <trkpt lat="45.85787" lon="6.41651">
        <ele>1493.55</ele>
        <time>2017-02-16T10:25:43Z</time>
      </trkpt>
      <trkpt lat="45.85789" lon="6.41639">
        <ele>1487.78</ele>
        <time>2017-02-16T10:25:44Z</time>
      </trkpt>
      <trkpt lat="45.85788" lon="6.4161">
        <ele>1482.97</ele>
        <time>2017-02-16T10:25:46Z</time>
      </trkpt>
      <trkpt lat="45.85778" lon="6.41569">
        <ele>1471.92</ele>
        <time>2017-02-16T10:25:50Z</time>
      </trkpt>
      <trkpt lat="45.85776" lon="6.41561">
        <ele>1471.92</ele>
        <time>2017-02-16T10:25:51Z</time>
      </trkpt>
      <trkpt lat="45.85774" lon="6.41548">
        <ele>1468.07</ele>
        <time>2017-02-16T10:25:53Z</time>
      </trkpt>
      <trkpt lat="45.85801" lon="6.41564">
        <ele>1466.63</ele>
        <time>2017-02-16T10:26:02Z</time>
      </trkpt>
      <trkpt lat="45.85803" lon="6.41563">
        <ele>1466.63</ele>
        <time>2017-02-16T10:26:03Z</time>
      </trkpt>
      <trkpt lat="45.85821" lon="6.41559">
        <ele>1467.11</ele>
        <time>2017-02-16T10:26:10Z</time>
      </trkpt>
      <trkpt lat="45.85824" lon="6.41559">
        <ele>1467.11</ele>
        <time>2017-02-16T10:26:12Z</time>
      </trkpt>
      <trkpt lat="45.85826" lon="6.41559">
        <ele>1467.11</ele>
        <time>2017-02-16T10:26:13Z</time>
      </trkpt>
      <trkpt lat="45.85835" lon="6.41564">
        <ele>1468.55</ele>
        <time>2017-02-16T10:26:15Z</time>
      </trkpt>
      <trkpt lat="45.85852" lon="6.41562">
        <ele>1468.55</ele>
        <time>2017-02-16T10:26:30Z</time>
      </trkpt>
      <trkpt lat="45.85854" lon="6.41558">
        <ele>1468.55</ele>
        <time>2017-02-16T10:26:51Z</time>
      </trkpt>
      <trkpt lat="45.85861" lon="6.41549">
        <ele>1470.47</ele>
        <time>2017-02-16T10:27:04Z</time>
      </trkpt>
      <trkpt lat="45.85859" lon="6.41544">
        <ele>1470.47</ele>
        <time>2017-02-16T10:27:12Z</time>
      </trkpt>
      <trkpt lat="45.85852" lon="6.41543">
        <ele>1470.47</ele>
        <time>2017-02-16T10:27:29Z</time>
      </trkpt>
      <trkpt lat="45.85851" lon="6.41541">
        <ele>1470.95</ele>
        <time>2017-02-16T10:27:50Z</time>
      </trkpt>
      <trkpt lat="45.85851" lon="6.41541">
        <ele>1470.95</ele>
        <time>2017-02-16T10:28:13Z</time>
      </trkpt>
      <trkpt lat="45.85851" lon="6.41539">
        <ele>1470.95</ele>
        <time>2017-02-16T10:28:34Z</time>
      </trkpt>
      <trkpt lat="45.8585" lon="6.4154">
        <ele>1470.95</ele>
        <time>2017-02-16T10:28:53Z</time>
      </trkpt>
      <trkpt lat="45.85848" lon="6.41536">
        <ele>1470.95</ele>
        <time>2017-02-16T10:29:17Z</time>
      </trkpt>
      <trkpt lat="45.85848" lon="6.41535">
        <ele>1470.95</ele>
        <time>2017-02-16T10:29:38Z</time>
      </trkpt>
      <trkpt lat="45.85851" lon="6.41533">
        <ele>1470.95</ele>
        <time>2017-02-16T10:30:02Z</time>
      </trkpt>
      <trkpt lat="45.85852" lon="6.41531">
        <ele>1470.47</ele>
        <time>2017-02-16T10:30:20Z</time>
      </trkpt>
      <trkpt lat="45.85855" lon="6.41526">
        <ele>1470.47</ele>
        <time>2017-02-16T10:30:39Z</time>
      </trkpt>
      <trkpt lat="45.85856" lon="6.41522">
        <ele>1469.99</ele>
        <time>2017-02-16T10:30:43Z</time>
      </trkpt>
      <trkpt lat="45.85858" lon="6.41515">
        <ele>1469.99</ele>
        <time>2017-02-16T10:30:44Z</time>
      </trkpt>
      <trkpt lat="45.85862" lon="6.41496">
        <ele>1472.4</ele>
        <time>2017-02-16T10:30:49Z</time>
      </trkpt>
      <trkpt lat="45.85864" lon="6.41489">
        <ele>1472.4</ele>
        <time>2017-02-16T10:30:51Z</time>
      </trkpt>
      <trkpt lat="45.85868" lon="6.41468">
        <ele>1473.84</ele>
        <time>2017-02-16T10:30:55Z</time>
      </trkpt>
      <trkpt lat="45.85878" lon="6.41429">
        <ele>1475.76</ele>
        <time>2017-02-16T10:31:04Z</time>
      </trkpt>
      <trkpt lat="45.85882" lon="6.41412">
        <ele>1477.68</ele>
        <time>2017-02-16T10:31:08Z</time>
      </trkpt>
      <trkpt lat="45.85887" lon="6.41392">
        <ele>1481.05</ele>
        <time>2017-02-16T10:31:13Z</time>
      </trkpt>
      <trkpt lat="45.85891" lon="6.41371">
        <ele>1484.41</ele>
        <time>2017-02-16T10:31:18Z</time>
      </trkpt>
      <trkpt lat="45.85895" lon="6.41353">
        <ele>1488.26</ele>
        <time>2017-02-16T10:31:22Z</time>
      </trkpt>
      <trkpt lat="45.85899" lon="6.41336">
        <ele>1491.62</ele>
        <time>2017-02-16T10:31:26Z</time>
      </trkpt>
      <trkpt lat="45.85902" lon="6.41323">
        <ele>1494.51</ele>
        <time>2017-02-16T10:31:29Z</time>
      </trkpt>
      <trkpt lat="45.85906" lon="6.41307">
        <ele>1497.87</ele>
        <time>2017-02-16T10:31:33Z</time>
      </trkpt>
      <trkpt lat="45.8591" lon="6.4129">
        <ele>1500.27</ele>
        <time>2017-02-16T10:31:37Z</time>
      </trkpt>
      <trkpt lat="45.85913" lon="6.41277">
        <ele>1503.64</ele>
        <time>2017-02-16T10:31:40Z</time>
      </trkpt>
      <trkpt lat="45.85917" lon="6.41259">
        <ele>1507.48</ele>
        <time>2017-02-16T10:31:44Z</time>
      </trkpt>
      <trkpt lat="45.85921" lon="6.41242">
        <ele>1510.85</ele>
        <time>2017-02-16T10:31:48Z</time>
      </trkpt>
      <trkpt lat="45.85925" lon="6.41224">
        <ele>1514.69</ele>
        <time>2017-02-16T10:31:52Z</time>
      </trkpt>
      <trkpt lat="45.85928" lon="6.41213">
        <ele>1518.06</ele>
        <time>2017-02-16T10:31:55Z</time>
      </trkpt>
      <trkpt lat="45.85928" lon="6.41209">
        <ele>1518.06</ele>
        <time>2017-02-16T10:31:56Z</time>
      </trkpt>
      <trkpt lat="45.85932" lon="6.41191">
        <ele>1519.98</ele>
        <time>2017-02-16T10:32:00Z</time>
      </trkpt>
      <trkpt lat="45.85938" lon="6.41169">
        <ele>1523.35</ele>
        <time>2017-02-16T10:32:05Z</time>
      </trkpt>
      <trkpt lat="45.85943" lon="6.41148">
        <ele>1526.71</ele>
        <time>2017-02-16T10:32:10Z</time>
      </trkpt>
      <trkpt lat="45.85947" lon="6.41132">
        <ele>1529.59</ele>
        <time>2017-02-16T10:32:14Z</time>
      </trkpt>
      <trkpt lat="45.85952" lon="6.41114">
        <ele>1532.96</ele>
        <time>2017-02-16T10:32:18Z</time>
      </trkpt>
      <trkpt lat="45.85956" lon="6.41097">
        <ele>1536.32</ele>
        <time>2017-02-16T10:32:22Z</time>
      </trkpt>
      <trkpt lat="45.8596" lon="6.41079">
        <ele>1539.21</ele>
        <time>2017-02-16T10:32:26Z</time>
      </trkpt>
      <trkpt lat="45.85966" lon="6.41053">
        <ele>1542.57</ele>
        <time>2017-02-16T10:32:32Z</time>
      </trkpt>
      <trkpt lat="45.85969" lon="6.41044">
        <ele>1543.53</ele>
        <time>2017-02-16T10:32:34Z</time>
      </trkpt>
      <trkpt lat="45.85973" lon="6.41022">
        <ele>1546.9</ele>
        <time>2017-02-16T10:32:39Z</time>
      </trkpt>
      <trkpt lat="45.85977" lon="6.41002">
        <ele>1550.74</ele>
        <time>2017-02-16T10:32:44Z</time>
      </trkpt>
      <trkpt lat="45.85993" lon="6.4098">
        <ele>1555.07</ele>
        <time>2017-02-16T10:32:52Z</time>
      </trkpt>
      <trkpt lat="45.86003" lon="6.40968">
        <ele>1557.47</ele>
        <time>2017-02-16T10:32:56Z</time>
      </trkpt>
      <trkpt lat="45.86016" lon="6.40953">
        <ele>1560.36</ele>
        <time>2017-02-16T10:33:01Z</time>
      </trkpt>
      <trkpt lat="45.86027" lon="6.40942">
        <ele>1563.24</ele>
        <time>2017-02-16T10:33:05Z</time>
      </trkpt>
      <trkpt lat="45.86042" lon="6.40924">
        <ele>1566.61</ele>
        <time>2017-02-16T10:33:11Z</time>
      </trkpt>
      <trkpt lat="45.86064" lon="6.40905">
        <ele>1569.97</ele>
        <time>2017-02-16T10:33:19Z</time>
      </trkpt>
      <trkpt lat="45.86098" lon="6.40878">
        <ele>1572.85</ele>
        <time>2017-02-16T10:33:32Z</time>
      </trkpt>
      <trkpt lat="45.8614" lon="6.40849">
        <ele>1574.78</ele>
        <time>2017-02-16T10:33:46Z</time>
      </trkpt>
      <trkpt lat="45.86199" lon="6.40808">
        <ele>1576.7</ele>
        <time>2017-02-16T10:34:06Z</time>
      </trkpt>
      <trkpt lat="45.86239" lon="6.40778">
        <ele>1579.1</ele>
        <time>2017-02-16T10:34:21Z</time>
      </trkpt>
      <trkpt lat="45.86253" lon="6.40775">
        <ele>1581.99</ele>
        <time>2017-02-16T10:34:26Z</time>
      </trkpt>
      <trkpt lat="45.86265" lon="6.40773">
        <ele>1585.35</ele>
        <time>2017-02-16T10:34:30Z</time>
      </trkpt>
      <trkpt lat="45.86277" lon="6.4077">
        <ele>1588.72</ele>
        <time>2017-02-16T10:34:34Z</time>
      </trkpt>
      <trkpt lat="45.86289" lon="6.40769">
        <ele>1591.6</ele>
        <time>2017-02-16T10:34:38Z</time>
      </trkpt>
      <trkpt lat="45.86303" lon="6.40768">
        <ele>1594.96</ele>
        <time>2017-02-16T10:34:42Z</time>
      </trkpt>
      <trkpt lat="45.86319" lon="6.40765">
        <ele>1598.81</ele>
        <time>2017-02-16T10:34:47Z</time>
      </trkpt>
      <trkpt lat="45.86327" lon="6.40764">
        <ele>1602.17</ele>
        <time>2017-02-16T10:34:50Z</time>
      </trkpt>
      <trkpt lat="45.86339" lon="6.40763">
        <ele>1605.06</ele>
        <time>2017-02-16T10:34:54Z</time>
      </trkpt>
      <trkpt lat="45.86352" lon="6.40762">
        <ele>1609.38</ele>
        <time>2017-02-16T10:34:58Z</time>
      </trkpt>
      <trkpt lat="45.86362" lon="6.40761">
        <ele>1612.75</ele>
        <time>2017-02-16T10:35:01Z</time>
      </trkpt>
      <trkpt lat="45.86374" lon="6.40759">
        <ele>1616.11</ele>
        <time>2017-02-16T10:35:05Z</time>
      </trkpt>
      <trkpt lat="45.86387" lon="6.40757">
        <ele>1619.48</ele>
        <time>2017-02-16T10:35:09Z</time>
      </trkpt>
      <trkpt lat="45.86396" lon="6.40756">
        <ele>1622.84</ele>
        <time>2017-02-16T10:35:12Z</time>
      </trkpt>
      <trkpt lat="45.86408" lon="6.40756">
        <ele>1626.21</ele>
        <time>2017-02-16T10:35:16Z</time>
      </trkpt>
      <trkpt lat="45.86422" lon="6.40755">
        <ele>1630.05</ele>
        <time>2017-02-16T10:35:20Z</time>
      </trkpt>
      <trkpt lat="45.86434" lon="6.40753">
        <ele>1633.9</ele>
        <time>2017-02-16T10:35:24Z</time>
      </trkpt>
      <trkpt lat="45.86446" lon="6.4075">
        <ele>1638.22</ele>
        <time>2017-02-16T10:35:28Z</time>
      </trkpt>
      <trkpt lat="45.86455" lon="6.40748">
        <ele>1641.59</ele>
        <time>2017-02-16T10:35:31Z</time>
      </trkpt>
      <trkpt lat="45.86462" lon="6.40749">
        <ele>1644.47</ele>
        <time>2017-02-16T10:35:34Z</time>
      </trkpt>
      <trkpt lat="45.86473" lon="6.40755">
        <ele>1647.84</ele>
        <time>2017-02-16T10:35:38Z</time>
      </trkpt>
      <trkpt lat="45.86481" lon="6.40759">
        <ele>1646.4</ele>
        <time>2017-02-16T10:35:40Z</time>
      </trkpt>
      <trkpt lat="45.86497" lon="6.40765">
        <ele>1644.47</ele>
        <time>2017-02-16T10:35:43Z</time>
      </trkpt>
      <trkpt lat="45.86501" lon="6.40765">
        <ele>1644.47</ele>
        <time>2017-02-16T10:35:44Z</time>
      </trkpt>
      <trkpt lat="45.86539" lon="6.40783">
        <ele>1644.47</ele>
        <time>2017-02-16T10:35:56Z</time>
      </trkpt>
      <trkpt lat="45.86568" lon="6.40802">
        <ele>1643.51</ele>
        <time>2017-02-16T10:36:11Z</time>
      </trkpt>
      <trkpt lat="45.86583" lon="6.40811">
        <ele>1643.51</ele>
        <time>2017-02-16T10:36:19Z</time>
      </trkpt>
      <trkpt lat="45.86585" lon="6.40812">
        <ele>1643.51</ele>
        <time>2017-02-16T10:36:20Z</time>
      </trkpt>
      <trkpt lat="45.86587" lon="6.40812">
        <ele>1643.51</ele>
        <time>2017-02-16T10:36:21Z</time>
      </trkpt>
      <trkpt lat="45.8661" lon="6.4082">
        <ele>1643.03</ele>
        <time>2017-02-16T10:36:35Z</time>
      </trkpt>
      <trkpt lat="45.86634" lon="6.40816">
        <ele>1642.55</ele>
        <time>2017-02-16T10:36:48Z</time>
      </trkpt>
      <trkpt lat="45.86642" lon="6.40815">
        <ele>1642.55</ele>
        <time>2017-02-16T10:36:55Z</time>
      </trkpt>
      <trkpt lat="45.86643" lon="6.40815">
        <ele>1642.07</ele>
        <time>2017-02-16T10:36:56Z</time>
      </trkpt>
      <trkpt lat="45.86645" lon="6.40815">
        <ele>1642.07</ele>
        <time>2017-02-16T10:36:57Z</time>
      </trkpt>
      <trkpt lat="45.86653" lon="6.40815">
        <ele>1642.07</ele>
        <time>2017-02-16T10:37:12Z</time>
      </trkpt>
      <trkpt lat="45.86653" lon="6.40816">
        <ele>1641.11</ele>
        <time>2017-02-16T10:37:21Z</time>
      </trkpt>
      <trkpt lat="45.86655" lon="6.40816">
        <ele>1641.11</ele>
        <time>2017-02-16T10:37:22Z</time>
      </trkpt>
      <trkpt lat="45.86657" lon="6.40816">
        <ele>1640.63</ele>
        <time>2017-02-16T10:37:23Z</time>
      </trkpt>
      <trkpt lat="45.86676" lon="6.40814">
        <ele>1637.74</ele>
        <time>2017-02-16T10:37:28Z</time>
      </trkpt>
      <trkpt lat="45.8668" lon="6.40813">
        <ele>1637.26</ele>
        <time>2017-02-16T10:37:29Z</time>
      </trkpt>
      <trkpt lat="45.86685" lon="6.40813">
        <ele>1636.78</ele>
        <time>2017-02-16T10:37:30Z</time>
      </trkpt>
      <trkpt lat="45.86691" lon="6.40813">
        <ele>1635.82</ele>
        <time>2017-02-16T10:37:31Z</time>
      </trkpt>
      <trkpt lat="45.86697" lon="6.40812">
        <ele>1633.9</ele>
        <time>2017-02-16T10:37:32Z</time>
      </trkpt>
      <trkpt lat="45.8673" lon="6.40816">
        <ele>1631.01</ele>
        <time>2017-02-16T10:37:37Z</time>
      </trkpt>
      <trkpt lat="45.86743" lon="6.40818">
        <ele>1629.57</ele>
        <time>2017-02-16T10:37:39Z</time>
      </trkpt>
      <trkpt lat="45.86769" lon="6.40822">
        <ele>1626.69</ele>
        <time>2017-02-16T10:37:43Z</time>
      </trkpt>
      <trkpt lat="45.86803" lon="6.40824">
        <ele>1623.32</ele>
        <time>2017-02-16T10:37:48Z</time>
      </trkpt>
      <trkpt lat="45.86826" lon="6.40818">
        <ele>1621.4</ele>
        <time>2017-02-16T10:37:51Z</time>
      </trkpt>
      <trkpt lat="45.86847" lon="6.40817">
        <ele>1618.52</ele>
        <time>2017-02-16T10:37:54Z</time>
      </trkpt>
      <trkpt lat="45.86862" lon="6.4082">
        <ele>1616.59</ele>
        <time>2017-02-16T10:37:56Z</time>
      </trkpt>
      <trkpt lat="45.86868" lon="6.40822">
        <ele>1616.11</ele>
        <time>2017-02-16T10:37:57Z</time>
      </trkpt>
      <trkpt lat="45.86887" lon="6.40824">
        <ele>1616.11</ele>
        <time>2017-02-16T10:38:00Z</time>
      </trkpt>
      <trkpt lat="45.86924" lon="6.40818">
        <ele>1614.19</ele>
        <time>2017-02-16T10:38:09Z</time>
      </trkpt>
      <trkpt lat="45.86933" lon="6.40813">
        <ele>1611.79</ele>
        <time>2017-02-16T10:38:11Z</time>
      </trkpt>
      <trkpt lat="45.86945" lon="6.40808">
        <ele>1610.35</ele>
        <time>2017-02-16T10:38:13Z</time>
      </trkpt>
      <trkpt lat="45.86984" lon="6.40819">
        <ele>1605.54</ele>
        <time>2017-02-16T10:38:19Z</time>
      </trkpt>
      <trkpt lat="45.86998" lon="6.40829">
        <ele>1602.66</ele>
        <time>2017-02-16T10:38:21Z</time>
      </trkpt>
      <trkpt lat="45.87024" lon="6.40829">
        <ele>1596.41</ele>
        <time>2017-02-16T10:38:24Z</time>
      </trkpt>
      <trkpt lat="45.87044" lon="6.40828">
        <ele>1588.72</ele>
        <time>2017-02-16T10:38:26Z</time>
      </trkpt>
      <trkpt lat="45.87054" lon="6.40826">
        <ele>1585.35</ele>
        <time>2017-02-16T10:38:27Z</time>
      </trkpt>
      <trkpt lat="45.87074" lon="6.4082">
        <ele>1584.39</ele>
        <time>2017-02-16T10:38:29Z</time>
      </trkpt>
      <trkpt lat="45.87082" lon="6.40817">
        <ele>1586.79</ele>
        <time>2017-02-16T10:38:30Z</time>
      </trkpt>
      <trkpt lat="45.87113" lon="6.40811">
        <ele>1587.27</ele>
        <time>2017-02-16T10:38:35Z</time>
      </trkpt>
      <trkpt lat="45.87121" lon="6.4081">
        <ele>1587.75</ele>
        <time>2017-02-16T10:38:37Z</time>
      </trkpt>
      <trkpt lat="45.8713" lon="6.40809">
        <ele>1586.79</ele>
        <time>2017-02-16T10:38:39Z</time>
      </trkpt>
      <trkpt lat="45.87136" lon="6.40806">
        <ele>1585.83</ele>
        <time>2017-02-16T10:38:40Z</time>
      </trkpt>
      <trkpt lat="45.8714" lon="6.40804">
        <ele>1585.35</ele>
        <time>2017-02-16T10:38:41Z</time>
      </trkpt>
      <trkpt lat="45.87145" lon="6.40803">
        <ele>1584.39</ele>
        <time>2017-02-16T10:38:42Z</time>
      </trkpt>
      <trkpt lat="45.8715" lon="6.40803">
        <ele>1584.39</ele>
        <time>2017-02-16T10:38:43Z</time>
      </trkpt>
      <trkpt lat="45.87162" lon="6.40796">
        <ele>1582.47</ele>
        <time>2017-02-16T10:38:47Z</time>
      </trkpt>
      <trkpt lat="45.87163" lon="6.40791">
        <ele>1581.51</ele>
        <time>2017-02-16T10:38:48Z</time>
      </trkpt>
      <trkpt lat="45.87167" lon="6.40784">
        <ele>1580.06</ele>
        <time>2017-02-16T10:38:49Z</time>
      </trkpt>
      <trkpt lat="45.87175" lon="6.40771">
        <ele>1575.26</ele>
        <time>2017-02-16T10:38:51Z</time>
      </trkpt>
      <trkpt lat="45.87181" lon="6.40767">
        <ele>1573.82</ele>
        <time>2017-02-16T10:38:52Z</time>
      </trkpt>
      <trkpt lat="45.87188" lon="6.40764">
        <ele>1573.82</ele>
        <time>2017-02-16T10:38:53Z</time>
      </trkpt>
      <trkpt lat="45.87196" lon="6.40761">
        <ele>1567.09</ele>
        <time>2017-02-16T10:38:54Z</time>
      </trkpt>
      <trkpt lat="45.87206" lon="6.40757">
        <ele>1562.76</ele>
        <time>2017-02-16T10:38:55Z</time>
      </trkpt>
      <trkpt lat="45.87216" lon="6.40754">
        <ele>1558.92</ele>
        <time>2017-02-16T10:38:56Z</time>
      </trkpt>
      <trkpt lat="45.87236" lon="6.4075">
        <ele>1555.55</ele>
        <time>2017-02-16T10:38:58Z</time>
      </trkpt>
      <trkpt lat="45.87245" lon="6.40749">
        <ele>1555.55</ele>
        <time>2017-02-16T10:38:59Z</time>
      </trkpt>
      <trkpt lat="45.87262" lon="6.40746">
        <ele>1555.55</ele>
        <time>2017-02-16T10:39:01Z</time>
      </trkpt>
      <trkpt lat="45.87269" lon="6.40743">
        <ele>1557.47</ele>
        <time>2017-02-16T10:39:02Z</time>
      </trkpt>
      <trkpt lat="45.87274" lon="6.40741">
        <ele>1558.43</ele>
        <time>2017-02-16T10:39:03Z</time>
      </trkpt>
      <trkpt lat="45.87278" lon="6.4074">
        <ele>1558.43</ele>
        <time>2017-02-16T10:39:04Z</time>
      </trkpt>
      <trkpt lat="45.8728" lon="6.4074">
        <ele>1558.43</ele>
        <time>2017-02-16T10:39:05Z</time>
      </trkpt>
      <trkpt lat="45.87283" lon="6.40742">
        <ele>1558.43</ele>
        <time>2017-02-16T10:39:17Z</time>
      </trkpt>
      <trkpt lat="45.87303" lon="6.40741">
        <ele>1555.55</ele>
        <time>2017-02-16T10:39:28Z</time>
      </trkpt>
      <trkpt lat="45.87308" lon="6.4074">
        <ele>1554.59</ele>
        <time>2017-02-16T10:39:29Z</time>
      </trkpt>
      <trkpt lat="45.87319" lon="6.40739">
        <ele>1553.15</ele>
        <time>2017-02-16T10:39:31Z</time>
      </trkpt>
      <trkpt lat="45.87331" lon="6.4074">
        <ele>1549.3</ele>
        <time>2017-02-16T10:39:33Z</time>
      </trkpt>
      <trkpt lat="45.87354" lon="6.40741">
        <ele>1543.53</ele>
        <time>2017-02-16T10:39:36Z</time>
      </trkpt>
      <trkpt lat="45.87372" lon="6.40742">
        <ele>1539.69</ele>
        <time>2017-02-16T10:39:38Z</time>
      </trkpt>
      <trkpt lat="45.87392" lon="6.40742">
        <ele>1534.4</ele>
        <time>2017-02-16T10:39:40Z</time>
      </trkpt>
      <trkpt lat="45.87414" lon="6.40747">
        <ele>1529.59</ele>
        <time>2017-02-16T10:39:42Z</time>
      </trkpt>
      <trkpt lat="45.87424" lon="6.40751">
        <ele>1528.15</ele>
        <time>2017-02-16T10:39:43Z</time>
      </trkpt>
      <trkpt lat="45.87433" lon="6.40756">
        <ele>1526.71</ele>
        <time>2017-02-16T10:39:44Z</time>
      </trkpt>
      <trkpt lat="45.87448" lon="6.40767">
        <ele>1523.83</ele>
        <time>2017-02-16T10:39:46Z</time>
      </trkpt>
      <trkpt lat="45.87458" lon="6.40775">
        <ele>1527.19</ele>
        <time>2017-02-16T10:39:48Z</time>
      </trkpt>
      <trkpt lat="45.87462" lon="6.40778">
        <ele>1528.15</ele>
        <time>2017-02-16T10:39:49Z</time>
      </trkpt>
      <trkpt lat="45.87464" lon="6.40779">
        <ele>1528.63</ele>
        <time>2017-02-16T10:39:50Z</time>
      </trkpt>
      <trkpt lat="45.87467" lon="6.40781">
        <ele>1528.63</ele>
        <time>2017-02-16T10:40:01Z</time>
      </trkpt>
      <trkpt lat="45.87468" lon="6.4078">
        <ele>1528.63</ele>
        <time>2017-02-16T10:40:02Z</time>
      </trkpt>
      <trkpt lat="45.87469" lon="6.4078">
        <ele>1528.63</ele>
        <time>2017-02-16T10:40:03Z</time>
      </trkpt>
      <trkpt lat="45.8748" lon="6.40775">
        <ele>1525.75</ele>
        <time>2017-02-16T10:40:11Z</time>
      </trkpt>
      <trkpt lat="45.87482" lon="6.40775">
        <ele>1524.79</ele>
        <time>2017-02-16T10:40:32Z</time>
      </trkpt>
      <trkpt lat="45.87482" lon="6.40772">
        <ele>1524.79</ele>
        <time>2017-02-16T10:40:43Z</time>
      </trkpt>
      <trkpt lat="45.87486" lon="6.40767">
        <ele>1522.87</ele>
        <time>2017-02-16T10:40:46Z</time>
      </trkpt>
      <trkpt lat="45.8749" lon="6.40768">
        <ele>1521.9</ele>
        <time>2017-02-16T10:40:47Z</time>
      </trkpt>
      <trkpt lat="45.87494" lon="6.40769">
        <ele>1520.94</ele>
        <time>2017-02-16T10:40:48Z</time>
      </trkpt>
      <trkpt lat="45.87499" lon="6.40771">
        <ele>1519.5</ele>
        <time>2017-02-16T10:40:49Z</time>
      </trkpt>
      <trkpt lat="45.87505" lon="6.40773">
        <ele>1517.58</ele>
        <time>2017-02-16T10:40:50Z</time>
      </trkpt>
      <trkpt lat="45.87516" lon="6.40775">
        <ele>1516.62</ele>
        <time>2017-02-16T10:40:52Z</time>
      </trkpt>
      <trkpt lat="45.87521" lon="6.40774">
        <ele>1515.66</ele>
        <time>2017-02-16T10:40:53Z</time>
      </trkpt>
      <trkpt lat="45.87525" lon="6.40774">
        <ele>1514.21</ele>
        <time>2017-02-16T10:40:54Z</time>
      </trkpt>
      <trkpt lat="45.87531" lon="6.40773">
        <ele>1513.25</ele>
        <time>2017-02-16T10:40:55Z</time>
      </trkpt>
      <trkpt lat="45.87537" lon="6.4077">
        <ele>1511.33</ele>
        <time>2017-02-16T10:40:56Z</time>
      </trkpt>
      <trkpt lat="45.87544" lon="6.40768">
        <ele>1508.93</ele>
        <time>2017-02-16T10:40:57Z</time>
      </trkpt>
      <trkpt lat="45.8755" lon="6.40768">
        <ele>1507.97</ele>
        <time>2017-02-16T10:40:58Z</time>
      </trkpt>
      <trkpt lat="45.87552" lon="6.40768">
        <ele>1507.97</ele>
        <time>2017-02-16T10:40:59Z</time>
      </trkpt>
      <trkpt lat="45.87553" lon="6.40768">
        <ele>1508.45</ele>
        <time>2017-02-16T10:41:03Z</time>
      </trkpt>
      <trkpt lat="45.87555" lon="6.40767">
        <ele>1508.45</ele>
        <time>2017-02-16T10:41:04Z</time>
      </trkpt>
      <trkpt lat="45.8756" lon="6.40762">
        <ele>1506.52</ele>
        <time>2017-02-16T10:41:07Z</time>
      </trkpt>
      <trkpt lat="45.8756" lon="6.40762">
        <ele>1506.52</ele>
        <time>2017-02-16T10:41:11Z</time>
      </trkpt>
      <trkpt lat="45.87561" lon="6.4076">
        <ele>1506.04</ele>
        <time>2017-02-16T10:41:12Z</time>
      </trkpt>
      <trkpt lat="45.87562" lon="6.40755">
        <ele>1506.04</ele>
        <time>2017-02-16T10:41:13Z</time>
      </trkpt>
      <trkpt lat="45.87567" lon="6.4074">
        <ele>1501.72</ele>
        <time>2017-02-16T10:41:15Z</time>
      </trkpt>
      <trkpt lat="45.87571" lon="6.40734">
        <ele>1500.27</ele>
        <time>2017-02-16T10:41:16Z</time>
      </trkpt>
      <trkpt lat="45.87575" lon="6.40731">
        <ele>1498.83</ele>
        <time>2017-02-16T10:41:17Z</time>
      </trkpt>
      <trkpt lat="45.87578" lon="6.40729">
        <ele>1499.31</ele>
        <time>2017-02-16T10:41:18Z</time>
      </trkpt>
      <trkpt lat="45.8758" lon="6.40726">
        <ele>1498.83</ele>
        <time>2017-02-16T10:41:19Z</time>
      </trkpt>
      <trkpt lat="45.87582" lon="6.40723">
        <ele>1498.83</ele>
        <time>2017-02-16T10:41:20Z</time>
      </trkpt>
      <trkpt lat="45.87583" lon="6.40719">
        <ele>1497.87</ele>
        <time>2017-02-16T10:41:21Z</time>
      </trkpt>
      <trkpt lat="45.87593" lon="6.40698">
        <ele>1495.95</ele>
        <time>2017-02-16T10:41:29Z</time>
      </trkpt>
      <trkpt lat="45.87595" lon="6.40696">
        <ele>1495.47</ele>
        <time>2017-02-16T10:41:31Z</time>
      </trkpt>
      <trkpt lat="45.87597" lon="6.40693">
        <ele>1494.99</ele>
        <time>2017-02-16T10:41:32Z</time>
      </trkpt>
      <trkpt lat="45.87597" lon="6.40688">
        <ele>1494.51</ele>
        <time>2017-02-16T10:41:33Z</time>
      </trkpt>
      <trkpt lat="45.87597" lon="6.40684">
        <ele>1493.55</ele>
        <time>2017-02-16T10:41:34Z</time>
      </trkpt>
      <trkpt lat="45.87597" lon="6.4068">
        <ele>1492.58</ele>
        <time>2017-02-16T10:41:35Z</time>
      </trkpt>
      <trkpt lat="45.87596" lon="6.40675">
        <ele>1491.62</ele>
        <time>2017-02-16T10:41:36Z</time>
      </trkpt>
      <trkpt lat="45.87595" lon="6.40672">
        <ele>1491.14</ele>
        <time>2017-02-16T10:41:37Z</time>
      </trkpt>
      <trkpt lat="45.87595" lon="6.40667">
        <ele>1491.14</ele>
        <time>2017-02-16T10:41:38Z</time>
      </trkpt>
      <trkpt lat="45.87596" lon="6.40662">
        <ele>1490.18</ele>
        <time>2017-02-16T10:41:39Z</time>
      </trkpt>
      <trkpt lat="45.87598" lon="6.40659">
        <ele>1489.22</ele>
        <time>2017-02-16T10:41:40Z</time>
      </trkpt>
      <trkpt lat="45.87599" lon="6.40655">
        <ele>1487.78</ele>
        <time>2017-02-16T10:41:41Z</time>
      </trkpt>
      <trkpt lat="45.876" lon="6.40651">
        <ele>1486.82</ele>
        <time>2017-02-16T10:41:42Z</time>
      </trkpt>
      <trkpt lat="45.87602" lon="6.40648">
        <ele>1485.85</ele>
        <time>2017-02-16T10:41:43Z</time>
      </trkpt>
      <trkpt lat="45.87604" lon="6.40647">
        <ele>1484.89</ele>
        <time>2017-02-16T10:41:44Z</time>
      </trkpt>
      <trkpt lat="45.87609" lon="6.40651">
        <ele>1482.97</ele>
        <time>2017-02-16T10:41:46Z</time>
      </trkpt>
      <trkpt lat="45.87611" lon="6.40654">
        <ele>1483.45</ele>
        <time>2017-02-16T10:41:47Z</time>
      </trkpt>
      <trkpt lat="45.87622" lon="6.40666">
        <ele>1482.97</ele>
        <time>2017-02-16T10:41:54Z</time>
      </trkpt>
      <trkpt lat="45.87627" lon="6.40675">
        <ele>1483.93</ele>
        <time>2017-02-16T10:42:06Z</time>
      </trkpt>
      <trkpt lat="45.87628" lon="6.40675">
        <ele>1483.93</ele>
        <time>2017-02-16T10:42:07Z</time>
      </trkpt>
      <trkpt lat="45.87636" lon="6.40678">
        <ele>1485.37</ele>
        <time>2017-02-16T10:42:20Z</time>
      </trkpt>
      <trkpt lat="45.87636" lon="6.40685">
        <ele>1485.37</ele>
        <time>2017-02-16T10:42:30Z</time>
      </trkpt>
      <trkpt lat="45.87639" lon="6.4069">
        <ele>1485.37</ele>
        <time>2017-02-16T10:42:34Z</time>
      </trkpt>
      <trkpt lat="45.87655" lon="6.40697">
        <ele>1481.05</ele>
        <time>2017-02-16T10:42:40Z</time>
      </trkpt>
      <trkpt lat="45.87674" lon="6.40696">
        <ele>1475.76</ele>
        <time>2017-02-16T10:42:43Z</time>
      </trkpt>
      <trkpt lat="45.87702" lon="6.40686">
        <ele>1467.59</ele>
        <time>2017-02-16T10:42:47Z</time>
      </trkpt>
      <trkpt lat="45.8771" lon="6.40687">
        <ele>1466.63</ele>
        <time>2017-02-16T10:42:48Z</time>
      </trkpt>
      <trkpt lat="45.87725" lon="6.40679">
        <ele>1468.07</ele>
        <time>2017-02-16T10:42:51Z</time>
      </trkpt>
      <trkpt lat="45.87742" lon="6.40679">
        <ele>1465.67</ele>
        <time>2017-02-16T10:42:55Z</time>
      </trkpt>
      <trkpt lat="45.87761" lon="6.40688">
        <ele>1462.78</ele>
        <time>2017-02-16T10:43:00Z</time>
      </trkpt>
      <trkpt lat="45.87768" lon="6.40695">
        <ele>1460.86</ele>
        <time>2017-02-16T10:43:02Z</time>
      </trkpt>
      <trkpt lat="45.87774" lon="6.407">
        <ele>1460.38</ele>
        <time>2017-02-16T10:43:04Z</time>
      </trkpt>
      <trkpt lat="45.87777" lon="6.40702">
        <ele>1460.38</ele>
        <time>2017-02-16T10:43:05Z</time>
      </trkpt>
      <trkpt lat="45.8778" lon="6.40709">
        <ele>1460.38</ele>
        <time>2017-02-16T10:43:14Z</time>
      </trkpt>
      <trkpt lat="45.8778" lon="6.40717">
        <ele>1461.34</ele>
        <time>2017-02-16T10:43:30Z</time>
      </trkpt>
      <trkpt lat="45.87782" lon="6.40725">
        <ele>1461.34</ele>
        <time>2017-02-16T10:43:48Z</time>
      </trkpt>
      <trkpt lat="45.87785" lon="6.40728">
        <ele>1461.34</ele>
        <time>2017-02-16T10:44:10Z</time>
      </trkpt>
      <trkpt lat="45.87783" lon="6.40734">
        <ele>1461.82</ele>
        <time>2017-02-16T10:44:26Z</time>
      </trkpt>
      <trkpt lat="45.87781" lon="6.4074">
        <ele>1461.82</ele>
        <time>2017-02-16T10:44:45Z</time>
      </trkpt>
      <trkpt lat="45.87779" lon="6.40744">
        <ele>1461.82</ele>
        <time>2017-02-16T10:45:01Z</time>
      </trkpt>
      <trkpt lat="45.87775" lon="6.40746">
        <ele>1461.82</ele>
        <time>2017-02-16T10:45:17Z</time>
      </trkpt>
      <trkpt lat="45.8777" lon="6.40752">
        <ele>1461.82</ele>
        <time>2017-02-16T10:45:27Z</time>
      </trkpt>
      <trkpt lat="45.87764" lon="6.40758">
        <ele>1463.26</ele>
        <time>2017-02-16T10:45:30Z</time>
      </trkpt>
      <trkpt lat="45.87759" lon="6.40764">
        <ele>1467.11</ele>
        <time>2017-02-16T10:45:33Z</time>
      </trkpt>
      <trkpt lat="45.87755" lon="6.40769">
        <ele>1470.47</ele>
        <time>2017-02-16T10:45:35Z</time>
      </trkpt>
      <trkpt lat="45.87749" lon="6.40774">
        <ele>1473.84</ele>
        <time>2017-02-16T10:45:38Z</time>
      </trkpt>
      <trkpt lat="45.87743" lon="6.40781">
        <ele>1477.2</ele>
        <time>2017-02-16T10:45:42Z</time>
      </trkpt>
      <trkpt lat="45.87741" lon="6.40783">
        <ele>1477.2</ele>
        <time>2017-02-16T10:45:43Z</time>
      </trkpt>
      <trkpt lat="45.87734" lon="6.40791">
        <ele>1480.09</ele>
        <time>2017-02-16T10:45:47Z</time>
      </trkpt>
      <trkpt lat="45.87724" lon="6.40802">
        <ele>1483.93</ele>
        <time>2017-02-16T10:45:52Z</time>
      </trkpt>
      <trkpt lat="45.87719" lon="6.40806">
        <ele>1484.41</ele>
        <time>2017-02-16T10:45:54Z</time>
      </trkpt>
      <trkpt lat="45.87706" lon="6.40818">
        <ele>1487.3</ele>
        <time>2017-02-16T10:46:00Z</time>
      </trkpt>
      <trkpt lat="45.87702" lon="6.40823">
        <ele>1488.74</ele>
        <time>2017-02-16T10:46:02Z</time>
      </trkpt>
      <trkpt lat="45.87693" lon="6.40832">
        <ele>1492.58</ele>
        <time>2017-02-16T10:46:07Z</time>
      </trkpt>
      <trkpt lat="45.87685" lon="6.40838">
        <ele>1495.47</ele>
        <time>2017-02-16T10:46:11Z</time>
      </trkpt>
      <trkpt lat="45.87677" lon="6.40845">
        <ele>1499.31</ele>
        <time>2017-02-16T10:46:15Z</time>
      </trkpt>
      <trkpt lat="45.87672" lon="6.4085">
        <ele>1502.68</ele>
        <time>2017-02-16T10:46:18Z</time>
      </trkpt>
      <trkpt lat="45.87666" lon="6.40857">
        <ele>1506.52</ele>
        <time>2017-02-16T10:46:21Z</time>
      </trkpt>
      <trkpt lat="45.87655" lon="6.40868">
        <ele>1509.89</ele>
        <time>2017-02-16T10:46:26Z</time>
      </trkpt>
      <trkpt lat="45.8764" lon="6.40882">
        <ele>1513.25</ele>
        <time>2017-02-16T10:46:33Z</time>
      </trkpt>
      <trkpt lat="45.8763" lon="6.40893">
        <ele>1516.62</ele>
        <time>2017-02-16T10:46:38Z</time>
      </trkpt>
      <trkpt lat="45.87622" lon="6.40901">
        <ele>1519.98</ele>
        <time>2017-02-16T10:46:42Z</time>
      </trkpt>
      <trkpt lat="45.87614" lon="6.4091">
        <ele>1522.87</ele>
        <time>2017-02-16T10:46:46Z</time>
      </trkpt>
      <trkpt lat="45.87607" lon="6.40917">
        <ele>1526.23</ele>
        <time>2017-02-16T10:46:49Z</time>
      </trkpt>
      <trkpt lat="45.87601" lon="6.40924">
        <ele>1529.59</ele>
        <time>2017-02-16T10:46:52Z</time>
      </trkpt>
      <trkpt lat="45.87595" lon="6.40931">
        <ele>1533.44</ele>
        <time>2017-02-16T10:46:55Z</time>
      </trkpt>
      <trkpt lat="45.87589" lon="6.40937">
        <ele>1536.8</ele>
        <time>2017-02-16T10:46:58Z</time>
      </trkpt>
      <trkpt lat="45.8758" lon="6.40944">
        <ele>1540.65</ele>
        <time>2017-02-16T10:47:02Z</time>
      </trkpt>
      <trkpt lat="45.87573" lon="6.40951">
        <ele>1544.01</ele>
        <time>2017-02-16T10:47:06Z</time>
      </trkpt>
      <trkpt lat="45.87562" lon="6.40962">
        <ele>1546.9</ele>
        <time>2017-02-16T10:47:12Z</time>
      </trkpt>
      <trkpt lat="45.87554" lon="6.4097">
        <ele>1550.26</ele>
        <time>2017-02-16T10:47:16Z</time>
      </trkpt>
      <trkpt lat="45.87544" lon="6.4098">
        <ele>1553.63</ele>
        <time>2017-02-16T10:47:21Z</time>
      </trkpt>
      <trkpt lat="45.87531" lon="6.40992">
        <ele>1556.99</ele>
        <time>2017-02-16T10:47:27Z</time>
      </trkpt>
      <trkpt lat="45.87523" lon="6.41">
        <ele>1560.36</ele>
        <time>2017-02-16T10:47:31Z</time>
      </trkpt>
      <trkpt lat="45.87515" lon="6.41008">
        <ele>1564.68</ele>
        <time>2017-02-16T10:47:35Z</time>
      </trkpt>
      <trkpt lat="45.87509" lon="6.41014">
        <ele>1568.53</ele>
        <time>2017-02-16T10:47:38Z</time>
      </trkpt>
      <trkpt lat="45.87503" lon="6.4102">
        <ele>1572.37</ele>
        <time>2017-02-16T10:47:41Z</time>
      </trkpt>
      <trkpt lat="45.87497" lon="6.41025">
        <ele>1576.22</ele>
        <time>2017-02-16T10:47:44Z</time>
      </trkpt>
      <trkpt lat="45.87492" lon="6.41031">
        <ele>1580.06</ele>
        <time>2017-02-16T10:47:47Z</time>
      </trkpt>
      <trkpt lat="45.87486" lon="6.41036">
        <ele>1583.91</ele>
        <time>2017-02-16T10:47:50Z</time>
      </trkpt>
      <trkpt lat="45.8748" lon="6.41041">
        <ele>1587.75</ele>
        <time>2017-02-16T10:47:53Z</time>
      </trkpt>
      <trkpt lat="45.87469" lon="6.41052">
        <ele>1591.12</ele>
        <time>2017-02-16T10:47:59Z</time>
      </trkpt>
      <trkpt lat="45.87456" lon="6.41067">
        <ele>1594.48</ele>
        <time>2017-02-16T10:48:06Z</time>
      </trkpt>
      <trkpt lat="45.87449" lon="6.41075">
        <ele>1597.85</ele>
        <time>2017-02-16T10:48:10Z</time>
      </trkpt>
      <trkpt lat="45.87429" lon="6.41091">
        <ele>1601.69</ele>
        <time>2017-02-16T10:48:19Z</time>
      </trkpt>
      <trkpt lat="45.87425" lon="6.41094">
        <ele>1602.17</ele>
        <time>2017-02-16T10:48:21Z</time>
      </trkpt>
      <trkpt lat="45.87412" lon="6.411">
        <ele>1605.54</ele>
        <time>2017-02-16T10:48:27Z</time>
      </trkpt>
      <trkpt lat="45.87395" lon="6.41113">
        <ele>1609.38</ele>
        <time>2017-02-16T10:48:34Z</time>
      </trkpt>
      <trkpt lat="45.87383" lon="6.41121">
        <ele>1612.27</ele>
        <time>2017-02-16T10:48:39Z</time>
      </trkpt>
      <trkpt lat="45.87365" lon="6.41131">
        <ele>1616.11</ele>
        <time>2017-02-16T10:48:46Z</time>
      </trkpt>
      <trkpt lat="45.87356" lon="6.41137">
        <ele>1619.48</ele>
        <time>2017-02-16T10:48:50Z</time>
      </trkpt>
      <trkpt lat="45.8735" lon="6.4114">
        <ele>1622.36</ele>
        <time>2017-02-16T10:48:53Z</time>
      </trkpt>
      <trkpt lat="45.87343" lon="6.41144">
        <ele>1626.69</ele>
        <time>2017-02-16T10:48:56Z</time>
      </trkpt>
      <trkpt lat="45.87341" lon="6.41145">
        <ele>1626.69</ele>
        <time>2017-02-16T10:48:57Z</time>
      </trkpt>
      <trkpt lat="45.87332" lon="6.41151">
        <ele>1630.53</ele>
        <time>2017-02-16T10:49:01Z</time>
      </trkpt>
      <trkpt lat="45.87323" lon="6.41156">
        <ele>1633.9</ele>
        <time>2017-02-16T10:49:05Z</time>
      </trkpt>
      <trkpt lat="45.87308" lon="6.41164">
        <ele>1637.74</ele>
        <time>2017-02-16T10:49:11Z</time>
      </trkpt>
      <trkpt lat="45.87301" lon="6.41168">
        <ele>1637.74</ele>
        <time>2017-02-16T10:49:13Z</time>
      </trkpt>
      <trkpt lat="45.87298" lon="6.41171">
        <ele>1637.74</ele>
        <time>2017-02-16T10:49:14Z</time>
      </trkpt>
      <trkpt lat="45.87294" lon="6.41175">
        <ele>1635.82</ele>
        <time>2017-02-16T10:49:15Z</time>
      </trkpt>
      <trkpt lat="45.87292" lon="6.41178">
        <ele>1636.3</ele>
        <time>2017-02-16T10:49:16Z</time>
      </trkpt>
      <trkpt lat="45.87289" lon="6.41179">
        <ele>1635.82</ele>
        <time>2017-02-16T10:49:17Z</time>
      </trkpt>
      <trkpt lat="45.87286" lon="6.4118">
        <ele>1635.34</ele>
        <time>2017-02-16T10:49:18Z</time>
      </trkpt>
      <trkpt lat="45.87283" lon="6.4118">
        <ele>1635.34</ele>
        <time>2017-02-16T10:49:19Z</time>
      </trkpt>
      <trkpt lat="45.8728" lon="6.4118">
        <ele>1635.34</ele>
        <time>2017-02-16T10:49:20Z</time>
      </trkpt>
      <trkpt lat="45.87278" lon="6.4118">
        <ele>1636.78</ele>
        <time>2017-02-16T10:49:32Z</time>
      </trkpt>
      <trkpt lat="45.87279" lon="6.41179">
        <ele>1636.78</ele>
        <time>2017-02-16T10:49:53Z</time>
      </trkpt>
      <trkpt lat="45.87279" lon="6.41178">
        <ele>1636.78</ele>
        <time>2017-02-16T10:49:57Z</time>
      </trkpt>
      <trkpt lat="45.87279" lon="6.41159">
        <ele>1634.38</ele>
        <time>2017-02-16T10:50:09Z</time>
      </trkpt>
      <trkpt lat="45.87279" lon="6.41151">
        <ele>1632.46</ele>
        <time>2017-02-16T10:50:11Z</time>
      </trkpt>
      <trkpt lat="45.8728" lon="6.41136">
        <ele>1628.61</ele>
        <time>2017-02-16T10:50:13Z</time>
      </trkpt>
      <trkpt lat="45.87284" lon="6.4111">
        <ele>1624.77</ele>
        <time>2017-02-16T10:50:17Z</time>
      </trkpt>
      <trkpt lat="45.87286" lon="6.41105">
        <ele>1623.32</ele>
        <time>2017-02-16T10:50:18Z</time>
      </trkpt>
      <trkpt lat="45.87293" lon="6.41085">
        <ele>1619.48</ele>
        <time>2017-02-16T10:50:22Z</time>
      </trkpt>
      <trkpt lat="45.87299" lon="6.41074">
        <ele>1618.04</ele>
        <time>2017-02-16T10:50:32Z</time>
      </trkpt>
      <trkpt lat="45.87307" lon="6.4106">
        <ele>1614.19</ele>
        <time>2017-02-16T10:50:43Z</time>
      </trkpt>
      <trkpt lat="45.87322" lon="6.41036">
        <ele>1611.31</ele>
        <time>2017-02-16T10:50:47Z</time>
      </trkpt>
      <trkpt lat="45.87325" lon="6.41032">
        <ele>1611.31</ele>
        <time>2017-02-16T10:50:48Z</time>
      </trkpt>
      <trkpt lat="45.87328" lon="6.41025">
        <ele>1610.83</ele>
        <time>2017-02-16T10:50:55Z</time>
      </trkpt>
      <trkpt lat="45.87333" lon="6.41016">
        <ele>1606.5</ele>
        <time>2017-02-16T10:50:58Z</time>
      </trkpt>
      <trkpt lat="45.87338" lon="6.41007">
        <ele>1602.17</ele>
        <time>2017-02-16T10:50:59Z</time>
      </trkpt>
      <trkpt lat="45.87346" lon="6.40994">
        <ele>1594.96</ele>
        <time>2017-02-16T10:51:00Z</time>
      </trkpt>
      <trkpt lat="45.87372" lon="6.40959">
        <ele>1581.03</ele>
        <time>2017-02-16T10:51:02Z</time>
      </trkpt>
      <trkpt lat="45.87381" lon="6.40939">
        <ele>1585.35</ele>
        <time>2017-02-16T10:51:04Z</time>
      </trkpt>
      <trkpt lat="45.87381" lon="6.40934">
        <ele>1586.31</ele>
        <time>2017-02-16T10:51:06Z</time>
      </trkpt>
      <trkpt lat="45.87369" lon="6.40936">
        <ele>1586.31</ele>
        <time>2017-02-16T10:51:20Z</time>
      </trkpt>
      <trkpt lat="45.8736" lon="6.40933">
        <ele>1584.87</ele>
        <time>2017-02-16T10:51:29Z</time>
      </trkpt>
      <trkpt lat="45.87359" lon="6.40932">
        <ele>1584.87</ele>
        <time>2017-02-16T10:51:30Z</time>
      </trkpt>
      <trkpt lat="45.87356" lon="6.40926">
        <ele>1583.91</ele>
        <time>2017-02-16T10:51:32Z</time>
      </trkpt>
      <trkpt lat="45.87355" lon="6.40921">
        <ele>1582.47</ele>
        <time>2017-02-16T10:51:33Z</time>
      </trkpt>
      <trkpt lat="45.87353" lon="6.40912">
        <ele>1580.06</ele>
        <time>2017-02-16T10:51:34Z</time>
      </trkpt>
      <trkpt lat="45.87352" lon="6.40901">
        <ele>1577.66</ele>
        <time>2017-02-16T10:51:35Z</time>
      </trkpt>
      <trkpt lat="45.87353" lon="6.40888">
        <ele>1573.82</ele>
        <time>2017-02-16T10:51:36Z</time>
      </trkpt>
      <trkpt lat="45.87352" lon="6.40876">
        <ele>1571.41</ele>
        <time>2017-02-16T10:51:37Z</time>
      </trkpt>
      <trkpt lat="45.87349" lon="6.40865">
        <ele>1570.45</ele>
        <time>2017-02-16T10:51:38Z</time>
      </trkpt>
      <trkpt lat="45.87347" lon="6.40854">
        <ele>1569.97</ele>
        <time>2017-02-16T10:51:39Z</time>
      </trkpt>
      <trkpt lat="45.87345" lon="6.40843">
        <ele>1567.57</ele>
        <time>2017-02-16T10:51:40Z</time>
      </trkpt>
      <trkpt lat="45.87342" lon="6.40832">
        <ele>1565.64</ele>
        <time>2017-02-16T10:51:41Z</time>
      </trkpt>
      <trkpt lat="45.87339" lon="6.40822">
        <ele>1564.2</ele>
        <time>2017-02-16T10:51:42Z</time>
      </trkpt>
      <trkpt lat="45.87336" lon="6.40815">
        <ele>1564.2</ele>
        <time>2017-02-16T10:51:43Z</time>
      </trkpt>
      <trkpt lat="45.87322" lon="6.40791">
        <ele>1564.68</ele>
        <time>2017-02-16T10:51:51Z</time>
      </trkpt>
      <trkpt lat="45.87318" lon="6.40783">
        <ele>1562.76</ele>
        <time>2017-02-16T10:51:53Z</time>
      </trkpt>
      <trkpt lat="45.87315" lon="6.40778">
        <ele>1561.8</ele>
        <time>2017-02-16T10:51:54Z</time>
      </trkpt>
      <trkpt lat="45.87311" lon="6.40775">
        <ele>1561.8</ele>
        <time>2017-02-16T10:51:55Z</time>
      </trkpt>
      <trkpt lat="45.87309" lon="6.4077">
        <ele>1560.36</ele>
        <time>2017-02-16T10:51:56Z</time>
      </trkpt>
      <trkpt lat="45.87308" lon="6.40764">
        <ele>1559.88</ele>
        <time>2017-02-16T10:51:57Z</time>
      </trkpt>
      <trkpt lat="45.8731" lon="6.40757">
        <ele>1557.95</ele>
        <time>2017-02-16T10:51:58Z</time>
      </trkpt>
      <trkpt lat="45.87312" lon="6.40753">
        <ele>1556.51</ele>
        <time>2017-02-16T10:51:59Z</time>
      </trkpt>
      <trkpt lat="45.87315" lon="6.40751">
        <ele>1555.55</ele>
        <time>2017-02-16T10:52:00Z</time>
      </trkpt>
      <trkpt lat="45.8732" lon="6.4075">
        <ele>1554.11</ele>
        <time>2017-02-16T10:52:01Z</time>
      </trkpt>
      <trkpt lat="45.87324" lon="6.4075">
        <ele>1552.19</ele>
        <time>2017-02-16T10:52:02Z</time>
      </trkpt>
      <trkpt lat="45.8733" lon="6.40747">
        <ele>1549.78</ele>
        <time>2017-02-16T10:52:03Z</time>
      </trkpt>
      <trkpt lat="45.87337" lon="6.40742">
        <ele>1547.38</ele>
        <time>2017-02-16T10:52:04Z</time>
      </trkpt>
      <trkpt lat="45.87342" lon="6.40738">
        <ele>1545.94</ele>
        <time>2017-02-16T10:52:05Z</time>
      </trkpt>
      <trkpt lat="45.87348" lon="6.40738">
        <ele>1545.94</ele>
        <time>2017-02-16T10:52:06Z</time>
      </trkpt>
      <trkpt lat="45.87352" lon="6.40738">
        <ele>1544.5</ele>
        <time>2017-02-16T10:52:07Z</time>
      </trkpt>
      <trkpt lat="45.87354" lon="6.40738">
        <ele>1544.5</ele>
        <time>2017-02-16T10:52:08Z</time>
      </trkpt>
      <trkpt lat="45.87357" lon="6.40737">
        <ele>1543.53</ele>
        <time>2017-02-16T10:52:10Z</time>
      </trkpt>
      <trkpt lat="45.87359" lon="6.40736">
        <ele>1543.05</ele>
        <time>2017-02-16T10:52:11Z</time>
      </trkpt>
      <trkpt lat="45.87375" lon="6.4073">
        <ele>1539.69</ele>
        <time>2017-02-16T10:52:14Z</time>
      </trkpt>
      <trkpt lat="45.87382" lon="6.40731">
        <ele>1537.77</ele>
        <time>2017-02-16T10:52:15Z</time>
      </trkpt>
      <trkpt lat="45.8739" lon="6.40733">
        <ele>1535.36</ele>
        <time>2017-02-16T10:52:16Z</time>
      </trkpt>
      <trkpt lat="45.87406" lon="6.40737">
        <ele>1531.52</ele>
        <time>2017-02-16T10:52:18Z</time>
      </trkpt>
      <trkpt lat="45.87414" lon="6.40734">
        <ele>1531.04</ele>
        <time>2017-02-16T10:52:19Z</time>
      </trkpt>
      <trkpt lat="45.87419" lon="6.4073">
        <ele>1531.04</ele>
        <time>2017-02-16T10:52:20Z</time>
      </trkpt>
      <trkpt lat="45.87421" lon="6.40726">
        <ele>1531.04</ele>
        <time>2017-02-16T10:52:21Z</time>
      </trkpt>
      <trkpt lat="45.87421" lon="6.40724">
        <ele>1530.56</ele>
        <time>2017-02-16T10:52:22Z</time>
      </trkpt>
      <trkpt lat="45.87421" lon="6.40722">
        <ele>1530.08</ele>
        <time>2017-02-16T10:52:23Z</time>
      </trkpt>
      <trkpt lat="45.87422" lon="6.40715">
        <ele>1528.63</ele>
        <time>2017-02-16T10:52:25Z</time>
      </trkpt>
      <trkpt lat="45.87425" lon="6.40707">
        <ele>1527.19</ele>
        <time>2017-02-16T10:52:27Z</time>
      </trkpt>
      <trkpt lat="45.87427" lon="6.40702">
        <ele>1526.23</ele>
        <time>2017-02-16T10:52:29Z</time>
      </trkpt>
      <trkpt lat="45.87426" lon="6.40704">
        <ele>1526.71</ele>
        <time>2017-02-16T10:52:44Z</time>
      </trkpt>
      <trkpt lat="45.87424" lon="6.40711">
        <ele>1526.71</ele>
        <time>2017-02-16T10:52:52Z</time>
      </trkpt>
      <trkpt lat="45.87425" lon="6.40713">
        <ele>1526.71</ele>
        <time>2017-02-16T10:52:54Z</time>
      </trkpt>
      <trkpt lat="45.87428" lon="6.40716">
        <ele>1528.15</ele>
        <time>2017-02-16T10:52:57Z</time>
      </trkpt>
      <trkpt lat="45.87441" lon="6.40728">
        <ele>1528.15</ele>
        <time>2017-02-16T10:53:08Z</time>
      </trkpt>
      <trkpt lat="45.87459" lon="6.40743">
        <ele>1527.67</ele>
        <time>2017-02-16T10:53:24Z</time>
      </trkpt>
      <trkpt lat="45.87472" lon="6.40746">
        <ele>1524.31</ele>
        <time>2017-02-16T10:53:36Z</time>
      </trkpt>
      <trkpt lat="45.87474" lon="6.40748">
        <ele>1524.31</ele>
        <time>2017-02-16T10:53:37Z</time>
      </trkpt>
      <trkpt lat="45.87488" lon="6.40754">
        <ele>1521.42</ele>
        <time>2017-02-16T10:53:41Z</time>
      </trkpt>
      <trkpt lat="45.87494" lon="6.40756">
        <ele>1520.46</ele>
        <time>2017-02-16T10:53:42Z</time>
      </trkpt>
      <trkpt lat="45.875" lon="6.40756">
        <ele>1519.02</ele>
        <time>2017-02-16T10:53:43Z</time>
      </trkpt>
      <trkpt lat="45.87507" lon="6.40757">
        <ele>1517.58</ele>
        <time>2017-02-16T10:53:44Z</time>
      </trkpt>
      <trkpt lat="45.87512" lon="6.40758">
        <ele>1517.58</ele>
        <time>2017-02-16T10:53:45Z</time>
      </trkpt>
      <trkpt lat="45.87516" lon="6.40757">
        <ele>1516.62</ele>
        <time>2017-02-16T10:53:46Z</time>
      </trkpt>
      <trkpt lat="45.87519" lon="6.40756">
        <ele>1515.66</ele>
        <time>2017-02-16T10:53:47Z</time>
      </trkpt>
      <trkpt lat="45.87522" lon="6.40755">
        <ele>1514.21</ele>
        <time>2017-02-16T10:53:48Z</time>
      </trkpt>
      <trkpt lat="45.87527" lon="6.40752">
        <ele>1512.77</ele>
        <time>2017-02-16T10:53:49Z</time>
      </trkpt>
      <trkpt lat="45.87535" lon="6.40747">
        <ele>1509.89</ele>
        <time>2017-02-16T10:53:50Z</time>
      </trkpt>
      <trkpt lat="45.87544" lon="6.4074">
        <ele>1501.72</ele>
        <time>2017-02-16T10:53:51Z</time>
      </trkpt>
      <trkpt lat="45.87554" lon="6.40732">
        <ele>1495.95</ele>
        <time>2017-02-16T10:53:52Z</time>
      </trkpt>
      <trkpt lat="45.87574" lon="6.40715">
        <ele>1493.06</ele>
        <time>2017-02-16T10:53:54Z</time>
      </trkpt>
      <trkpt lat="45.87579" lon="6.40706">
        <ele>1494.99</ele>
        <time>2017-02-16T10:53:55Z</time>
      </trkpt>
      <trkpt lat="45.87582" lon="6.40698">
        <ele>1495.95</ele>
        <time>2017-02-16T10:53:56Z</time>
      </trkpt>
      <trkpt lat="45.87586" lon="6.40693">
        <ele>1495.95</ele>
        <time>2017-02-16T10:53:57Z</time>
      </trkpt>
      <trkpt lat="45.87589" lon="6.4069">
        <ele>1495.95</ele>
        <time>2017-02-16T10:53:58Z</time>
      </trkpt>
      <trkpt lat="45.87588" lon="6.40687">
        <ele>1496.43</ele>
        <time>2017-02-16T10:54:02Z</time>
      </trkpt>
      <trkpt lat="45.87588" lon="6.40684">
        <ele>1494.99</ele>
        <time>2017-02-16T10:54:03Z</time>
      </trkpt>
      <trkpt lat="45.87587" lon="6.40672">
        <ele>1491.62</ele>
        <time>2017-02-16T10:54:06Z</time>
      </trkpt>
      <trkpt lat="45.87587" lon="6.40662">
        <ele>1491.14</ele>
        <time>2017-02-16T10:54:15Z</time>
      </trkpt>
      <trkpt lat="45.87589" lon="6.40657">
        <ele>1489.22</ele>
        <time>2017-02-16T10:54:16Z</time>
      </trkpt>
      <trkpt lat="45.87591" lon="6.40653">
        <ele>1487.78</ele>
        <time>2017-02-16T10:54:17Z</time>
      </trkpt>
      <trkpt lat="45.87591" lon="6.40647">
        <ele>1485.85</ele>
        <time>2017-02-16T10:54:18Z</time>
      </trkpt>
      <trkpt lat="45.8759" lon="6.40639">
        <ele>1484.89</ele>
        <time>2017-02-16T10:54:19Z</time>
      </trkpt>
      <trkpt lat="45.87588" lon="6.4063">
        <ele>1481.53</ele>
        <time>2017-02-16T10:54:20Z</time>
      </trkpt>
      <trkpt lat="45.87585" lon="6.40622">
        <ele>1480.09</ele>
        <time>2017-02-16T10:54:21Z</time>
      </trkpt>
      <trkpt lat="45.87583" lon="6.40614">
        <ele>1480.09</ele>
        <time>2017-02-16T10:54:22Z</time>
      </trkpt>
      <trkpt lat="45.87583" lon="6.40605">
        <ele>1478.16</ele>
        <time>2017-02-16T10:54:23Z</time>
      </trkpt>
      <trkpt lat="45.87584" lon="6.40596">
        <ele>1476.24</ele>
        <time>2017-02-16T10:54:24Z</time>
      </trkpt>
      <trkpt lat="45.87583" lon="6.40589">
        <ele>1475.76</ele>
        <time>2017-02-16T10:54:25Z</time>
      </trkpt>
      <trkpt lat="45.87579" lon="6.40584">
        <ele>1475.28</ele>
        <time>2017-02-16T10:54:26Z</time>
      </trkpt>
      <trkpt lat="45.87571" lon="6.4055">
        <ele>1471.92</ele>
        <time>2017-02-16T10:54:31Z</time>
      </trkpt>
      <trkpt lat="45.87583" lon="6.40497">
        <ele>1464.23</ele>
        <time>2017-02-16T10:54:36Z</time>
      </trkpt>
      <trkpt lat="45.87591" lon="6.40477">
        <ele>1462.3</ele>
        <time>2017-02-16T10:54:38Z</time>
      </trkpt>
      <trkpt lat="45.87607" lon="6.40426">
        <ele>1463.26</ele>
        <time>2017-02-16T10:54:44Z</time>
      </trkpt>
      <trkpt lat="45.87613" lon="6.40409">
        <ele>1461.82</ele>
        <time>2017-02-16T10:54:47Z</time>
      </trkpt>
      <trkpt lat="45.87616" lon="6.40402">
        <ele>1463.74</ele>
        <time>2017-02-16T10:54:50Z</time>
      </trkpt>
      <trkpt lat="45.87615" lon="6.40395">
        <ele>1463.74</ele>
        <time>2017-02-16T10:55:03Z</time>
      </trkpt>
      <trkpt lat="45.87615" lon="6.40384">
        <ele>1463.74</ele>
        <time>2017-02-16T10:55:19Z</time>
      </trkpt>
      <trkpt lat="45.87617" lon="6.40377">
        <ele>1463.74</ele>
        <time>2017-02-16T10:55:34Z</time>
      </trkpt>
      <trkpt lat="45.87617" lon="6.40377">
        <ele>1463.74</ele>
        <time>2017-02-16T10:55:35Z</time>
      </trkpt>
      <trkpt lat="45.87619" lon="6.40373">
        <ele>1461.82</ele>
        <time>2017-02-16T10:55:37Z</time>
      </trkpt>
      <trkpt lat="45.87621" lon="6.4037">
        <ele>1460.86</ele>
        <time>2017-02-16T10:55:38Z</time>
      </trkpt>
      <trkpt lat="45.87627" lon="6.40368">
        <ele>1459.9</ele>
        <time>2017-02-16T10:55:40Z</time>
      </trkpt>
      <trkpt lat="45.87632" lon="6.40368">
        <ele>1459.42</ele>
        <time>2017-02-16T10:55:41Z</time>
      </trkpt>
      <trkpt lat="45.87634" lon="6.40368">
        <ele>1459.9</ele>
        <time>2017-02-16T10:55:42Z</time>
      </trkpt>
      <trkpt lat="45.87638" lon="6.40366">
        <ele>1459.9</ele>
        <time>2017-02-16T10:55:43Z</time>
      </trkpt>
      <trkpt lat="45.87641" lon="6.40364">
        <ele>1458.46</ele>
        <time>2017-02-16T10:55:44Z</time>
      </trkpt>
      <trkpt lat="45.87643" lon="6.40362">
        <ele>1457.98</ele>
        <time>2017-02-16T10:55:45Z</time>
      </trkpt>
      <trkpt lat="45.87645" lon="6.40361">
        <ele>1457.98</ele>
        <time>2017-02-16T10:55:46Z</time>
      </trkpt>
      <trkpt lat="45.87647" lon="6.40357">
        <ele>1457.98</ele>
        <time>2017-02-16T10:55:48Z</time>
      </trkpt>
      <trkpt lat="45.87647" lon="6.40352">
        <ele>1457.98</ele>
        <time>2017-02-16T10:55:49Z</time>
      </trkpt>
      <trkpt lat="45.87651" lon="6.40341">
        <ele>1455.09</ele>
        <time>2017-02-16T10:55:51Z</time>
      </trkpt>
      <trkpt lat="45.87654" lon="6.40333">
        <ele>1452.21</ele>
        <time>2017-02-16T10:55:52Z</time>
      </trkpt>
      <trkpt lat="45.87652" lon="6.40308">
        <ele>1453.65</ele>
        <time>2017-02-16T10:55:57Z</time>
      </trkpt>
      <trkpt lat="45.87651" lon="6.4029">
        <ele>1453.65</ele>
        <time>2017-02-16T10:56:08Z</time>
      </trkpt>
      <trkpt lat="45.87652" lon="6.4029">
        <ele>1453.65</ele>
        <time>2017-02-16T10:56:28Z</time>
      </trkpt>
      <trkpt lat="45.87652" lon="6.40289">
        <ele>1455.09</ele>
        <time>2017-02-16T10:56:39Z</time>
      </trkpt>
      <trkpt lat="45.87651" lon="6.4029">
        <ele>1453.17</ele>
        <time>2017-02-16T10:56:47Z</time>
      </trkpt>
      <trkpt lat="45.8765" lon="6.4029">
        <ele>1454.13</ele>
        <time>2017-02-16T10:57:17Z</time>
      </trkpt>
    </trkseg>
  </trk>
</gpx>